<?xml version="1.0" encoding="UTF-8" standalone="no" ?>
<gpx xmlns="http://www.topografix.com/GPX/1/1" xmlns:xsi="http://www.w3.org/2001/XMLSchema-instance" xsi:schemaLocation="http://www.topografix.com/GPX/1/1 http://www.topografix.com/GPX/1/1/gpx.xsd" version="1.1" creator="VisuGPX - https://www.visugpx.com">
  <metadata>
    <name>Randonnée Des Gravettes</name>
    <desc><![CDATA[Circuit au départ de la salle des fêtes de Mesnil Esnard avec retour par Bonsecours]]></desc>
  </metadata>
  <trk>
    <name><![CDATA[Randonnée Des Gravettes_1]]></name>
    <trkseg>
      <trkpt lat="49.41153" lon="1.13614">
        <ele>156</ele>
        <time>2017-01-17T13:42:18Z</time>
      </trkpt>
      <trkpt lat="49.41149" lon="1.13614">
        <ele>156</ele>
        <time>2017-01-17T13:42:18Z</time>
      </trkpt>
      <trkpt lat="49.41145" lon="1.13609">
        <ele>156</ele>
        <time>2017-01-17T13:42:18Z</time>
      </trkpt>
      <trkpt lat="49.41144" lon="1.1361">
        <ele>156</ele>
        <time>2017-01-17T13:42:18Z</time>
      </trkpt>
      <trkpt lat="49.41144" lon="1.1361">
        <ele>156</ele>
        <time>2017-01-17T13:42:18Z</time>
      </trkpt>
      <trkpt lat="49.41144" lon="1.1361">
        <ele>156</ele>
        <time>2017-01-17T13:43:06Z</time>
      </trkpt>
      <trkpt lat="49.41146" lon="1.13612">
        <ele>156</ele>
        <time>2017-01-17T13:43:06Z</time>
      </trkpt>
      <trkpt lat="49.41141" lon="1.13618">
        <ele>156</ele>
        <time>2017-01-17T13:43:06Z</time>
      </trkpt>
      <trkpt lat="49.41139" lon="1.13624">
        <ele>156</ele>
        <time>2017-01-17T13:43:06Z</time>
      </trkpt>
      <trkpt lat="49.41137" lon="1.13624">
        <ele>156</ele>
        <time>2017-01-17T13:43:22Z</time>
      </trkpt>
      <trkpt lat="49.41145" lon="1.1363">
        <ele>157</ele>
        <time>2017-01-17T13:43:22Z</time>
      </trkpt>
      <trkpt lat="49.41146" lon="1.13632">
        <ele>157</ele>
        <time>2017-01-17T13:43:22Z</time>
      </trkpt>
      <trkpt lat="49.41145" lon="1.13635">
        <ele>157</ele>
        <time>2017-01-17T13:43:22Z</time>
      </trkpt>
      <trkpt lat="49.41143" lon="1.13636">
        <ele>157</ele>
        <time>2017-01-17T13:43:38Z</time>
      </trkpt>
      <trkpt lat="49.41141" lon="1.13634">
        <ele>157</ele>
        <time>2017-01-17T13:43:38Z</time>
      </trkpt>
      <trkpt lat="49.41134" lon="1.13628">
        <ele>157</ele>
        <time>2017-01-17T13:43:38Z</time>
      </trkpt>
      <trkpt lat="49.41132" lon="1.13627">
        <ele>157</ele>
        <time>2017-01-17T13:43:38Z</time>
      </trkpt>
      <trkpt lat="49.41133" lon="1.13626">
        <ele>157</ele>
        <time>2017-01-17T13:44:22Z</time>
      </trkpt>
      <trkpt lat="49.41133" lon="1.13626">
        <ele>157</ele>
        <time>2017-01-17T13:44:22Z</time>
      </trkpt>
      <trkpt lat="49.41134" lon="1.13629">
        <ele>157</ele>
        <time>2017-01-17T13:44:22Z</time>
      </trkpt>
      <trkpt lat="49.41138" lon="1.13631">
        <ele>157</ele>
        <time>2017-01-17T13:44:22Z</time>
      </trkpt>
      <trkpt lat="49.41143" lon="1.13632">
        <ele>157</ele>
        <time>2017-01-17T13:44:22Z</time>
      </trkpt>
      <trkpt lat="49.41147" lon="1.13635">
        <ele>157</ele>
        <time>2017-01-17T13:44:38Z</time>
      </trkpt>
      <trkpt lat="49.41149" lon="1.13641">
        <ele>157</ele>
        <time>2017-01-17T13:44:38Z</time>
      </trkpt>
      <trkpt lat="49.41152" lon="1.13647">
        <ele>157</ele>
        <time>2017-01-17T13:44:38Z</time>
      </trkpt>
      <trkpt lat="49.41155" lon="1.13652">
        <ele>157</ele>
        <time>2017-01-17T13:44:38Z</time>
      </trkpt>
      <trkpt lat="49.41159" lon="1.13658">
        <ele>157</ele>
        <time>2017-01-17T13:44:54Z</time>
      </trkpt>
      <trkpt lat="49.41161" lon="1.13665">
        <ele>157</ele>
        <time>2017-01-17T13:44:54Z</time>
      </trkpt>
      <trkpt lat="49.41165" lon="1.13673">
        <ele>157</ele>
        <time>2017-01-17T13:44:54Z</time>
      </trkpt>
      <trkpt lat="49.41166" lon="1.1368">
        <ele>157</ele>
        <time>2017-01-17T13:44:54Z</time>
      </trkpt>
      <trkpt lat="49.41167" lon="1.13687">
        <ele>157</ele>
        <time>2017-01-17T13:45:10Z</time>
      </trkpt>
      <trkpt lat="49.41168" lon="1.13694">
        <ele>157</ele>
        <time>2017-01-17T13:45:10Z</time>
      </trkpt>
      <trkpt lat="49.4117" lon="1.137">
        <ele>157</ele>
        <time>2017-01-17T13:45:10Z</time>
      </trkpt>
      <trkpt lat="49.41167" lon="1.13706">
        <ele>157</ele>
        <time>2017-01-17T13:45:10Z</time>
      </trkpt>
      <trkpt lat="49.41165" lon="1.13715">
        <ele>158</ele>
        <time>2017-01-17T13:45:26Z</time>
      </trkpt>
      <trkpt lat="49.41162" lon="1.13721">
        <ele>158</ele>
        <time>2017-01-17T13:45:26Z</time>
      </trkpt>
      <trkpt lat="49.41161" lon="1.13727">
        <ele>158</ele>
        <time>2017-01-17T13:45:26Z</time>
      </trkpt>
      <trkpt lat="49.41158" lon="1.13735">
        <ele>158</ele>
        <time>2017-01-17T13:45:26Z</time>
      </trkpt>
      <trkpt lat="49.41154" lon="1.1374">
        <ele>158</ele>
        <time>2017-01-17T13:45:42Z</time>
      </trkpt>
      <trkpt lat="49.41151" lon="1.13744">
        <ele>158</ele>
        <time>2017-01-17T13:45:42Z</time>
      </trkpt>
      <trkpt lat="49.41148" lon="1.13751">
        <ele>158</ele>
        <time>2017-01-17T13:45:42Z</time>
      </trkpt>
      <trkpt lat="49.41144" lon="1.1376">
        <ele>158</ele>
        <time>2017-01-17T13:45:42Z</time>
      </trkpt>
      <trkpt lat="49.41139" lon="1.13766">
        <ele>158</ele>
        <time>2017-01-17T13:45:58Z</time>
      </trkpt>
      <trkpt lat="49.41136" lon="1.13772">
        <ele>158</ele>
        <time>2017-01-17T13:45:58Z</time>
      </trkpt>
      <trkpt lat="49.41131" lon="1.1378">
        <ele>158</ele>
        <time>2017-01-17T13:45:58Z</time>
      </trkpt>
      <trkpt lat="49.41129" lon="1.13786">
        <ele>158</ele>
        <time>2017-01-17T13:45:58Z</time>
      </trkpt>
      <trkpt lat="49.41127" lon="1.13792">
        <ele>159</ele>
        <time>2017-01-17T13:46:14Z</time>
      </trkpt>
      <trkpt lat="49.41125" lon="1.13797">
        <ele>158</ele>
        <time>2017-01-17T13:46:14Z</time>
      </trkpt>
      <trkpt lat="49.41122" lon="1.13803">
        <ele>158</ele>
        <time>2017-01-17T13:46:14Z</time>
      </trkpt>
      <trkpt lat="49.4112" lon="1.13809">
        <ele>158</ele>
        <time>2017-01-17T13:46:14Z</time>
      </trkpt>
      <trkpt lat="49.41115" lon="1.13815">
        <ele>158</ele>
        <time>2017-01-17T13:46:30Z</time>
      </trkpt>
      <trkpt lat="49.41111" lon="1.13819">
        <ele>158</ele>
        <time>2017-01-17T13:46:30Z</time>
      </trkpt>
      <trkpt lat="49.41107" lon="1.13825">
        <ele>158</ele>
        <time>2017-01-17T13:46:30Z</time>
      </trkpt>
      <trkpt lat="49.41104" lon="1.13834">
        <ele>158</ele>
        <time>2017-01-17T13:46:30Z</time>
      </trkpt>
      <trkpt lat="49.41097" lon="1.13833">
        <ele>158</ele>
        <time>2017-01-17T13:48:26Z</time>
      </trkpt>
      <trkpt lat="49.41096" lon="1.13833">
        <ele>158</ele>
        <time>2017-01-17T13:48:26Z</time>
      </trkpt>
      <trkpt lat="49.41095" lon="1.13833">
        <ele>158</ele>
        <time>2017-01-17T13:48:26Z</time>
      </trkpt>
      <trkpt lat="49.41095" lon="1.13835">
        <ele>158</ele>
        <time>2017-01-17T13:48:26Z</time>
      </trkpt>
      <trkpt lat="49.4109" lon="1.13839">
        <ele>158</ele>
        <time>2017-01-17T13:48:26Z</time>
      </trkpt>
      <trkpt lat="49.41086" lon="1.13846">
        <ele>158</ele>
        <time>2017-01-17T13:48:42Z</time>
      </trkpt>
      <trkpt lat="49.41082" lon="1.13849">
        <ele>158</ele>
        <time>2017-01-17T13:48:42Z</time>
      </trkpt>
      <trkpt lat="49.41078" lon="1.13855">
        <ele>158</ele>
        <time>2017-01-17T13:48:42Z</time>
      </trkpt>
      <trkpt lat="49.41073" lon="1.13858">
        <ele>158</ele>
        <time>2017-01-17T13:48:42Z</time>
      </trkpt>
      <trkpt lat="49.41067" lon="1.13862">
        <ele>158</ele>
        <time>2017-01-17T13:48:58Z</time>
      </trkpt>
      <trkpt lat="49.41062" lon="1.13867">
        <ele>158</ele>
        <time>2017-01-17T13:48:58Z</time>
      </trkpt>
      <trkpt lat="49.41057" lon="1.13873">
        <ele>158</ele>
        <time>2017-01-17T13:48:58Z</time>
      </trkpt>
      <trkpt lat="49.41052" lon="1.13879">
        <ele>158</ele>
        <time>2017-01-17T13:48:58Z</time>
      </trkpt>
      <trkpt lat="49.41047" lon="1.13883">
        <ele>158</ele>
        <time>2017-01-17T13:49:14Z</time>
      </trkpt>
      <trkpt lat="49.41043" lon="1.13887">
        <ele>158</ele>
        <time>2017-01-17T13:49:14Z</time>
      </trkpt>
      <trkpt lat="49.41037" lon="1.1389">
        <ele>160</ele>
        <time>2017-01-17T13:49:14Z</time>
      </trkpt>
      <trkpt lat="49.41033" lon="1.13892">
        <ele>160</ele>
        <time>2017-01-17T13:49:14Z</time>
      </trkpt>
      <trkpt lat="49.41028" lon="1.13896">
        <ele>160</ele>
        <time>2017-01-17T13:49:30Z</time>
      </trkpt>
      <trkpt lat="49.41024" lon="1.13899">
        <ele>160</ele>
        <time>2017-01-17T13:49:30Z</time>
      </trkpt>
      <trkpt lat="49.41019" lon="1.13902">
        <ele>160</ele>
        <time>2017-01-17T13:49:30Z</time>
      </trkpt>
      <trkpt lat="49.41015" lon="1.13904">
        <ele>160</ele>
        <time>2017-01-17T13:49:30Z</time>
      </trkpt>
      <trkpt lat="49.4101" lon="1.13906">
        <ele>160</ele>
        <time>2017-01-17T13:49:46Z</time>
      </trkpt>
      <trkpt lat="49.41004" lon="1.13911">
        <ele>160</ele>
        <time>2017-01-17T13:49:46Z</time>
      </trkpt>
      <trkpt lat="49.40999" lon="1.13915">
        <ele>160</ele>
        <time>2017-01-17T13:49:46Z</time>
      </trkpt>
      <trkpt lat="49.40994" lon="1.13918">
        <ele>160</ele>
        <time>2017-01-17T13:49:46Z</time>
      </trkpt>
      <trkpt lat="49.40989" lon="1.13923">
        <ele>160</ele>
        <time>2017-01-17T13:50:02Z</time>
      </trkpt>
      <trkpt lat="49.40984" lon="1.13928">
        <ele>160</ele>
        <time>2017-01-17T13:50:02Z</time>
      </trkpt>
      <trkpt lat="49.40979" lon="1.13931">
        <ele>160</ele>
        <time>2017-01-17T13:50:02Z</time>
      </trkpt>
      <trkpt lat="49.40975" lon="1.13936">
        <ele>160</ele>
        <time>2017-01-17T13:50:02Z</time>
      </trkpt>
      <trkpt lat="49.40968" lon="1.1394">
        <ele>160</ele>
        <time>2017-01-17T13:50:18Z</time>
      </trkpt>
      <trkpt lat="49.40963" lon="1.13946">
        <ele>160</ele>
        <time>2017-01-17T13:50:18Z</time>
      </trkpt>
      <trkpt lat="49.40959" lon="1.1395">
        <ele>160</ele>
        <time>2017-01-17T13:50:18Z</time>
      </trkpt>
      <trkpt lat="49.40955" lon="1.13955">
        <ele>156</ele>
        <time>2017-01-17T13:50:18Z</time>
      </trkpt>
      <trkpt lat="49.40952" lon="1.13959">
        <ele>157</ele>
        <time>2017-01-17T13:50:34Z</time>
      </trkpt>
      <trkpt lat="49.40946" lon="1.13965">
        <ele>157</ele>
        <time>2017-01-17T13:50:34Z</time>
      </trkpt>
      <trkpt lat="49.40942" lon="1.13971">
        <ele>157</ele>
        <time>2017-01-17T13:50:34Z</time>
      </trkpt>
      <trkpt lat="49.40938" lon="1.13978">
        <ele>157</ele>
        <time>2017-01-17T13:50:34Z</time>
      </trkpt>
      <trkpt lat="49.40934" lon="1.13983">
        <ele>157</ele>
        <time>2017-01-17T13:50:50Z</time>
      </trkpt>
      <trkpt lat="49.4093" lon="1.13988">
        <ele>157</ele>
        <time>2017-01-17T13:50:50Z</time>
      </trkpt>
      <trkpt lat="49.40927" lon="1.13994">
        <ele>157</ele>
        <time>2017-01-17T13:50:50Z</time>
      </trkpt>
      <trkpt lat="49.40924" lon="1.13998">
        <ele>157</ele>
        <time>2017-01-17T13:50:50Z</time>
      </trkpt>
      <trkpt lat="49.40921" lon="1.14004">
        <ele>157</ele>
        <time>2017-01-17T13:51:06Z</time>
      </trkpt>
      <trkpt lat="49.40918" lon="1.14009">
        <ele>157</ele>
        <time>2017-01-17T13:51:06Z</time>
      </trkpt>
      <trkpt lat="49.40914" lon="1.14018">
        <ele>157</ele>
        <time>2017-01-17T13:51:06Z</time>
      </trkpt>
      <trkpt lat="49.40909" lon="1.14024">
        <ele>157</ele>
        <time>2017-01-17T13:51:06Z</time>
      </trkpt>
      <trkpt lat="49.40905" lon="1.1403">
        <ele>157</ele>
        <time>2017-01-17T13:51:22Z</time>
      </trkpt>
      <trkpt lat="49.40902" lon="1.14036">
        <ele>157</ele>
        <time>2017-01-17T13:51:22Z</time>
      </trkpt>
      <trkpt lat="49.40898" lon="1.1404">
        <ele>157</ele>
        <time>2017-01-17T13:51:22Z</time>
      </trkpt>
      <trkpt lat="49.40893" lon="1.14039">
        <ele>157</ele>
        <time>2017-01-17T13:51:22Z</time>
      </trkpt>
      <trkpt lat="49.40887" lon="1.14039">
        <ele>157</ele>
        <time>2017-01-17T13:51:38Z</time>
      </trkpt>
      <trkpt lat="49.40885" lon="1.14038">
        <ele>157</ele>
        <time>2017-01-17T13:51:38Z</time>
      </trkpt>
      <trkpt lat="49.40877" lon="1.14038">
        <ele>157</ele>
        <time>2017-01-17T13:51:38Z</time>
      </trkpt>
      <trkpt lat="49.40874" lon="1.14044">
        <ele>157</ele>
        <time>2017-01-17T13:51:38Z</time>
      </trkpt>
      <trkpt lat="49.40871" lon="1.14048">
        <ele>157</ele>
        <time>2017-01-17T13:51:54Z</time>
      </trkpt>
      <trkpt lat="49.40869" lon="1.14053">
        <ele>157</ele>
        <time>2017-01-17T13:51:54Z</time>
      </trkpt>
      <trkpt lat="49.40866" lon="1.14059">
        <ele>157</ele>
        <time>2017-01-17T13:51:54Z</time>
      </trkpt>
      <trkpt lat="49.40862" lon="1.14065">
        <ele>157</ele>
        <time>2017-01-17T13:51:54Z</time>
      </trkpt>
      <trkpt lat="49.40857" lon="1.14066">
        <ele>157</ele>
        <time>2017-01-17T13:52:10Z</time>
      </trkpt>
      <trkpt lat="49.40852" lon="1.14067">
        <ele>157</ele>
        <time>2017-01-17T13:52:10Z</time>
      </trkpt>
      <trkpt lat="49.40847" lon="1.14071">
        <ele>157</ele>
        <time>2017-01-17T13:52:10Z</time>
      </trkpt>
      <trkpt lat="49.40843" lon="1.14075">
        <ele>157</ele>
        <time>2017-01-17T13:52:10Z</time>
      </trkpt>
      <trkpt lat="49.40838" lon="1.14079">
        <ele>157</ele>
        <time>2017-01-17T13:52:26Z</time>
      </trkpt>
      <trkpt lat="49.40834" lon="1.14084">
        <ele>157</ele>
        <time>2017-01-17T13:52:26Z</time>
      </trkpt>
      <trkpt lat="49.4083" lon="1.14087">
        <ele>157</ele>
        <time>2017-01-17T13:52:26Z</time>
      </trkpt>
      <trkpt lat="49.40825" lon="1.14087">
        <ele>157</ele>
        <time>2017-01-17T13:52:26Z</time>
      </trkpt>
      <trkpt lat="49.4082" lon="1.14091">
        <ele>157</ele>
        <time>2017-01-17T13:52:42Z</time>
      </trkpt>
      <trkpt lat="49.40815" lon="1.14096">
        <ele>157</ele>
        <time>2017-01-17T13:52:42Z</time>
      </trkpt>
      <trkpt lat="49.40809" lon="1.14098">
        <ele>157</ele>
        <time>2017-01-17T13:52:42Z</time>
      </trkpt>
      <trkpt lat="49.40805" lon="1.14101">
        <ele>157</ele>
        <time>2017-01-17T13:52:42Z</time>
      </trkpt>
      <trkpt lat="49.408" lon="1.14105">
        <ele>157</ele>
        <time>2017-01-17T13:52:58Z</time>
      </trkpt>
      <trkpt lat="49.40795" lon="1.14109">
        <ele>157</ele>
        <time>2017-01-17T13:52:58Z</time>
      </trkpt>
      <trkpt lat="49.40789" lon="1.14114">
        <ele>155</ele>
        <time>2017-01-17T13:52:58Z</time>
      </trkpt>
      <trkpt lat="49.40785" lon="1.14117">
        <ele>155</ele>
        <time>2017-01-17T13:52:58Z</time>
      </trkpt>
      <trkpt lat="49.40781" lon="1.1412">
        <ele>155</ele>
        <time>2017-01-17T13:53:14Z</time>
      </trkpt>
      <trkpt lat="49.40775" lon="1.14124">
        <ele>155</ele>
        <time>2017-01-17T13:53:14Z</time>
      </trkpt>
      <trkpt lat="49.40771" lon="1.14127">
        <ele>154</ele>
        <time>2017-01-17T13:53:14Z</time>
      </trkpt>
      <trkpt lat="49.40767" lon="1.14129">
        <ele>154</ele>
        <time>2017-01-17T13:53:14Z</time>
      </trkpt>
      <trkpt lat="49.40763" lon="1.14133">
        <ele>154</ele>
        <time>2017-01-17T13:53:30Z</time>
      </trkpt>
      <trkpt lat="49.40759" lon="1.14138">
        <ele>154</ele>
        <time>2017-01-17T13:53:30Z</time>
      </trkpt>
      <trkpt lat="49.40754" lon="1.14142">
        <ele>154</ele>
        <time>2017-01-17T13:53:30Z</time>
      </trkpt>
      <trkpt lat="49.40749" lon="1.14147">
        <ele>154</ele>
        <time>2017-01-17T13:53:30Z</time>
      </trkpt>
      <trkpt lat="49.40744" lon="1.14152">
        <ele>154</ele>
        <time>2017-01-17T13:53:46Z</time>
      </trkpt>
      <trkpt lat="49.4074" lon="1.14156">
        <ele>154</ele>
        <time>2017-01-17T13:53:46Z</time>
      </trkpt>
      <trkpt lat="49.40736" lon="1.1416">
        <ele>154</ele>
        <time>2017-01-17T13:53:46Z</time>
      </trkpt>
      <trkpt lat="49.40731" lon="1.14164">
        <ele>154</ele>
        <time>2017-01-17T13:53:46Z</time>
      </trkpt>
      <trkpt lat="49.40727" lon="1.14169">
        <ele>154</ele>
        <time>2017-01-17T13:54:02Z</time>
      </trkpt>
      <trkpt lat="49.40722" lon="1.14173">
        <ele>154</ele>
        <time>2017-01-17T13:54:02Z</time>
      </trkpt>
      <trkpt lat="49.40719" lon="1.14179">
        <ele>154</ele>
        <time>2017-01-17T13:54:02Z</time>
      </trkpt>
      <trkpt lat="49.40714" lon="1.14181">
        <ele>154</ele>
        <time>2017-01-17T13:54:02Z</time>
      </trkpt>
      <trkpt lat="49.4071" lon="1.14184">
        <ele>154</ele>
        <time>2017-01-17T13:54:18Z</time>
      </trkpt>
      <trkpt lat="49.40706" lon="1.14188">
        <ele>153</ele>
        <time>2017-01-17T13:54:18Z</time>
      </trkpt>
      <trkpt lat="49.40702" lon="1.14191">
        <ele>153</ele>
        <time>2017-01-17T13:54:18Z</time>
      </trkpt>
      <trkpt lat="49.40699" lon="1.14193">
        <ele>153</ele>
        <time>2017-01-17T13:54:18Z</time>
      </trkpt>
      <trkpt lat="49.40696" lon="1.14195">
        <ele>153</ele>
        <time>2017-01-17T13:54:34Z</time>
      </trkpt>
      <trkpt lat="49.40692" lon="1.14199">
        <ele>153</ele>
        <time>2017-01-17T13:54:34Z</time>
      </trkpt>
      <trkpt lat="49.40689" lon="1.14204">
        <ele>153</ele>
        <time>2017-01-17T13:54:34Z</time>
      </trkpt>
      <trkpt lat="49.40684" lon="1.14208">
        <ele>153</ele>
        <time>2017-01-17T13:54:34Z</time>
      </trkpt>
      <trkpt lat="49.40679" lon="1.14213">
        <ele>153</ele>
        <time>2017-01-17T13:54:50Z</time>
      </trkpt>
      <trkpt lat="49.40674" lon="1.14219">
        <ele>153</ele>
        <time>2017-01-17T13:54:50Z</time>
      </trkpt>
      <trkpt lat="49.4067" lon="1.14223">
        <ele>153</ele>
        <time>2017-01-17T13:54:50Z</time>
      </trkpt>
      <trkpt lat="49.40664" lon="1.14217">
        <ele>153</ele>
        <time>2017-01-17T13:54:50Z</time>
      </trkpt>
      <trkpt lat="49.4066" lon="1.14218">
        <ele>153</ele>
        <time>2017-01-17T13:55:06Z</time>
      </trkpt>
      <trkpt lat="49.40654" lon="1.14218">
        <ele>153</ele>
        <time>2017-01-17T13:55:06Z</time>
      </trkpt>
      <trkpt lat="49.40652" lon="1.14224">
        <ele>153</ele>
        <time>2017-01-17T13:55:06Z</time>
      </trkpt>
      <trkpt lat="49.4065" lon="1.1423">
        <ele>153</ele>
        <time>2017-01-17T13:55:06Z</time>
      </trkpt>
      <trkpt lat="49.40649" lon="1.14234">
        <ele>153</ele>
        <time>2017-01-17T13:55:22Z</time>
      </trkpt>
      <trkpt lat="49.40646" lon="1.14238">
        <ele>153</ele>
        <time>2017-01-17T13:55:22Z</time>
      </trkpt>
      <trkpt lat="49.40642" lon="1.14243">
        <ele>153</ele>
        <time>2017-01-17T13:55:22Z</time>
      </trkpt>
      <trkpt lat="49.40638" lon="1.14248">
        <ele>153</ele>
        <time>2017-01-17T13:55:22Z</time>
      </trkpt>
      <trkpt lat="49.40635" lon="1.14254">
        <ele>153</ele>
        <time>2017-01-17T13:55:38Z</time>
      </trkpt>
      <trkpt lat="49.40632" lon="1.14258">
        <ele>153</ele>
        <time>2017-01-17T13:55:38Z</time>
      </trkpt>
      <trkpt lat="49.40628" lon="1.14263">
        <ele>153</ele>
        <time>2017-01-17T13:55:38Z</time>
      </trkpt>
      <trkpt lat="49.40625" lon="1.1427">
        <ele>152</ele>
        <time>2017-01-17T13:55:38Z</time>
      </trkpt>
      <trkpt lat="49.40621" lon="1.14277">
        <ele>152</ele>
        <time>2017-01-17T13:55:54Z</time>
      </trkpt>
      <trkpt lat="49.40617" lon="1.14283">
        <ele>152</ele>
        <time>2017-01-17T13:55:54Z</time>
      </trkpt>
      <trkpt lat="49.40613" lon="1.14289">
        <ele>152</ele>
        <time>2017-01-17T13:55:54Z</time>
      </trkpt>
      <trkpt lat="49.40609" lon="1.14296">
        <ele>151</ele>
        <time>2017-01-17T13:55:54Z</time>
      </trkpt>
      <trkpt lat="49.40606" lon="1.14301">
        <ele>151</ele>
        <time>2017-01-17T13:56:10Z</time>
      </trkpt>
      <trkpt lat="49.40601" lon="1.14307">
        <ele>151</ele>
        <time>2017-01-17T13:56:10Z</time>
      </trkpt>
      <trkpt lat="49.40597" lon="1.14314">
        <ele>151</ele>
        <time>2017-01-17T13:56:10Z</time>
      </trkpt>
      <trkpt lat="49.40592" lon="1.14319">
        <ele>151</ele>
        <time>2017-01-17T13:56:10Z</time>
      </trkpt>
      <trkpt lat="49.40588" lon="1.14325">
        <ele>151</ele>
        <time>2017-01-17T13:56:26Z</time>
      </trkpt>
      <trkpt lat="49.40585" lon="1.14333">
        <ele>151</ele>
        <time>2017-01-17T13:56:26Z</time>
      </trkpt>
      <trkpt lat="49.40581" lon="1.14338">
        <ele>151</ele>
        <time>2017-01-17T13:56:26Z</time>
      </trkpt>
      <trkpt lat="49.40576" lon="1.14344">
        <ele>151</ele>
        <time>2017-01-17T13:56:26Z</time>
      </trkpt>
      <trkpt lat="49.40573" lon="1.14349">
        <ele>151</ele>
        <time>2017-01-17T13:56:42Z</time>
      </trkpt>
      <trkpt lat="49.40569" lon="1.14353">
        <ele>151</ele>
        <time>2017-01-17T13:56:42Z</time>
      </trkpt>
      <trkpt lat="49.40564" lon="1.14357">
        <ele>151</ele>
        <time>2017-01-17T13:56:42Z</time>
      </trkpt>
      <trkpt lat="49.4056" lon="1.14364">
        <ele>151</ele>
        <time>2017-01-17T13:56:42Z</time>
      </trkpt>
      <trkpt lat="49.40556" lon="1.14367">
        <ele>151</ele>
        <time>2017-01-17T13:56:58Z</time>
      </trkpt>
      <trkpt lat="49.40553" lon="1.1437">
        <ele>151</ele>
        <time>2017-01-17T13:56:58Z</time>
      </trkpt>
      <trkpt lat="49.4055" lon="1.14373">
        <ele>151</ele>
        <time>2017-01-17T13:56:58Z</time>
      </trkpt>
      <trkpt lat="49.40546" lon="1.14378">
        <ele>152</ele>
        <time>2017-01-17T13:56:58Z</time>
      </trkpt>
      <trkpt lat="49.40541" lon="1.14383">
        <ele>149</ele>
        <time>2017-01-17T13:57:14Z</time>
      </trkpt>
      <trkpt lat="49.40536" lon="1.14388">
        <ele>149</ele>
        <time>2017-01-17T13:57:14Z</time>
      </trkpt>
      <trkpt lat="49.40531" lon="1.14392">
        <ele>149</ele>
        <time>2017-01-17T13:57:14Z</time>
      </trkpt>
      <trkpt lat="49.40526" lon="1.14396">
        <ele>149</ele>
        <time>2017-01-17T13:57:14Z</time>
      </trkpt>
      <trkpt lat="49.40523" lon="1.14402">
        <ele>149</ele>
        <time>2017-01-17T13:57:30Z</time>
      </trkpt>
      <trkpt lat="49.40518" lon="1.14407">
        <ele>149</ele>
        <time>2017-01-17T13:57:30Z</time>
      </trkpt>
      <trkpt lat="49.40513" lon="1.14411">
        <ele>149</ele>
        <time>2017-01-17T13:57:30Z</time>
      </trkpt>
      <trkpt lat="49.40508" lon="1.14414">
        <ele>149</ele>
        <time>2017-01-17T13:57:30Z</time>
      </trkpt>
      <trkpt lat="49.40504" lon="1.14417">
        <ele>149</ele>
        <time>2017-01-17T13:57:46Z</time>
      </trkpt>
      <trkpt lat="49.40499" lon="1.1442">
        <ele>149</ele>
        <time>2017-01-17T13:57:46Z</time>
      </trkpt>
      <trkpt lat="49.40495" lon="1.14422">
        <ele>149</ele>
        <time>2017-01-17T13:57:46Z</time>
      </trkpt>
      <trkpt lat="49.4049" lon="1.14422">
        <ele>149</ele>
        <time>2017-01-17T13:57:46Z</time>
      </trkpt>
      <trkpt lat="49.40484" lon="1.14423">
        <ele>149</ele>
        <time>2017-01-17T13:58:02Z</time>
      </trkpt>
      <trkpt lat="49.4048" lon="1.14426">
        <ele>149</ele>
        <time>2017-01-17T13:58:02Z</time>
      </trkpt>
      <trkpt lat="49.40474" lon="1.14429">
        <ele>149</ele>
        <time>2017-01-17T13:58:02Z</time>
      </trkpt>
      <trkpt lat="49.4047" lon="1.14432">
        <ele>149</ele>
        <time>2017-01-17T13:58:02Z</time>
      </trkpt>
      <trkpt lat="49.40465" lon="1.14433">
        <ele>149</ele>
        <time>2017-01-17T13:58:18Z</time>
      </trkpt>
      <trkpt lat="49.40458" lon="1.14435">
        <ele>149</ele>
        <time>2017-01-17T13:58:18Z</time>
      </trkpt>
      <trkpt lat="49.40454" lon="1.14434">
        <ele>149</ele>
        <time>2017-01-17T13:58:18Z</time>
      </trkpt>
      <trkpt lat="49.40449" lon="1.14432">
        <ele>149</ele>
        <time>2017-01-17T13:58:18Z</time>
      </trkpt>
      <trkpt lat="49.40445" lon="1.14427">
        <ele>149</ele>
        <time>2017-01-17T13:58:34Z</time>
      </trkpt>
      <trkpt lat="49.40441" lon="1.14424">
        <ele>149</ele>
        <time>2017-01-17T13:58:34Z</time>
      </trkpt>
      <trkpt lat="49.40437" lon="1.14419">
        <ele>149</ele>
        <time>2017-01-17T13:58:34Z</time>
      </trkpt>
      <trkpt lat="49.40431" lon="1.14414">
        <ele>149</ele>
        <time>2017-01-17T13:58:34Z</time>
      </trkpt>
      <trkpt lat="49.40426" lon="1.1441">
        <ele>149</ele>
        <time>2017-01-17T13:58:50Z</time>
      </trkpt>
      <trkpt lat="49.40422" lon="1.14407">
        <ele>149</ele>
        <time>2017-01-17T13:58:50Z</time>
      </trkpt>
      <trkpt lat="49.40417" lon="1.14405">
        <ele>149</ele>
        <time>2017-01-17T13:58:50Z</time>
      </trkpt>
      <trkpt lat="49.40413" lon="1.14402">
        <ele>149</ele>
        <time>2017-01-17T13:58:50Z</time>
      </trkpt>
      <trkpt lat="49.4041" lon="1.14399">
        <ele>149</ele>
        <time>2017-01-17T13:59:06Z</time>
      </trkpt>
      <trkpt lat="49.40405" lon="1.14397">
        <ele>149</ele>
        <time>2017-01-17T13:59:06Z</time>
      </trkpt>
      <trkpt lat="49.40401" lon="1.14395">
        <ele>149</ele>
        <time>2017-01-17T13:59:06Z</time>
      </trkpt>
      <trkpt lat="49.40396" lon="1.14396">
        <ele>149</ele>
        <time>2017-01-17T13:59:06Z</time>
      </trkpt>
      <trkpt lat="49.40391" lon="1.14395">
        <ele>149</ele>
        <time>2017-01-17T13:59:22Z</time>
      </trkpt>
      <trkpt lat="49.40387" lon="1.1439">
        <ele>149</ele>
        <time>2017-01-17T13:59:22Z</time>
      </trkpt>
      <trkpt lat="49.40382" lon="1.14384">
        <ele>149</ele>
        <time>2017-01-17T13:59:22Z</time>
      </trkpt>
      <trkpt lat="49.40376" lon="1.14381">
        <ele>149</ele>
        <time>2017-01-17T13:59:22Z</time>
      </trkpt>
      <trkpt lat="49.40372" lon="1.14378">
        <ele>151</ele>
        <time>2017-01-17T13:59:38Z</time>
      </trkpt>
      <trkpt lat="49.40368" lon="1.14378">
        <ele>151</ele>
        <time>2017-01-17T13:59:38Z</time>
      </trkpt>
      <trkpt lat="49.40364" lon="1.14376">
        <ele>151</ele>
        <time>2017-01-17T13:59:38Z</time>
      </trkpt>
      <trkpt lat="49.4036" lon="1.14375">
        <ele>151</ele>
        <time>2017-01-17T13:59:38Z</time>
      </trkpt>
      <trkpt lat="49.40354" lon="1.14373">
        <ele>149</ele>
        <time>2017-01-17T13:59:54Z</time>
      </trkpt>
      <trkpt lat="49.40349" lon="1.14371">
        <ele>149</ele>
        <time>2017-01-17T13:59:54Z</time>
      </trkpt>
      <trkpt lat="49.40343" lon="1.14369">
        <ele>149</ele>
        <time>2017-01-17T13:59:54Z</time>
      </trkpt>
      <trkpt lat="49.40337" lon="1.1437">
        <ele>149</ele>
        <time>2017-01-17T13:59:54Z</time>
      </trkpt>
      <trkpt lat="49.40332" lon="1.14369">
        <ele>149</ele>
        <time>2017-01-17T14:00:10Z</time>
      </trkpt>
      <trkpt lat="49.40328" lon="1.14369">
        <ele>149</ele>
        <time>2017-01-17T14:00:10Z</time>
      </trkpt>
      <trkpt lat="49.40325" lon="1.1437">
        <ele>149</ele>
        <time>2017-01-17T14:00:10Z</time>
      </trkpt>
      <trkpt lat="49.4032" lon="1.14371">
        <ele>149</ele>
        <time>2017-01-17T14:00:10Z</time>
      </trkpt>
      <trkpt lat="49.40314" lon="1.14373">
        <ele>149</ele>
        <time>2017-01-17T14:00:26Z</time>
      </trkpt>
      <trkpt lat="49.40309" lon="1.14375">
        <ele>149</ele>
        <time>2017-01-17T14:00:26Z</time>
      </trkpt>
      <trkpt lat="49.40305" lon="1.14374">
        <ele>149</ele>
        <time>2017-01-17T14:00:26Z</time>
      </trkpt>
      <trkpt lat="49.403" lon="1.14375">
        <ele>151</ele>
        <time>2017-01-17T14:00:26Z</time>
      </trkpt>
      <trkpt lat="49.40296" lon="1.14377">
        <ele>151</ele>
        <time>2017-01-17T14:00:42Z</time>
      </trkpt>
      <trkpt lat="49.40291" lon="1.14379">
        <ele>148</ele>
        <time>2017-01-17T14:00:42Z</time>
      </trkpt>
      <trkpt lat="49.40285" lon="1.14381">
        <ele>148</ele>
        <time>2017-01-17T14:00:42Z</time>
      </trkpt>
      <trkpt lat="49.40279" lon="1.14383">
        <ele>148</ele>
        <time>2017-01-17T14:00:42Z</time>
      </trkpt>
      <trkpt lat="49.40275" lon="1.14385">
        <ele>148</ele>
        <time>2017-01-17T14:00:58Z</time>
      </trkpt>
      <trkpt lat="49.40271" lon="1.14387">
        <ele>148</ele>
        <time>2017-01-17T14:00:58Z</time>
      </trkpt>
      <trkpt lat="49.40267" lon="1.14388">
        <ele>148</ele>
        <time>2017-01-17T14:00:58Z</time>
      </trkpt>
      <trkpt lat="49.40263" lon="1.14389">
        <ele>148</ele>
        <time>2017-01-17T14:00:58Z</time>
      </trkpt>
      <trkpt lat="49.40259" lon="1.14392">
        <ele>148</ele>
        <time>2017-01-17T14:01:14Z</time>
      </trkpt>
      <trkpt lat="49.40254" lon="1.14395">
        <ele>148</ele>
        <time>2017-01-17T14:01:14Z</time>
      </trkpt>
      <trkpt lat="49.40248" lon="1.14397">
        <ele>148</ele>
        <time>2017-01-17T14:01:14Z</time>
      </trkpt>
      <trkpt lat="49.40244" lon="1.14399">
        <ele>148</ele>
        <time>2017-01-17T14:01:14Z</time>
      </trkpt>
      <trkpt lat="49.4024" lon="1.14401">
        <ele>148</ele>
        <time>2017-01-17T14:01:30Z</time>
      </trkpt>
      <trkpt lat="49.40236" lon="1.14402">
        <ele>148</ele>
        <time>2017-01-17T14:01:30Z</time>
      </trkpt>
      <trkpt lat="49.40232" lon="1.14405">
        <ele>148</ele>
        <time>2017-01-17T14:01:30Z</time>
      </trkpt>
      <trkpt lat="49.40226" lon="1.14407">
        <ele>148</ele>
        <time>2017-01-17T14:01:30Z</time>
      </trkpt>
      <trkpt lat="49.4022" lon="1.14409">
        <ele>148</ele>
        <time>2017-01-17T14:01:46Z</time>
      </trkpt>
      <trkpt lat="49.40216" lon="1.1441">
        <ele>148</ele>
        <time>2017-01-17T14:01:46Z</time>
      </trkpt>
      <trkpt lat="49.40211" lon="1.14413">
        <ele>148</ele>
        <time>2017-01-17T14:01:46Z</time>
      </trkpt>
      <trkpt lat="49.40205" lon="1.14414">
        <ele>149</ele>
        <time>2017-01-17T14:01:46Z</time>
      </trkpt>
      <trkpt lat="49.402" lon="1.14414">
        <ele>149</ele>
        <time>2017-01-17T14:02:02Z</time>
      </trkpt>
      <trkpt lat="49.40195" lon="1.14415">
        <ele>149</ele>
        <time>2017-01-17T14:02:02Z</time>
      </trkpt>
      <trkpt lat="49.40191" lon="1.14414">
        <ele>149</ele>
        <time>2017-01-17T14:02:02Z</time>
      </trkpt>
      <trkpt lat="49.40186" lon="1.14415">
        <ele>149</ele>
        <time>2017-01-17T14:02:02Z</time>
      </trkpt>
      <trkpt lat="49.40182" lon="1.14417">
        <ele>149</ele>
        <time>2017-01-17T14:02:18Z</time>
      </trkpt>
      <trkpt lat="49.40176" lon="1.14417">
        <ele>149</ele>
        <time>2017-01-17T14:02:18Z</time>
      </trkpt>
      <trkpt lat="49.40171" lon="1.14418">
        <ele>149</ele>
        <time>2017-01-17T14:02:18Z</time>
      </trkpt>
      <trkpt lat="49.40165" lon="1.14418">
        <ele>149</ele>
        <time>2017-01-17T14:02:18Z</time>
      </trkpt>
      <trkpt lat="49.40159" lon="1.14419">
        <ele>149</ele>
        <time>2017-01-17T14:02:34Z</time>
      </trkpt>
      <trkpt lat="49.40154" lon="1.14421">
        <ele>149</ele>
        <time>2017-01-17T14:02:34Z</time>
      </trkpt>
      <trkpt lat="49.4015" lon="1.14423">
        <ele>149</ele>
        <time>2017-01-17T14:02:34Z</time>
      </trkpt>
      <trkpt lat="49.40146" lon="1.14423">
        <ele>149</ele>
        <time>2017-01-17T14:02:34Z</time>
      </trkpt>
      <trkpt lat="49.40141" lon="1.14426">
        <ele>149</ele>
        <time>2017-01-17T14:02:50Z</time>
      </trkpt>
      <trkpt lat="49.4014" lon="1.14426">
        <ele>149</ele>
        <time>2017-01-17T14:02:50Z</time>
      </trkpt>
      <trkpt lat="49.40132" lon="1.14427">
        <ele>149</ele>
        <time>2017-01-17T14:02:50Z</time>
      </trkpt>
      <trkpt lat="49.40126" lon="1.14431">
        <ele>149</ele>
        <time>2017-01-17T14:02:50Z</time>
      </trkpt>
      <trkpt lat="49.40121" lon="1.14435">
        <ele>148</ele>
        <time>2017-01-17T14:03:06Z</time>
      </trkpt>
      <trkpt lat="49.40117" lon="1.14439">
        <ele>148</ele>
        <time>2017-01-17T14:03:06Z</time>
      </trkpt>
      <trkpt lat="49.40113" lon="1.14444">
        <ele>148</ele>
        <time>2017-01-17T14:03:06Z</time>
      </trkpt>
      <trkpt lat="49.40109" lon="1.14448">
        <ele>148</ele>
        <time>2017-01-17T14:03:06Z</time>
      </trkpt>
      <trkpt lat="49.40105" lon="1.14453">
        <ele>148</ele>
        <time>2017-01-17T14:03:22Z</time>
      </trkpt>
      <trkpt lat="49.401" lon="1.14454">
        <ele>148</ele>
        <time>2017-01-17T14:03:22Z</time>
      </trkpt>
      <trkpt lat="49.40093" lon="1.14453">
        <ele>148</ele>
        <time>2017-01-17T14:03:22Z</time>
      </trkpt>
      <trkpt lat="49.40087" lon="1.14451">
        <ele>148</ele>
        <time>2017-01-17T14:03:22Z</time>
      </trkpt>
      <trkpt lat="49.40083" lon="1.1445">
        <ele>148</ele>
        <time>2017-01-17T14:03:38Z</time>
      </trkpt>
      <trkpt lat="49.4008" lon="1.14453">
        <ele>148</ele>
        <time>2017-01-17T14:03:38Z</time>
      </trkpt>
      <trkpt lat="49.40074" lon="1.1445">
        <ele>148</ele>
        <time>2017-01-17T14:03:38Z</time>
      </trkpt>
      <trkpt lat="49.40069" lon="1.14453">
        <ele>148</ele>
        <time>2017-01-17T14:03:38Z</time>
      </trkpt>
      <trkpt lat="49.40064" lon="1.14456">
        <ele>148</ele>
        <time>2017-01-17T14:03:54Z</time>
      </trkpt>
      <trkpt lat="49.40062" lon="1.14456">
        <ele>148</ele>
        <time>2017-01-17T14:03:54Z</time>
      </trkpt>
      <trkpt lat="49.40056" lon="1.1446">
        <ele>149</ele>
        <time>2017-01-17T14:03:54Z</time>
      </trkpt>
      <trkpt lat="49.40054" lon="1.14462">
        <ele>149</ele>
        <time>2017-01-17T14:03:54Z</time>
      </trkpt>
      <trkpt lat="49.40053" lon="1.14465">
        <ele>149</ele>
        <time>2017-01-17T14:04:10Z</time>
      </trkpt>
      <trkpt lat="49.40049" lon="1.14469">
        <ele>149</ele>
        <time>2017-01-17T14:04:10Z</time>
      </trkpt>
      <trkpt lat="49.40044" lon="1.14474">
        <ele>149</ele>
        <time>2017-01-17T14:04:10Z</time>
      </trkpt>
      <trkpt lat="49.4004" lon="1.14478">
        <ele>148</ele>
        <time>2017-01-17T14:04:10Z</time>
      </trkpt>
      <trkpt lat="49.40036" lon="1.14481">
        <ele>148</ele>
        <time>2017-01-17T14:04:26Z</time>
      </trkpt>
      <trkpt lat="49.40032" lon="1.14486">
        <ele>148</ele>
        <time>2017-01-17T14:04:26Z</time>
      </trkpt>
      <trkpt lat="49.40029" lon="1.1449">
        <ele>148</ele>
        <time>2017-01-17T14:04:26Z</time>
      </trkpt>
      <trkpt lat="49.40025" lon="1.14495">
        <ele>148</ele>
        <time>2017-01-17T14:04:27Z</time>
      </trkpt>
      <trkpt lat="49.4002" lon="1.14502">
        <ele>148</ele>
        <time>2017-01-17T14:04:42Z</time>
      </trkpt>
      <trkpt lat="49.40017" lon="1.14508">
        <ele>148</ele>
        <time>2017-01-17T14:04:42Z</time>
      </trkpt>
      <trkpt lat="49.40012" lon="1.14516">
        <ele>148</ele>
        <time>2017-01-17T14:04:42Z</time>
      </trkpt>
      <trkpt lat="49.40008" lon="1.1452">
        <ele>148</ele>
        <time>2017-01-17T14:04:42Z</time>
      </trkpt>
      <trkpt lat="49.40003" lon="1.14525">
        <ele>148</ele>
        <time>2017-01-17T14:04:58Z</time>
      </trkpt>
      <trkpt lat="49.39999" lon="1.1453">
        <ele>148</ele>
        <time>2017-01-17T14:04:58Z</time>
      </trkpt>
      <trkpt lat="49.39994" lon="1.14534">
        <ele>148</ele>
        <time>2017-01-17T14:04:58Z</time>
      </trkpt>
      <trkpt lat="49.3999" lon="1.14539">
        <ele>148</ele>
        <time>2017-01-17T14:04:58Z</time>
      </trkpt>
      <trkpt lat="49.39985" lon="1.14542">
        <ele>148</ele>
        <time>2017-01-17T14:05:14Z</time>
      </trkpt>
      <trkpt lat="49.39981" lon="1.14544">
        <ele>147</ele>
        <time>2017-01-17T14:05:14Z</time>
      </trkpt>
      <trkpt lat="49.39976" lon="1.1455">
        <ele>147</ele>
        <time>2017-01-17T14:05:14Z</time>
      </trkpt>
      <trkpt lat="49.39972" lon="1.14555">
        <ele>147</ele>
        <time>2017-01-17T14:05:14Z</time>
      </trkpt>
      <trkpt lat="49.39968" lon="1.14563">
        <ele>147</ele>
        <time>2017-01-17T14:05:30Z</time>
      </trkpt>
      <trkpt lat="49.39964" lon="1.14568">
        <ele>147</ele>
        <time>2017-01-17T14:05:30Z</time>
      </trkpt>
      <trkpt lat="49.3996" lon="1.14573">
        <ele>147</ele>
        <time>2017-01-17T14:05:30Z</time>
      </trkpt>
      <trkpt lat="49.39959" lon="1.14576">
        <ele>147</ele>
        <time>2017-01-17T14:05:30Z</time>
      </trkpt>
      <trkpt lat="49.39955" lon="1.1458">
        <ele>147</ele>
        <time>2017-01-17T14:05:46Z</time>
      </trkpt>
      <trkpt lat="49.3995" lon="1.14585">
        <ele>147</ele>
        <time>2017-01-17T14:05:46Z</time>
      </trkpt>
      <trkpt lat="49.39947" lon="1.1459">
        <ele>147</ele>
        <time>2017-01-17T14:05:46Z</time>
      </trkpt>
      <trkpt lat="49.39943" lon="1.14596">
        <ele>147</ele>
        <time>2017-01-17T14:05:46Z</time>
      </trkpt>
      <trkpt lat="49.39937" lon="1.14602">
        <ele>147</ele>
        <time>2017-01-17T14:06:02Z</time>
      </trkpt>
      <trkpt lat="49.39934" lon="1.14608">
        <ele>147</ele>
        <time>2017-01-17T14:06:02Z</time>
      </trkpt>
      <trkpt lat="49.39931" lon="1.14614">
        <ele>147</ele>
        <time>2017-01-17T14:06:02Z</time>
      </trkpt>
      <trkpt lat="49.39928" lon="1.1462">
        <ele>147</ele>
        <time>2017-01-17T14:06:02Z</time>
      </trkpt>
      <trkpt lat="49.39925" lon="1.14626">
        <ele>147</ele>
        <time>2017-01-17T14:06:18Z</time>
      </trkpt>
      <trkpt lat="49.39922" lon="1.14631">
        <ele>147</ele>
        <time>2017-01-17T14:06:18Z</time>
      </trkpt>
      <trkpt lat="49.39919" lon="1.14634">
        <ele>147</ele>
        <time>2017-01-17T14:06:18Z</time>
      </trkpt>
      <trkpt lat="49.39915" lon="1.14636">
        <ele>147</ele>
        <time>2017-01-17T14:06:18Z</time>
      </trkpt>
      <trkpt lat="49.39909" lon="1.14638">
        <ele>147</ele>
        <time>2017-01-17T14:06:34Z</time>
      </trkpt>
      <trkpt lat="49.39906" lon="1.14641">
        <ele>147</ele>
        <time>2017-01-17T14:06:34Z</time>
      </trkpt>
      <trkpt lat="49.39905" lon="1.14646">
        <ele>147</ele>
        <time>2017-01-17T14:06:34Z</time>
      </trkpt>
      <trkpt lat="49.39903" lon="1.1465">
        <ele>147</ele>
        <time>2017-01-17T14:06:34Z</time>
      </trkpt>
      <trkpt lat="49.39894" lon="1.14655">
        <ele>147</ele>
        <time>2017-01-17T14:07:26Z</time>
      </trkpt>
      <trkpt lat="49.39892" lon="1.14662">
        <ele>147</ele>
        <time>2017-01-17T14:07:26Z</time>
      </trkpt>
      <trkpt lat="49.3989" lon="1.14668">
        <ele>147</ele>
        <time>2017-01-17T14:07:26Z</time>
      </trkpt>
      <trkpt lat="49.39888" lon="1.14677">
        <ele>147</ele>
        <time>2017-01-17T14:07:26Z</time>
      </trkpt>
      <trkpt lat="49.39886" lon="1.14686">
        <ele>147</ele>
        <time>2017-01-17T14:07:26Z</time>
      </trkpt>
      <trkpt lat="49.39884" lon="1.14693">
        <ele>147</ele>
        <time>2017-01-17T14:07:42Z</time>
      </trkpt>
      <trkpt lat="49.39882" lon="1.14697">
        <ele>147</ele>
        <time>2017-01-17T14:07:42Z</time>
      </trkpt>
      <trkpt lat="49.3988" lon="1.14703">
        <ele>147</ele>
        <time>2017-01-17T14:07:42Z</time>
      </trkpt>
      <trkpt lat="49.39876" lon="1.14707">
        <ele>147</ele>
        <time>2017-01-17T14:07:42Z</time>
      </trkpt>
      <trkpt lat="49.39872" lon="1.14713">
        <ele>146</ele>
        <time>2017-01-17T14:07:58Z</time>
      </trkpt>
      <trkpt lat="49.39868" lon="1.14719">
        <ele>146</ele>
        <time>2017-01-17T14:07:58Z</time>
      </trkpt>
      <trkpt lat="49.39864" lon="1.14723">
        <ele>146</ele>
        <time>2017-01-17T14:07:58Z</time>
      </trkpt>
      <trkpt lat="49.3986" lon="1.14728">
        <ele>146</ele>
        <time>2017-01-17T14:07:58Z</time>
      </trkpt>
      <trkpt lat="49.39856" lon="1.14734">
        <ele>146</ele>
        <time>2017-01-17T14:08:14Z</time>
      </trkpt>
      <trkpt lat="49.3985" lon="1.14735">
        <ele>146</ele>
        <time>2017-01-17T14:08:14Z</time>
      </trkpt>
      <trkpt lat="49.39845" lon="1.14737">
        <ele>146</ele>
        <time>2017-01-17T14:08:14Z</time>
      </trkpt>
      <trkpt lat="49.3984" lon="1.14738">
        <ele>146</ele>
        <time>2017-01-17T14:08:14Z</time>
      </trkpt>
      <trkpt lat="49.39834" lon="1.14739">
        <ele>146</ele>
        <time>2017-01-17T14:08:30Z</time>
      </trkpt>
      <trkpt lat="49.39827" lon="1.1474">
        <ele>146</ele>
        <time>2017-01-17T14:08:30Z</time>
      </trkpt>
      <trkpt lat="49.39824" lon="1.14741">
        <ele>146</ele>
        <time>2017-01-17T14:08:30Z</time>
      </trkpt>
      <trkpt lat="49.39819" lon="1.14741">
        <ele>146</ele>
        <time>2017-01-17T14:08:30Z</time>
      </trkpt>
      <trkpt lat="49.39814" lon="1.14743">
        <ele>146</ele>
        <time>2017-01-17T14:08:46Z</time>
      </trkpt>
      <trkpt lat="49.39809" lon="1.14745">
        <ele>146</ele>
        <time>2017-01-17T14:08:46Z</time>
      </trkpt>
      <trkpt lat="49.39805" lon="1.1475">
        <ele>146</ele>
        <time>2017-01-17T14:08:46Z</time>
      </trkpt>
      <trkpt lat="49.39803" lon="1.14755">
        <ele>146</ele>
        <time>2017-01-17T14:08:46Z</time>
      </trkpt>
      <trkpt lat="49.39802" lon="1.14763">
        <ele>146</ele>
        <time>2017-01-17T14:09:02Z</time>
      </trkpt>
      <trkpt lat="49.398" lon="1.1477">
        <ele>146</ele>
        <time>2017-01-17T14:09:02Z</time>
      </trkpt>
      <trkpt lat="49.39797" lon="1.14776">
        <ele>146</ele>
        <time>2017-01-17T14:09:02Z</time>
      </trkpt>
      <trkpt lat="49.39795" lon="1.14783">
        <ele>146</ele>
        <time>2017-01-17T14:09:02Z</time>
      </trkpt>
      <trkpt lat="49.39794" lon="1.14789">
        <ele>146</ele>
        <time>2017-01-17T14:09:18Z</time>
      </trkpt>
      <trkpt lat="49.39792" lon="1.14795">
        <ele>147</ele>
        <time>2017-01-17T14:09:18Z</time>
      </trkpt>
      <trkpt lat="49.3979" lon="1.14802">
        <ele>142</ele>
        <time>2017-01-17T14:09:18Z</time>
      </trkpt>
      <trkpt lat="49.39789" lon="1.1481">
        <ele>142</ele>
        <time>2017-01-17T14:09:18Z</time>
      </trkpt>
      <trkpt lat="49.39788" lon="1.14817">
        <ele>142</ele>
        <time>2017-01-17T14:09:34Z</time>
      </trkpt>
      <trkpt lat="49.39786" lon="1.14823">
        <ele>142</ele>
        <time>2017-01-17T14:09:34Z</time>
      </trkpt>
      <trkpt lat="49.39787" lon="1.1483">
        <ele>142</ele>
        <time>2017-01-17T14:09:34Z</time>
      </trkpt>
      <trkpt lat="49.39787" lon="1.14837">
        <ele>142</ele>
        <time>2017-01-17T14:09:34Z</time>
      </trkpt>
      <trkpt lat="49.39787" lon="1.14843">
        <ele>142</ele>
        <time>2017-01-17T14:09:50Z</time>
      </trkpt>
      <trkpt lat="49.39786" lon="1.14851">
        <ele>142</ele>
        <time>2017-01-17T14:09:50Z</time>
      </trkpt>
      <trkpt lat="49.39784" lon="1.14859">
        <ele>142</ele>
        <time>2017-01-17T14:09:50Z</time>
      </trkpt>
      <trkpt lat="49.39782" lon="1.14866">
        <ele>142</ele>
        <time>2017-01-17T14:09:50Z</time>
      </trkpt>
      <trkpt lat="49.3978" lon="1.14874">
        <ele>142</ele>
        <time>2017-01-17T14:10:06Z</time>
      </trkpt>
      <trkpt lat="49.39779" lon="1.14883">
        <ele>143</ele>
        <time>2017-01-17T14:10:06Z</time>
      </trkpt>
      <trkpt lat="49.39778" lon="1.14894">
        <ele>143</ele>
        <time>2017-01-17T14:10:06Z</time>
      </trkpt>
      <trkpt lat="49.39775" lon="1.149">
        <ele>143</ele>
        <time>2017-01-17T14:10:06Z</time>
      </trkpt>
      <trkpt lat="49.39775" lon="1.14907">
        <ele>143</ele>
        <time>2017-01-17T14:10:22Z</time>
      </trkpt>
      <trkpt lat="49.39774" lon="1.14914">
        <ele>143</ele>
        <time>2017-01-17T14:10:22Z</time>
      </trkpt>
      <trkpt lat="49.39772" lon="1.1492">
        <ele>143</ele>
        <time>2017-01-17T14:10:22Z</time>
      </trkpt>
      <trkpt lat="49.39772" lon="1.14925">
        <ele>143</ele>
        <time>2017-01-17T14:10:22Z</time>
      </trkpt>
      <trkpt lat="49.39771" lon="1.14931">
        <ele>143</ele>
        <time>2017-01-17T14:10:38Z</time>
      </trkpt>
      <trkpt lat="49.3977" lon="1.1494">
        <ele>143</ele>
        <time>2017-01-17T14:10:38Z</time>
      </trkpt>
      <trkpt lat="49.3977" lon="1.14946">
        <ele>143</ele>
        <time>2017-01-17T14:10:38Z</time>
      </trkpt>
      <trkpt lat="49.39765" lon="1.14948">
        <ele>143</ele>
        <time>2017-01-17T14:10:38Z</time>
      </trkpt>
      <trkpt lat="49.3976" lon="1.14954">
        <ele>143</ele>
        <time>2017-01-17T14:10:54Z</time>
      </trkpt>
      <trkpt lat="49.39758" lon="1.1496">
        <ele>145</ele>
        <time>2017-01-17T14:10:54Z</time>
      </trkpt>
      <trkpt lat="49.39756" lon="1.14965">
        <ele>145</ele>
        <time>2017-01-17T14:10:54Z</time>
      </trkpt>
      <trkpt lat="49.39755" lon="1.1497">
        <ele>145</ele>
        <time>2017-01-17T14:10:54Z</time>
      </trkpt>
      <trkpt lat="49.3975" lon="1.14974">
        <ele>145</ele>
        <time>2017-01-17T14:11:10Z</time>
      </trkpt>
      <trkpt lat="49.39744" lon="1.14974">
        <ele>145</ele>
        <time>2017-01-17T14:11:10Z</time>
      </trkpt>
      <trkpt lat="49.39739" lon="1.1497">
        <ele>145</ele>
        <time>2017-01-17T14:11:10Z</time>
      </trkpt>
      <trkpt lat="49.39735" lon="1.14968">
        <ele>145</ele>
        <time>2017-01-17T14:11:10Z</time>
      </trkpt>
      <trkpt lat="49.3973" lon="1.14965">
        <ele>145</ele>
        <time>2017-01-17T14:11:26Z</time>
      </trkpt>
      <trkpt lat="49.39725" lon="1.14961">
        <ele>145</ele>
        <time>2017-01-17T14:11:26Z</time>
      </trkpt>
      <trkpt lat="49.3972" lon="1.14957">
        <ele>143</ele>
        <time>2017-01-17T14:11:26Z</time>
      </trkpt>
      <trkpt lat="49.39715" lon="1.14953">
        <ele>143</ele>
        <time>2017-01-17T14:11:26Z</time>
      </trkpt>
      <trkpt lat="49.3971" lon="1.14952">
        <ele>143</ele>
        <time>2017-01-17T14:11:42Z</time>
      </trkpt>
      <trkpt lat="49.39707" lon="1.14955">
        <ele>144</ele>
        <time>2017-01-17T14:11:42Z</time>
      </trkpt>
      <trkpt lat="49.39703" lon="1.14953">
        <ele>144</ele>
        <time>2017-01-17T14:11:42Z</time>
      </trkpt>
      <trkpt lat="49.39699" lon="1.14946">
        <ele>144</ele>
        <time>2017-01-17T14:11:42Z</time>
      </trkpt>
      <trkpt lat="49.39695" lon="1.14942">
        <ele>144</ele>
        <time>2017-01-17T14:11:58Z</time>
      </trkpt>
      <trkpt lat="49.39691" lon="1.14937">
        <ele>144</ele>
        <time>2017-01-17T14:11:58Z</time>
      </trkpt>
      <trkpt lat="49.39688" lon="1.14933">
        <ele>144</ele>
        <time>2017-01-17T14:11:58Z</time>
      </trkpt>
      <trkpt lat="49.39684" lon="1.14928">
        <ele>144</ele>
        <time>2017-01-17T14:11:58Z</time>
      </trkpt>
      <trkpt lat="49.3968" lon="1.14923">
        <ele>144</ele>
        <time>2017-01-17T14:12:14Z</time>
      </trkpt>
      <trkpt lat="49.39676" lon="1.14916">
        <ele>144</ele>
        <time>2017-01-17T14:12:14Z</time>
      </trkpt>
      <trkpt lat="49.39673" lon="1.14913">
        <ele>144</ele>
        <time>2017-01-17T14:12:14Z</time>
      </trkpt>
      <trkpt lat="49.39667" lon="1.14907">
        <ele>144</ele>
        <time>2017-01-17T14:12:14Z</time>
      </trkpt>
      <trkpt lat="49.39664" lon="1.14903">
        <ele>144</ele>
        <time>2017-01-17T14:12:30Z</time>
      </trkpt>
      <trkpt lat="49.39662" lon="1.14897">
        <ele>144</ele>
        <time>2017-01-17T14:12:30Z</time>
      </trkpt>
      <trkpt lat="49.39659" lon="1.14889">
        <ele>144</ele>
        <time>2017-01-17T14:12:30Z</time>
      </trkpt>
      <trkpt lat="49.39656" lon="1.14883">
        <ele>144</ele>
        <time>2017-01-17T14:12:30Z</time>
      </trkpt>
      <trkpt lat="49.39652" lon="1.14877">
        <ele>144</ele>
        <time>2017-01-17T14:12:46Z</time>
      </trkpt>
      <trkpt lat="49.39648" lon="1.14872">
        <ele>144</ele>
        <time>2017-01-17T14:12:46Z</time>
      </trkpt>
      <trkpt lat="49.39644" lon="1.14867">
        <ele>144</ele>
        <time>2017-01-17T14:12:46Z</time>
      </trkpt>
      <trkpt lat="49.39642" lon="1.14862">
        <ele>144</ele>
        <time>2017-01-17T14:12:46Z</time>
      </trkpt>
      <trkpt lat="49.39638" lon="1.1486">
        <ele>144</ele>
        <time>2017-01-17T14:13:02Z</time>
      </trkpt>
      <trkpt lat="49.39635" lon="1.14857">
        <ele>144</ele>
        <time>2017-01-17T14:13:02Z</time>
      </trkpt>
      <trkpt lat="49.3963" lon="1.14851">
        <ele>144</ele>
        <time>2017-01-17T14:13:02Z</time>
      </trkpt>
      <trkpt lat="49.39627" lon="1.14845">
        <ele>144</ele>
        <time>2017-01-17T14:13:02Z</time>
      </trkpt>
      <trkpt lat="49.39623" lon="1.14841">
        <ele>145</ele>
        <time>2017-01-17T14:13:18Z</time>
      </trkpt>
      <trkpt lat="49.3962" lon="1.14836">
        <ele>145</ele>
        <time>2017-01-17T14:13:18Z</time>
      </trkpt>
      <trkpt lat="49.39616" lon="1.1483">
        <ele>145</ele>
        <time>2017-01-17T14:13:18Z</time>
      </trkpt>
      <trkpt lat="49.39612" lon="1.14825">
        <ele>145</ele>
        <time>2017-01-17T14:13:18Z</time>
      </trkpt>
      <trkpt lat="49.39607" lon="1.14819">
        <ele>145</ele>
        <time>2017-01-17T14:13:34Z</time>
      </trkpt>
      <trkpt lat="49.39604" lon="1.14814">
        <ele>145</ele>
        <time>2017-01-17T14:13:34Z</time>
      </trkpt>
      <trkpt lat="49.396" lon="1.14809">
        <ele>145</ele>
        <time>2017-01-17T14:13:34Z</time>
      </trkpt>
      <trkpt lat="49.39596" lon="1.14803">
        <ele>145</ele>
        <time>2017-01-17T14:13:34Z</time>
      </trkpt>
      <trkpt lat="49.39593" lon="1.14799">
        <ele>145</ele>
        <time>2017-01-17T14:13:50Z</time>
      </trkpt>
      <trkpt lat="49.39589" lon="1.14794">
        <ele>145</ele>
        <time>2017-01-17T14:13:50Z</time>
      </trkpt>
      <trkpt lat="49.39584" lon="1.14789">
        <ele>143</ele>
        <time>2017-01-17T14:13:50Z</time>
      </trkpt>
      <trkpt lat="49.3958" lon="1.14784">
        <ele>143</ele>
        <time>2017-01-17T14:13:50Z</time>
      </trkpt>
      <trkpt lat="49.39579" lon="1.1478">
        <ele>143</ele>
        <time>2017-01-17T14:14:06Z</time>
      </trkpt>
      <trkpt lat="49.39575" lon="1.14776">
        <ele>143</ele>
        <time>2017-01-17T14:14:06Z</time>
      </trkpt>
      <trkpt lat="49.39571" lon="1.14772">
        <ele>143</ele>
        <time>2017-01-17T14:14:06Z</time>
      </trkpt>
      <trkpt lat="49.39568" lon="1.14769">
        <ele>143</ele>
        <time>2017-01-17T14:14:06Z</time>
      </trkpt>
      <trkpt lat="49.39563" lon="1.14765">
        <ele>143</ele>
        <time>2017-01-17T14:14:22Z</time>
      </trkpt>
      <trkpt lat="49.39559" lon="1.14762">
        <ele>143</ele>
        <time>2017-01-17T14:14:22Z</time>
      </trkpt>
      <trkpt lat="49.39556" lon="1.14758">
        <ele>143</ele>
        <time>2017-01-17T14:14:22Z</time>
      </trkpt>
      <trkpt lat="49.39552" lon="1.14756">
        <ele>143</ele>
        <time>2017-01-17T14:14:22Z</time>
      </trkpt>
      <trkpt lat="49.39548" lon="1.14753">
        <ele>143</ele>
        <time>2017-01-17T14:14:38Z</time>
      </trkpt>
      <trkpt lat="49.39544" lon="1.1475">
        <ele>143</ele>
        <time>2017-01-17T14:14:38Z</time>
      </trkpt>
      <trkpt lat="49.3954" lon="1.14744">
        <ele>147</ele>
        <time>2017-01-17T14:14:38Z</time>
      </trkpt>
      <trkpt lat="49.39535" lon="1.14742">
        <ele>147</ele>
        <time>2017-01-17T14:14:38Z</time>
      </trkpt>
      <trkpt lat="49.3953" lon="1.14739">
        <ele>147</ele>
        <time>2017-01-17T14:14:54Z</time>
      </trkpt>
      <trkpt lat="49.39524" lon="1.14736">
        <ele>147</ele>
        <time>2017-01-17T14:14:54Z</time>
      </trkpt>
      <trkpt lat="49.3952" lon="1.14731">
        <ele>147</ele>
        <time>2017-01-17T14:14:54Z</time>
      </trkpt>
      <trkpt lat="49.39515" lon="1.14726">
        <ele>147</ele>
        <time>2017-01-17T14:14:54Z</time>
      </trkpt>
      <trkpt lat="49.39511" lon="1.14722">
        <ele>147</ele>
        <time>2017-01-17T14:15:10Z</time>
      </trkpt>
      <trkpt lat="49.39506" lon="1.14718">
        <ele>147</ele>
        <time>2017-01-17T14:15:10Z</time>
      </trkpt>
      <trkpt lat="49.39502" lon="1.14714">
        <ele>147</ele>
        <time>2017-01-17T14:15:10Z</time>
      </trkpt>
      <trkpt lat="49.39498" lon="1.14709">
        <ele>147</ele>
        <time>2017-01-17T14:15:10Z</time>
      </trkpt>
      <trkpt lat="49.39492" lon="1.14705">
        <ele>145</ele>
        <time>2017-01-17T14:15:26Z</time>
      </trkpt>
      <trkpt lat="49.39487" lon="1.14702">
        <ele>145</ele>
        <time>2017-01-17T14:15:26Z</time>
      </trkpt>
      <trkpt lat="49.39484" lon="1.14698">
        <ele>145</ele>
        <time>2017-01-17T14:15:26Z</time>
      </trkpt>
      <trkpt lat="49.3948" lon="1.14699">
        <ele>145</ele>
        <time>2017-01-17T14:15:26Z</time>
      </trkpt>
      <trkpt lat="49.39477" lon="1.14696">
        <ele>145</ele>
        <time>2017-01-17T14:15:42Z</time>
      </trkpt>
      <trkpt lat="49.39473" lon="1.14693">
        <ele>145</ele>
        <time>2017-01-17T14:15:42Z</time>
      </trkpt>
      <trkpt lat="49.39469" lon="1.14689">
        <ele>145</ele>
        <time>2017-01-17T14:15:42Z</time>
      </trkpt>
      <trkpt lat="49.39465" lon="1.14686">
        <ele>145</ele>
        <time>2017-01-17T14:15:42Z</time>
      </trkpt>
      <trkpt lat="49.39461" lon="1.14681">
        <ele>145</ele>
        <time>2017-01-17T14:15:58Z</time>
      </trkpt>
      <trkpt lat="49.39456" lon="1.14678">
        <ele>147</ele>
        <time>2017-01-17T14:15:58Z</time>
      </trkpt>
      <trkpt lat="49.39452" lon="1.14675">
        <ele>147</ele>
        <time>2017-01-17T14:15:58Z</time>
      </trkpt>
      <trkpt lat="49.39449" lon="1.14671">
        <ele>147</ele>
        <time>2017-01-17T14:15:58Z</time>
      </trkpt>
      <trkpt lat="49.39445" lon="1.14668">
        <ele>147</ele>
        <time>2017-01-17T14:16:14Z</time>
      </trkpt>
      <trkpt lat="49.3944" lon="1.14665">
        <ele>147</ele>
        <time>2017-01-17T14:16:14Z</time>
      </trkpt>
      <trkpt lat="49.39435" lon="1.14663">
        <ele>147</ele>
        <time>2017-01-17T14:16:14Z</time>
      </trkpt>
      <trkpt lat="49.39431" lon="1.1466">
        <ele>147</ele>
        <time>2017-01-17T14:16:14Z</time>
      </trkpt>
      <trkpt lat="49.39427" lon="1.14657">
        <ele>147</ele>
        <time>2017-01-17T14:16:30Z</time>
      </trkpt>
      <trkpt lat="49.39422" lon="1.14653">
        <ele>147</ele>
        <time>2017-01-17T14:16:30Z</time>
      </trkpt>
      <trkpt lat="49.39416" lon="1.1465">
        <ele>147</ele>
        <time>2017-01-17T14:16:30Z</time>
      </trkpt>
      <trkpt lat="49.39412" lon="1.14648">
        <ele>147</ele>
        <time>2017-01-17T14:16:30Z</time>
      </trkpt>
      <trkpt lat="49.39408" lon="1.14645">
        <ele>147</ele>
        <time>2017-01-17T14:16:46Z</time>
      </trkpt>
      <trkpt lat="49.39404" lon="1.14643">
        <ele>147</ele>
        <time>2017-01-17T14:16:46Z</time>
      </trkpt>
      <trkpt lat="49.39399" lon="1.14641">
        <ele>147</ele>
        <time>2017-01-17T14:16:46Z</time>
      </trkpt>
      <trkpt lat="49.39394" lon="1.14639">
        <ele>147</ele>
        <time>2017-01-17T14:16:46Z</time>
      </trkpt>
      <trkpt lat="49.3939" lon="1.14637">
        <ele>147</ele>
        <time>2017-01-17T14:17:02Z</time>
      </trkpt>
      <trkpt lat="49.39386" lon="1.14632">
        <ele>147</ele>
        <time>2017-01-17T14:17:02Z</time>
      </trkpt>
      <trkpt lat="49.39382" lon="1.14628">
        <ele>147</ele>
        <time>2017-01-17T14:17:02Z</time>
      </trkpt>
      <trkpt lat="49.39379" lon="1.14624">
        <ele>145</ele>
        <time>2017-01-17T14:17:02Z</time>
      </trkpt>
      <trkpt lat="49.39375" lon="1.14619">
        <ele>147</ele>
        <time>2017-01-17T14:17:18Z</time>
      </trkpt>
      <trkpt lat="49.3937" lon="1.14616">
        <ele>147</ele>
        <time>2017-01-17T14:17:18Z</time>
      </trkpt>
      <trkpt lat="49.39363" lon="1.1461">
        <ele>147</ele>
        <time>2017-01-17T14:17:18Z</time>
      </trkpt>
      <trkpt lat="49.39359" lon="1.14608">
        <ele>147</ele>
        <time>2017-01-17T14:17:18Z</time>
      </trkpt>
      <trkpt lat="49.39354" lon="1.14604">
        <ele>147</ele>
        <time>2017-01-17T14:17:34Z</time>
      </trkpt>
      <trkpt lat="49.3935" lon="1.146">
        <ele>147</ele>
        <time>2017-01-17T14:17:34Z</time>
      </trkpt>
      <trkpt lat="49.39348" lon="1.14597">
        <ele>147</ele>
        <time>2017-01-17T14:17:34Z</time>
      </trkpt>
      <trkpt lat="49.39344" lon="1.14592">
        <ele>147</ele>
        <time>2017-01-17T14:17:34Z</time>
      </trkpt>
      <trkpt lat="49.3934" lon="1.14587">
        <ele>147</ele>
        <time>2017-01-17T14:17:50Z</time>
      </trkpt>
      <trkpt lat="49.39336" lon="1.14583">
        <ele>147</ele>
        <time>2017-01-17T14:17:50Z</time>
      </trkpt>
      <trkpt lat="49.39333" lon="1.14579">
        <ele>147</ele>
        <time>2017-01-17T14:17:50Z</time>
      </trkpt>
      <trkpt lat="49.3933" lon="1.14576">
        <ele>147</ele>
        <time>2017-01-17T14:17:50Z</time>
      </trkpt>
      <trkpt lat="49.39326" lon="1.14574">
        <ele>147</ele>
        <time>2017-01-17T14:18:06Z</time>
      </trkpt>
      <trkpt lat="49.3932" lon="1.14571">
        <ele>147</ele>
        <time>2017-01-17T14:18:06Z</time>
      </trkpt>
      <trkpt lat="49.39315" lon="1.14567">
        <ele>147</ele>
        <time>2017-01-17T14:18:06Z</time>
      </trkpt>
      <trkpt lat="49.3931" lon="1.14563">
        <ele>147</ele>
        <time>2017-01-17T14:18:06Z</time>
      </trkpt>
      <trkpt lat="49.39306" lon="1.14559">
        <ele>147</ele>
        <time>2017-01-17T14:18:22Z</time>
      </trkpt>
      <trkpt lat="49.39301" lon="1.14556">
        <ele>147</ele>
        <time>2017-01-17T14:18:22Z</time>
      </trkpt>
      <trkpt lat="49.39296" lon="1.14551">
        <ele>147</ele>
        <time>2017-01-17T14:18:22Z</time>
      </trkpt>
      <trkpt lat="49.39292" lon="1.14549">
        <ele>147</ele>
        <time>2017-01-17T14:18:22Z</time>
      </trkpt>
      <trkpt lat="49.39288" lon="1.14545">
        <ele>146</ele>
        <time>2017-01-17T14:18:38Z</time>
      </trkpt>
      <trkpt lat="49.39283" lon="1.14541">
        <ele>145</ele>
        <time>2017-01-17T14:18:38Z</time>
      </trkpt>
      <trkpt lat="49.39277" lon="1.14538">
        <ele>145</ele>
        <time>2017-01-17T14:18:38Z</time>
      </trkpt>
      <trkpt lat="49.39272" lon="1.14535">
        <ele>145</ele>
        <time>2017-01-17T14:18:38Z</time>
      </trkpt>
      <trkpt lat="49.39268" lon="1.1453">
        <ele>145</ele>
        <time>2017-01-17T14:18:54Z</time>
      </trkpt>
      <trkpt lat="49.39264" lon="1.14527">
        <ele>145</ele>
        <time>2017-01-17T14:18:54Z</time>
      </trkpt>
      <trkpt lat="49.3926" lon="1.14526">
        <ele>145</ele>
        <time>2017-01-17T14:18:54Z</time>
      </trkpt>
      <trkpt lat="49.39258" lon="1.14524">
        <ele>145</ele>
        <time>2017-01-17T14:18:54Z</time>
      </trkpt>
      <trkpt lat="49.39255" lon="1.14521">
        <ele>145</ele>
        <time>2017-01-17T14:19:10Z</time>
      </trkpt>
      <trkpt lat="49.39249" lon="1.14519">
        <ele>145</ele>
        <time>2017-01-17T14:19:10Z</time>
      </trkpt>
      <trkpt lat="49.39243" lon="1.14516">
        <ele>145</ele>
        <time>2017-01-17T14:19:10Z</time>
      </trkpt>
      <trkpt lat="49.39238" lon="1.14513">
        <ele>145</ele>
        <time>2017-01-17T14:19:10Z</time>
      </trkpt>
      <trkpt lat="49.39234" lon="1.14505">
        <ele>145</ele>
        <time>2017-01-17T14:19:26Z</time>
      </trkpt>
      <trkpt lat="49.39232" lon="1.14502">
        <ele>145</ele>
        <time>2017-01-17T14:19:26Z</time>
      </trkpt>
      <trkpt lat="49.39229" lon="1.14498">
        <ele>145</ele>
        <time>2017-01-17T14:19:26Z</time>
      </trkpt>
      <trkpt lat="49.39225" lon="1.14495">
        <ele>145</ele>
        <time>2017-01-17T14:19:26Z</time>
      </trkpt>
      <trkpt lat="49.39222" lon="1.14492">
        <ele>145</ele>
        <time>2017-01-17T14:19:42Z</time>
      </trkpt>
      <trkpt lat="49.39217" lon="1.14489">
        <ele>145</ele>
        <time>2017-01-17T14:19:42Z</time>
      </trkpt>
      <trkpt lat="49.39211" lon="1.14486">
        <ele>145</ele>
        <time>2017-01-17T14:19:42Z</time>
      </trkpt>
      <trkpt lat="49.39206" lon="1.14486">
        <ele>149</ele>
        <time>2017-01-17T14:19:42Z</time>
      </trkpt>
      <trkpt lat="49.39201" lon="1.14485">
        <ele>149</ele>
        <time>2017-01-17T14:19:58Z</time>
      </trkpt>
      <trkpt lat="49.39197" lon="1.14485">
        <ele>149</ele>
        <time>2017-01-17T14:19:58Z</time>
      </trkpt>
      <trkpt lat="49.39192" lon="1.14482">
        <ele>149</ele>
        <time>2017-01-17T14:19:58Z</time>
      </trkpt>
      <trkpt lat="49.39187" lon="1.14482">
        <ele>149</ele>
        <time>2017-01-17T14:19:58Z</time>
      </trkpt>
      <trkpt lat="49.39182" lon="1.14481">
        <ele>149</ele>
        <time>2017-01-17T14:20:14Z</time>
      </trkpt>
      <trkpt lat="49.39178" lon="1.14482">
        <ele>149</ele>
        <time>2017-01-17T14:20:14Z</time>
      </trkpt>
      <trkpt lat="49.39173" lon="1.14481">
        <ele>149</ele>
        <time>2017-01-17T14:20:14Z</time>
      </trkpt>
      <trkpt lat="49.39168" lon="1.1448">
        <ele>149</ele>
        <time>2017-01-17T14:20:14Z</time>
      </trkpt>
      <trkpt lat="49.39163" lon="1.1448">
        <ele>149</ele>
        <time>2017-01-17T14:20:30Z</time>
      </trkpt>
      <trkpt lat="49.39158" lon="1.14479">
        <ele>149</ele>
        <time>2017-01-17T14:20:30Z</time>
      </trkpt>
      <trkpt lat="49.39152" lon="1.14479">
        <ele>149</ele>
        <time>2017-01-17T14:20:30Z</time>
      </trkpt>
      <trkpt lat="49.39146" lon="1.14479">
        <ele>149</ele>
        <time>2017-01-17T14:20:30Z</time>
      </trkpt>
      <trkpt lat="49.39141" lon="1.14479">
        <ele>149</ele>
        <time>2017-01-17T14:20:46Z</time>
      </trkpt>
      <trkpt lat="49.39136" lon="1.14479">
        <ele>149</ele>
        <time>2017-01-17T14:20:46Z</time>
      </trkpt>
      <trkpt lat="49.39132" lon="1.14479">
        <ele>149</ele>
        <time>2017-01-17T14:20:46Z</time>
      </trkpt>
      <trkpt lat="49.39128" lon="1.1448">
        <ele>149</ele>
        <time>2017-01-17T14:20:46Z</time>
      </trkpt>
      <trkpt lat="49.39122" lon="1.14485">
        <ele>146</ele>
        <time>2017-01-17T14:21:02Z</time>
      </trkpt>
      <trkpt lat="49.39118" lon="1.14488">
        <ele>146</ele>
        <time>2017-01-17T14:21:02Z</time>
      </trkpt>
      <trkpt lat="49.39115" lon="1.14489">
        <ele>146</ele>
        <time>2017-01-17T14:21:02Z</time>
      </trkpt>
      <trkpt lat="49.3911" lon="1.14485">
        <ele>146</ele>
        <time>2017-01-17T14:21:02Z</time>
      </trkpt>
      <trkpt lat="49.39104" lon="1.14481">
        <ele>146</ele>
        <time>2017-01-17T14:21:18Z</time>
      </trkpt>
      <trkpt lat="49.39101" lon="1.14479">
        <ele>146</ele>
        <time>2017-01-17T14:21:18Z</time>
      </trkpt>
      <trkpt lat="49.39097" lon="1.14478">
        <ele>146</ele>
        <time>2017-01-17T14:21:18Z</time>
      </trkpt>
      <trkpt lat="49.39092" lon="1.14478">
        <ele>146</ele>
        <time>2017-01-17T14:21:18Z</time>
      </trkpt>
      <trkpt lat="49.39087" lon="1.14477">
        <ele>146</ele>
        <time>2017-01-17T14:21:34Z</time>
      </trkpt>
      <trkpt lat="49.39083" lon="1.14479">
        <ele>146</ele>
        <time>2017-01-17T14:21:34Z</time>
      </trkpt>
      <trkpt lat="49.39078" lon="1.14479">
        <ele>146</ele>
        <time>2017-01-17T14:21:34Z</time>
      </trkpt>
      <trkpt lat="49.39072" lon="1.14482">
        <ele>146</ele>
        <time>2017-01-17T14:21:34Z</time>
      </trkpt>
      <trkpt lat="49.39071" lon="1.1448">
        <ele>146</ele>
        <time>2017-01-17T14:21:50Z</time>
      </trkpt>
      <trkpt lat="49.39071" lon="1.14477">
        <ele>146</ele>
        <time>2017-01-17T14:21:50Z</time>
      </trkpt>
      <trkpt lat="49.39068" lon="1.14472">
        <ele>146</ele>
        <time>2017-01-17T14:21:50Z</time>
      </trkpt>
      <trkpt lat="49.39063" lon="1.1447">
        <ele>146</ele>
        <time>2017-01-17T14:21:50Z</time>
      </trkpt>
      <trkpt lat="49.39058" lon="1.14469">
        <ele>146</ele>
        <time>2017-01-17T14:22:06Z</time>
      </trkpt>
      <trkpt lat="49.39054" lon="1.14465">
        <ele>146</ele>
        <time>2017-01-17T14:22:06Z</time>
      </trkpt>
      <trkpt lat="49.39049" lon="1.14463">
        <ele>146</ele>
        <time>2017-01-17T14:22:06Z</time>
      </trkpt>
      <trkpt lat="49.39045" lon="1.14461">
        <ele>146</ele>
        <time>2017-01-17T14:22:06Z</time>
      </trkpt>
      <trkpt lat="49.3904" lon="1.14456">
        <ele>145</ele>
        <time>2017-01-17T14:22:22Z</time>
      </trkpt>
      <trkpt lat="49.39036" lon="1.14451">
        <ele>145</ele>
        <time>2017-01-17T14:22:22Z</time>
      </trkpt>
      <trkpt lat="49.39033" lon="1.14453">
        <ele>145</ele>
        <time>2017-01-17T14:22:22Z</time>
      </trkpt>
      <trkpt lat="49.39029" lon="1.14454">
        <ele>145</ele>
        <time>2017-01-17T14:22:22Z</time>
      </trkpt>
      <trkpt lat="49.39027" lon="1.14448">
        <ele>145</ele>
        <time>2017-01-17T14:22:38Z</time>
      </trkpt>
      <trkpt lat="49.39025" lon="1.1444">
        <ele>145</ele>
        <time>2017-01-17T14:22:38Z</time>
      </trkpt>
      <trkpt lat="49.39024" lon="1.14432">
        <ele>145</ele>
        <time>2017-01-17T14:22:38Z</time>
      </trkpt>
      <trkpt lat="49.39022" lon="1.14425">
        <ele>145</ele>
        <time>2017-01-17T14:22:38Z</time>
      </trkpt>
      <trkpt lat="49.39019" lon="1.14419">
        <ele>145</ele>
        <time>2017-01-17T14:22:54Z</time>
      </trkpt>
      <trkpt lat="49.39016" lon="1.14414">
        <ele>145</ele>
        <time>2017-01-17T14:22:54Z</time>
      </trkpt>
      <trkpt lat="49.39014" lon="1.14408">
        <ele>145</ele>
        <time>2017-01-17T14:22:54Z</time>
      </trkpt>
      <trkpt lat="49.39011" lon="1.14401">
        <ele>145</ele>
        <time>2017-01-17T14:22:54Z</time>
      </trkpt>
      <trkpt lat="49.39008" lon="1.14394">
        <ele>145</ele>
        <time>2017-01-17T14:23:11Z</time>
      </trkpt>
      <trkpt lat="49.39006" lon="1.1439">
        <ele>145</ele>
        <time>2017-01-17T14:23:11Z</time>
      </trkpt>
      <trkpt lat="49.39003" lon="1.14385">
        <ele>145</ele>
        <time>2017-01-17T14:23:11Z</time>
      </trkpt>
      <trkpt lat="49.39001" lon="1.14378">
        <ele>145</ele>
        <time>2017-01-17T14:23:11Z</time>
      </trkpt>
      <trkpt lat="49.38999" lon="1.14371">
        <ele>143</ele>
        <time>2017-01-17T14:23:26Z</time>
      </trkpt>
      <trkpt lat="49.38996" lon="1.14364">
        <ele>143</ele>
        <time>2017-01-17T14:23:26Z</time>
      </trkpt>
      <trkpt lat="49.38993" lon="1.14356">
        <ele>143</ele>
        <time>2017-01-17T14:23:26Z</time>
      </trkpt>
      <trkpt lat="49.38991" lon="1.14348">
        <ele>143</ele>
        <time>2017-01-17T14:23:26Z</time>
      </trkpt>
      <trkpt lat="49.38988" lon="1.14341">
        <ele>143</ele>
        <time>2017-01-17T14:23:42Z</time>
      </trkpt>
      <trkpt lat="49.38987" lon="1.14333">
        <ele>143</ele>
        <time>2017-01-17T14:23:42Z</time>
      </trkpt>
      <trkpt lat="49.38983" lon="1.14326">
        <ele>143</ele>
        <time>2017-01-17T14:23:42Z</time>
      </trkpt>
      <trkpt lat="49.38981" lon="1.14321">
        <ele>143</ele>
        <time>2017-01-17T14:23:42Z</time>
      </trkpt>
      <trkpt lat="49.38979" lon="1.14315">
        <ele>143</ele>
        <time>2017-01-17T14:23:58Z</time>
      </trkpt>
      <trkpt lat="49.38975" lon="1.14309">
        <ele>143</ele>
        <time>2017-01-17T14:23:58Z</time>
      </trkpt>
      <trkpt lat="49.38972" lon="1.14301">
        <ele>143</ele>
        <time>2017-01-17T14:23:58Z</time>
      </trkpt>
      <trkpt lat="49.38969" lon="1.14294">
        <ele>143</ele>
        <time>2017-01-17T14:23:58Z</time>
      </trkpt>
      <trkpt lat="49.38967" lon="1.14287">
        <ele>144</ele>
        <time>2017-01-17T14:24:14Z</time>
      </trkpt>
      <trkpt lat="49.38965" lon="1.14278">
        <ele>144</ele>
        <time>2017-01-17T14:24:14Z</time>
      </trkpt>
      <trkpt lat="49.38962" lon="1.14271">
        <ele>144</ele>
        <time>2017-01-17T14:24:14Z</time>
      </trkpt>
      <trkpt lat="49.3896" lon="1.14265">
        <ele>144</ele>
        <time>2017-01-17T14:24:14Z</time>
      </trkpt>
      <trkpt lat="49.38957" lon="1.14258">
        <ele>144</ele>
        <time>2017-01-17T14:24:30Z</time>
      </trkpt>
      <trkpt lat="49.38955" lon="1.14252">
        <ele>144</ele>
        <time>2017-01-17T14:24:30Z</time>
      </trkpt>
      <trkpt lat="49.38953" lon="1.14245">
        <ele>144</ele>
        <time>2017-01-17T14:24:30Z</time>
      </trkpt>
      <trkpt lat="49.38951" lon="1.1424">
        <ele>144</ele>
        <time>2017-01-17T14:24:30Z</time>
      </trkpt>
      <trkpt lat="49.38949" lon="1.14234">
        <ele>144</ele>
        <time>2017-01-17T14:24:46Z</time>
      </trkpt>
      <trkpt lat="49.38947" lon="1.14228">
        <ele>144</ele>
        <time>2017-01-17T14:24:46Z</time>
      </trkpt>
      <trkpt lat="49.38944" lon="1.14221">
        <ele>144</ele>
        <time>2017-01-17T14:24:46Z</time>
      </trkpt>
      <trkpt lat="49.38942" lon="1.14215">
        <ele>144</ele>
        <time>2017-01-17T14:24:46Z</time>
      </trkpt>
      <trkpt lat="49.38941" lon="1.14207">
        <ele>143</ele>
        <time>2017-01-17T14:25:02Z</time>
      </trkpt>
      <trkpt lat="49.38939" lon="1.142">
        <ele>143</ele>
        <time>2017-01-17T14:25:02Z</time>
      </trkpt>
      <trkpt lat="49.38938" lon="1.14193">
        <ele>143</ele>
        <time>2017-01-17T14:25:02Z</time>
      </trkpt>
      <trkpt lat="49.38937" lon="1.14184">
        <ele>143</ele>
        <time>2017-01-17T14:25:02Z</time>
      </trkpt>
      <trkpt lat="49.38935" lon="1.14177">
        <ele>143</ele>
        <time>2017-01-17T14:25:18Z</time>
      </trkpt>
      <trkpt lat="49.38932" lon="1.1417">
        <ele>143</ele>
        <time>2017-01-17T14:25:18Z</time>
      </trkpt>
      <trkpt lat="49.3893" lon="1.14163">
        <ele>143</ele>
        <time>2017-01-17T14:25:18Z</time>
      </trkpt>
      <trkpt lat="49.38928" lon="1.14156">
        <ele>143</ele>
        <time>2017-01-17T14:25:18Z</time>
      </trkpt>
      <trkpt lat="49.38927" lon="1.14149">
        <ele>143</ele>
        <time>2017-01-17T14:25:34Z</time>
      </trkpt>
      <trkpt lat="49.38924" lon="1.14143">
        <ele>143</ele>
        <time>2017-01-17T14:25:34Z</time>
      </trkpt>
      <trkpt lat="49.38921" lon="1.14135">
        <ele>143</ele>
        <time>2017-01-17T14:25:34Z</time>
      </trkpt>
      <trkpt lat="49.38919" lon="1.14128">
        <ele>143</ele>
        <time>2017-01-17T14:25:34Z</time>
      </trkpt>
      <trkpt lat="49.38917" lon="1.14122">
        <ele>141</ele>
        <time>2017-01-17T14:25:50Z</time>
      </trkpt>
      <trkpt lat="49.38915" lon="1.14117">
        <ele>141</ele>
        <time>2017-01-17T14:25:50Z</time>
      </trkpt>
      <trkpt lat="49.38912" lon="1.14111">
        <ele>141</ele>
        <time>2017-01-17T14:25:50Z</time>
      </trkpt>
      <trkpt lat="49.38909" lon="1.14105">
        <ele>141</ele>
        <time>2017-01-17T14:25:50Z</time>
      </trkpt>
      <trkpt lat="49.38905" lon="1.14099">
        <ele>141</ele>
        <time>2017-01-17T14:26:06Z</time>
      </trkpt>
      <trkpt lat="49.38901" lon="1.14089">
        <ele>141</ele>
        <time>2017-01-17T14:26:06Z</time>
      </trkpt>
      <trkpt lat="49.38901" lon="1.14081">
        <ele>141</ele>
        <time>2017-01-17T14:26:06Z</time>
      </trkpt>
      <trkpt lat="49.389" lon="1.14073">
        <ele>141</ele>
        <time>2017-01-17T14:26:06Z</time>
      </trkpt>
      <trkpt lat="49.38898" lon="1.14065">
        <ele>141</ele>
        <time>2017-01-17T14:26:22Z</time>
      </trkpt>
      <trkpt lat="49.38896" lon="1.14057">
        <ele>141</ele>
        <time>2017-01-17T14:26:22Z</time>
      </trkpt>
      <trkpt lat="49.38895" lon="1.1405">
        <ele>141</ele>
        <time>2017-01-17T14:26:22Z</time>
      </trkpt>
      <trkpt lat="49.38894" lon="1.14043">
        <ele>141</ele>
        <time>2017-01-17T14:26:22Z</time>
      </trkpt>
      <trkpt lat="49.38893" lon="1.14036">
        <ele>140</ele>
        <time>2017-01-17T14:26:38Z</time>
      </trkpt>
      <trkpt lat="49.38892" lon="1.1403">
        <ele>140</ele>
        <time>2017-01-17T14:26:38Z</time>
      </trkpt>
      <trkpt lat="49.38889" lon="1.14024">
        <ele>140</ele>
        <time>2017-01-17T14:26:38Z</time>
      </trkpt>
      <trkpt lat="49.38887" lon="1.14017">
        <ele>140</ele>
        <time>2017-01-17T14:26:38Z</time>
      </trkpt>
      <trkpt lat="49.38883" lon="1.14008">
        <ele>140</ele>
        <time>2017-01-17T14:26:54Z</time>
      </trkpt>
      <trkpt lat="49.3888" lon="1.14002">
        <ele>140</ele>
        <time>2017-01-17T14:26:54Z</time>
      </trkpt>
      <trkpt lat="49.38877" lon="1.13996">
        <ele>140</ele>
        <time>2017-01-17T14:26:54Z</time>
      </trkpt>
      <trkpt lat="49.38876" lon="1.13989">
        <ele>140</ele>
        <time>2017-01-17T14:26:54Z</time>
      </trkpt>
      <trkpt lat="49.38873" lon="1.13982">
        <ele>142</ele>
        <time>2017-01-17T14:27:10Z</time>
      </trkpt>
      <trkpt lat="49.3887" lon="1.13977">
        <ele>142</ele>
        <time>2017-01-17T14:27:10Z</time>
      </trkpt>
      <trkpt lat="49.38867" lon="1.1397">
        <ele>142</ele>
        <time>2017-01-17T14:27:10Z</time>
      </trkpt>
      <trkpt lat="49.38864" lon="1.13963">
        <ele>142</ele>
        <time>2017-01-17T14:27:10Z</time>
      </trkpt>
      <trkpt lat="49.3886" lon="1.13957">
        <ele>142</ele>
        <time>2017-01-17T14:27:26Z</time>
      </trkpt>
      <trkpt lat="49.3886" lon="1.1395">
        <ele>142</ele>
        <time>2017-01-17T14:27:26Z</time>
      </trkpt>
      <trkpt lat="49.38858" lon="1.1394">
        <ele>142</ele>
        <time>2017-01-17T14:27:26Z</time>
      </trkpt>
      <trkpt lat="49.38856" lon="1.1393">
        <ele>142</ele>
        <time>2017-01-17T14:27:26Z</time>
      </trkpt>
      <trkpt lat="49.38854" lon="1.13925">
        <ele>142</ele>
        <time>2017-01-17T14:27:42Z</time>
      </trkpt>
      <trkpt lat="49.38851" lon="1.13919">
        <ele>142</ele>
        <time>2017-01-17T14:27:42Z</time>
      </trkpt>
      <trkpt lat="49.38848" lon="1.13914">
        <ele>142</ele>
        <time>2017-01-17T14:27:42Z</time>
      </trkpt>
      <trkpt lat="49.38845" lon="1.13907">
        <ele>142</ele>
        <time>2017-01-17T14:27:42Z</time>
      </trkpt>
      <trkpt lat="49.38847" lon="1.13896">
        <ele>142</ele>
        <time>2017-01-17T14:27:58Z</time>
      </trkpt>
      <trkpt lat="49.38848" lon="1.13889">
        <ele>142</ele>
        <time>2017-01-17T14:27:58Z</time>
      </trkpt>
      <trkpt lat="49.38846" lon="1.13883">
        <ele>142</ele>
        <time>2017-01-17T14:27:58Z</time>
      </trkpt>
      <trkpt lat="49.38845" lon="1.13877">
        <ele>142</ele>
        <time>2017-01-17T14:27:58Z</time>
      </trkpt>
      <trkpt lat="49.38843" lon="1.13871">
        <ele>141</ele>
        <time>2017-01-17T14:28:14Z</time>
      </trkpt>
      <trkpt lat="49.38841" lon="1.13866">
        <ele>141</ele>
        <time>2017-01-17T14:28:14Z</time>
      </trkpt>
      <trkpt lat="49.38839" lon="1.13857">
        <ele>141</ele>
        <time>2017-01-17T14:28:14Z</time>
      </trkpt>
      <trkpt lat="49.38836" lon="1.1385">
        <ele>141</ele>
        <time>2017-01-17T14:28:14Z</time>
      </trkpt>
      <trkpt lat="49.38833" lon="1.13842">
        <ele>141</ele>
        <time>2017-01-17T14:28:30Z</time>
      </trkpt>
      <trkpt lat="49.38831" lon="1.13834">
        <ele>141</ele>
        <time>2017-01-17T14:28:30Z</time>
      </trkpt>
      <trkpt lat="49.38829" lon="1.13827">
        <ele>141</ele>
        <time>2017-01-17T14:28:30Z</time>
      </trkpt>
      <trkpt lat="49.38827" lon="1.13822">
        <ele>141</ele>
        <time>2017-01-17T14:28:30Z</time>
      </trkpt>
      <trkpt lat="49.38825" lon="1.13815">
        <ele>141</ele>
        <time>2017-01-17T14:28:46Z</time>
      </trkpt>
      <trkpt lat="49.38826" lon="1.13808">
        <ele>141</ele>
        <time>2017-01-17T14:28:46Z</time>
      </trkpt>
      <trkpt lat="49.38824" lon="1.13801">
        <ele>141</ele>
        <time>2017-01-17T14:28:46Z</time>
      </trkpt>
      <trkpt lat="49.3882" lon="1.138">
        <ele>141</ele>
        <time>2017-01-17T14:28:46Z</time>
      </trkpt>
      <trkpt lat="49.38822" lon="1.13796">
        <ele>141</ele>
        <time>2017-01-17T14:29:18Z</time>
      </trkpt>
      <trkpt lat="49.38821" lon="1.13792">
        <ele>141</ele>
        <time>2017-01-17T14:29:18Z</time>
      </trkpt>
      <trkpt lat="49.38821" lon="1.13788">
        <ele>140</ele>
        <time>2017-01-17T14:29:18Z</time>
      </trkpt>
      <trkpt lat="49.38822" lon="1.13784">
        <ele>140</ele>
        <time>2017-01-17T14:29:18Z</time>
      </trkpt>
      <trkpt lat="49.38819" lon="1.13777">
        <ele>140</ele>
        <time>2017-01-17T14:29:18Z</time>
      </trkpt>
      <trkpt lat="49.38817" lon="1.13773">
        <ele>140</ele>
        <time>2017-01-17T14:29:34Z</time>
      </trkpt>
      <trkpt lat="49.38815" lon="1.13766">
        <ele>140</ele>
        <time>2017-01-17T14:29:34Z</time>
      </trkpt>
      <trkpt lat="49.38812" lon="1.13761">
        <ele>140</ele>
        <time>2017-01-17T14:29:34Z</time>
      </trkpt>
      <trkpt lat="49.38809" lon="1.13756">
        <ele>140</ele>
        <time>2017-01-17T14:29:34Z</time>
      </trkpt>
      <trkpt lat="49.38805" lon="1.13752">
        <ele>140</ele>
        <time>2017-01-17T14:29:50Z</time>
      </trkpt>
      <trkpt lat="49.38801" lon="1.13748">
        <ele>140</ele>
        <time>2017-01-17T14:29:50Z</time>
      </trkpt>
      <trkpt lat="49.388" lon="1.1374">
        <ele>140</ele>
        <time>2017-01-17T14:29:50Z</time>
      </trkpt>
      <trkpt lat="49.38798" lon="1.13735">
        <ele>140</ele>
        <time>2017-01-17T14:29:50Z</time>
      </trkpt>
      <trkpt lat="49.38795" lon="1.1373">
        <ele>140</ele>
        <time>2017-01-17T14:30:06Z</time>
      </trkpt>
      <trkpt lat="49.38792" lon="1.13726">
        <ele>138</ele>
        <time>2017-01-17T14:30:06Z</time>
      </trkpt>
      <trkpt lat="49.38789" lon="1.13723">
        <ele>138</ele>
        <time>2017-01-17T14:30:06Z</time>
      </trkpt>
      <trkpt lat="49.38786" lon="1.1372">
        <ele>138</ele>
        <time>2017-01-17T14:30:06Z</time>
      </trkpt>
      <trkpt lat="49.38781" lon="1.13718">
        <ele>138</ele>
        <time>2017-01-17T14:30:22Z</time>
      </trkpt>
      <trkpt lat="49.38777" lon="1.13717">
        <ele>138</ele>
        <time>2017-01-17T14:30:22Z</time>
      </trkpt>
      <trkpt lat="49.38773" lon="1.13718">
        <ele>138</ele>
        <time>2017-01-17T14:30:22Z</time>
      </trkpt>
      <trkpt lat="49.38768" lon="1.13718">
        <ele>138</ele>
        <time>2017-01-17T14:30:22Z</time>
      </trkpt>
      <trkpt lat="49.38764" lon="1.13716">
        <ele>138</ele>
        <time>2017-01-17T14:30:38Z</time>
      </trkpt>
      <trkpt lat="49.38759" lon="1.13715">
        <ele>138</ele>
        <time>2017-01-17T14:30:38Z</time>
      </trkpt>
      <trkpt lat="49.38755" lon="1.13713">
        <ele>138</ele>
        <time>2017-01-17T14:30:38Z</time>
      </trkpt>
      <trkpt lat="49.3875" lon="1.1371">
        <ele>138</ele>
        <time>2017-01-17T14:30:38Z</time>
      </trkpt>
      <trkpt lat="49.38745" lon="1.13706">
        <ele>132</ele>
        <time>2017-01-17T14:30:54Z</time>
      </trkpt>
      <trkpt lat="49.3874" lon="1.13705">
        <ele>132</ele>
        <time>2017-01-17T14:30:54Z</time>
      </trkpt>
      <trkpt lat="49.38735" lon="1.13704">
        <ele>132</ele>
        <time>2017-01-17T14:30:54Z</time>
      </trkpt>
      <trkpt lat="49.38729" lon="1.13701">
        <ele>132</ele>
        <time>2017-01-17T14:30:54Z</time>
      </trkpt>
      <trkpt lat="49.38724" lon="1.137">
        <ele>132</ele>
        <time>2017-01-17T14:31:10Z</time>
      </trkpt>
      <trkpt lat="49.38719" lon="1.13697">
        <ele>132</ele>
        <time>2017-01-17T14:31:10Z</time>
      </trkpt>
      <trkpt lat="49.38714" lon="1.13697">
        <ele>132</ele>
        <time>2017-01-17T14:31:10Z</time>
      </trkpt>
      <trkpt lat="49.38708" lon="1.13695">
        <ele>134</ele>
        <time>2017-01-17T14:31:10Z</time>
      </trkpt>
      <trkpt lat="49.38703" lon="1.13693">
        <ele>134</ele>
        <time>2017-01-17T14:31:26Z</time>
      </trkpt>
      <trkpt lat="49.38698" lon="1.13691">
        <ele>134</ele>
        <time>2017-01-17T14:31:26Z</time>
      </trkpt>
      <trkpt lat="49.38693" lon="1.13689">
        <ele>134</ele>
        <time>2017-01-17T14:31:26Z</time>
      </trkpt>
      <trkpt lat="49.38688" lon="1.13687">
        <ele>134</ele>
        <time>2017-01-17T14:31:26Z</time>
      </trkpt>
      <trkpt lat="49.38685" lon="1.13685">
        <ele>134</ele>
        <time>2017-01-17T14:31:42Z</time>
      </trkpt>
      <trkpt lat="49.38681" lon="1.13682">
        <ele>134</ele>
        <time>2017-01-17T14:31:42Z</time>
      </trkpt>
      <trkpt lat="49.38677" lon="1.1368">
        <ele>134</ele>
        <time>2017-01-17T14:31:42Z</time>
      </trkpt>
      <trkpt lat="49.38673" lon="1.13679">
        <ele>134</ele>
        <time>2017-01-17T14:31:42Z</time>
      </trkpt>
      <trkpt lat="49.38668" lon="1.13678">
        <ele>134</ele>
        <time>2017-01-17T14:31:58Z</time>
      </trkpt>
      <trkpt lat="49.38663" lon="1.13676">
        <ele>134</ele>
        <time>2017-01-17T14:31:58Z</time>
      </trkpt>
      <trkpt lat="49.38657" lon="1.13674">
        <ele>134</ele>
        <time>2017-01-17T14:31:58Z</time>
      </trkpt>
      <trkpt lat="49.38653" lon="1.13673">
        <ele>134</ele>
        <time>2017-01-17T14:31:58Z</time>
      </trkpt>
      <trkpt lat="49.38651" lon="1.13671">
        <ele>134</ele>
        <time>2017-01-17T14:32:14Z</time>
      </trkpt>
      <trkpt lat="49.38645" lon="1.13668">
        <ele>134</ele>
        <time>2017-01-17T14:32:14Z</time>
      </trkpt>
      <trkpt lat="49.38638" lon="1.13664">
        <ele>134</ele>
        <time>2017-01-17T14:32:14Z</time>
      </trkpt>
      <trkpt lat="49.38634" lon="1.13662">
        <ele>134</ele>
        <time>2017-01-17T14:32:14Z</time>
      </trkpt>
      <trkpt lat="49.38629" lon="1.1366">
        <ele>134</ele>
        <time>2017-01-17T14:32:30Z</time>
      </trkpt>
      <trkpt lat="49.38624" lon="1.13657">
        <ele>136</ele>
        <time>2017-01-17T14:32:30Z</time>
      </trkpt>
      <trkpt lat="49.38623" lon="1.13648">
        <ele>136</ele>
        <time>2017-01-17T14:32:30Z</time>
      </trkpt>
      <trkpt lat="49.38622" lon="1.13642">
        <ele>136</ele>
        <time>2017-01-17T14:32:30Z</time>
      </trkpt>
      <trkpt lat="49.38618" lon="1.13637">
        <ele>136</ele>
        <time>2017-01-17T14:32:46Z</time>
      </trkpt>
      <trkpt lat="49.38614" lon="1.13634">
        <ele>136</ele>
        <time>2017-01-17T14:32:46Z</time>
      </trkpt>
      <trkpt lat="49.3861" lon="1.13631">
        <ele>136</ele>
        <time>2017-01-17T14:32:46Z</time>
      </trkpt>
      <trkpt lat="49.38605" lon="1.13629">
        <ele>136</ele>
        <time>2017-01-17T14:32:46Z</time>
      </trkpt>
      <trkpt lat="49.38603" lon="1.1362">
        <ele>132</ele>
        <time>2017-01-17T14:33:02Z</time>
      </trkpt>
      <trkpt lat="49.386" lon="1.13611">
        <ele>132</ele>
        <time>2017-01-17T14:33:02Z</time>
      </trkpt>
      <trkpt lat="49.38597" lon="1.13607">
        <ele>132</ele>
        <time>2017-01-17T14:33:02Z</time>
      </trkpt>
      <trkpt lat="49.38592" lon="1.13604">
        <ele>132</ele>
        <time>2017-01-17T14:33:02Z</time>
      </trkpt>
      <trkpt lat="49.38588" lon="1.13603">
        <ele>132</ele>
        <time>2017-01-17T14:33:22Z</time>
      </trkpt>
      <trkpt lat="49.38584" lon="1.13602">
        <ele>132</ele>
        <time>2017-01-17T14:33:22Z</time>
      </trkpt>
      <trkpt lat="49.38582" lon="1.13602">
        <ele>132</ele>
        <time>2017-01-17T14:33:22Z</time>
      </trkpt>
      <trkpt lat="49.38579" lon="1.136">
        <ele>132</ele>
        <time>2017-01-17T14:33:23Z</time>
      </trkpt>
      <trkpt lat="49.38576" lon="1.13592">
        <ele>132</ele>
        <time>2017-01-17T14:33:23Z</time>
      </trkpt>
      <trkpt lat="49.38586" lon="1.13574">
        <ele>132</ele>
        <time>2017-01-17T14:38:18Z</time>
      </trkpt>
      <trkpt lat="49.38586" lon="1.13574">
        <ele>132</ele>
        <time>2017-01-17T14:38:18Z</time>
      </trkpt>
      <trkpt lat="49.38586" lon="1.13573">
        <ele>132</ele>
        <time>2017-01-17T14:38:18Z</time>
      </trkpt>
      <trkpt lat="49.38586" lon="1.13573">
        <ele>132</ele>
        <time>2017-01-17T14:38:18Z</time>
      </trkpt>
      <trkpt lat="49.38586" lon="1.13573">
        <ele>132</ele>
        <time>2017-01-17T14:38:18Z</time>
      </trkpt>
      <trkpt lat="49.38586" lon="1.13573">
        <ele>132</ele>
        <time>2017-01-17T14:38:38Z</time>
      </trkpt>
      <trkpt lat="49.38586" lon="1.13572">
        <ele>132</ele>
        <time>2017-01-17T14:38:38Z</time>
      </trkpt>
      <trkpt lat="49.38582" lon="1.13572">
        <ele>132</ele>
        <time>2017-01-17T14:38:38Z</time>
      </trkpt>
      <trkpt lat="49.38577" lon="1.13573">
        <ele>132</ele>
        <time>2017-01-17T14:38:38Z</time>
      </trkpt>
      <trkpt lat="49.38575" lon="1.13577">
        <ele>132</ele>
        <time>2017-01-17T14:38:38Z</time>
      </trkpt>
      <trkpt lat="49.38572" lon="1.1358">
        <ele>132</ele>
        <time>2017-01-17T14:39:54Z</time>
      </trkpt>
      <trkpt lat="49.38577" lon="1.13579">
        <ele>132</ele>
        <time>2017-01-17T14:39:54Z</time>
      </trkpt>
      <trkpt lat="49.38579" lon="1.13572">
        <ele>132</ele>
        <time>2017-01-17T14:39:54Z</time>
      </trkpt>
      <trkpt lat="49.38583" lon="1.13566">
        <ele>132</ele>
        <time>2017-01-17T14:39:54Z</time>
      </trkpt>
      <trkpt lat="49.38583" lon="1.13565">
        <ele>132</ele>
        <time>2017-01-17T14:39:54Z</time>
      </trkpt>
      <trkpt lat="49.38583" lon="1.13565">
        <ele>132</ele>
        <time>2017-01-17T14:40:10Z</time>
      </trkpt>
      <trkpt lat="49.38583" lon="1.13566">
        <ele>132</ele>
        <time>2017-01-17T14:40:10Z</time>
      </trkpt>
      <trkpt lat="49.38581" lon="1.13571">
        <ele>132</ele>
        <time>2017-01-17T14:40:10Z</time>
      </trkpt>
      <trkpt lat="49.3858" lon="1.13579">
        <ele>132</ele>
        <time>2017-01-17T14:40:10Z</time>
      </trkpt>
      <trkpt lat="49.38577" lon="1.13587">
        <ele>132</ele>
        <time>2017-01-17T14:40:26Z</time>
      </trkpt>
      <trkpt lat="49.38573" lon="1.13592">
        <ele>132</ele>
        <time>2017-01-17T14:40:26Z</time>
      </trkpt>
      <trkpt lat="49.38568" lon="1.13582">
        <ele>132</ele>
        <time>2017-01-17T14:40:26Z</time>
      </trkpt>
      <trkpt lat="49.38567" lon="1.13576">
        <ele>132</ele>
        <time>2017-01-17T14:40:26Z</time>
      </trkpt>
      <trkpt lat="49.38567" lon="1.13569">
        <ele>132</ele>
        <time>2017-01-17T14:40:46Z</time>
      </trkpt>
      <trkpt lat="49.38568" lon="1.13568">
        <ele>132</ele>
        <time>2017-01-17T14:40:46Z</time>
      </trkpt>
      <trkpt lat="49.38568" lon="1.13564">
        <ele>132</ele>
        <time>2017-01-17T14:40:46Z</time>
      </trkpt>
      <trkpt lat="49.38565" lon="1.13561">
        <ele>132</ele>
        <time>2017-01-17T14:40:46Z</time>
      </trkpt>
      <trkpt lat="49.38559" lon="1.13558">
        <ele>132</ele>
        <time>2017-01-17T14:40:46Z</time>
      </trkpt>
      <trkpt lat="49.38554" lon="1.13555">
        <ele>132</ele>
        <time>2017-01-17T14:41:02Z</time>
      </trkpt>
      <trkpt lat="49.3855" lon="1.13553">
        <ele>132</ele>
        <time>2017-01-17T14:41:02Z</time>
      </trkpt>
      <trkpt lat="49.38546" lon="1.13552">
        <ele>132</ele>
        <time>2017-01-17T14:41:02Z</time>
      </trkpt>
      <trkpt lat="49.38542" lon="1.1355">
        <ele>133</ele>
        <time>2017-01-17T14:41:02Z</time>
      </trkpt>
      <trkpt lat="49.38537" lon="1.13548">
        <ele>133</ele>
        <time>2017-01-17T14:41:18Z</time>
      </trkpt>
      <trkpt lat="49.38535" lon="1.13542">
        <ele>133</ele>
        <time>2017-01-17T14:41:18Z</time>
      </trkpt>
      <trkpt lat="49.3853" lon="1.13536">
        <ele>132</ele>
        <time>2017-01-17T14:41:18Z</time>
      </trkpt>
      <trkpt lat="49.38525" lon="1.13532">
        <ele>132</ele>
        <time>2017-01-17T14:41:18Z</time>
      </trkpt>
      <trkpt lat="49.38521" lon="1.13529">
        <ele>132</ele>
        <time>2017-01-17T14:41:34Z</time>
      </trkpt>
      <trkpt lat="49.38517" lon="1.13524">
        <ele>132</ele>
        <time>2017-01-17T14:41:34Z</time>
      </trkpt>
      <trkpt lat="49.38513" lon="1.13522">
        <ele>132</ele>
        <time>2017-01-17T14:41:34Z</time>
      </trkpt>
      <trkpt lat="49.38508" lon="1.13521">
        <ele>132</ele>
        <time>2017-01-17T14:41:34Z</time>
      </trkpt>
      <trkpt lat="49.38503" lon="1.1352">
        <ele>132</ele>
        <time>2017-01-17T14:41:50Z</time>
      </trkpt>
      <trkpt lat="49.38499" lon="1.1352">
        <ele>132</ele>
        <time>2017-01-17T14:41:50Z</time>
      </trkpt>
      <trkpt lat="49.38494" lon="1.13521">
        <ele>132</ele>
        <time>2017-01-17T14:41:50Z</time>
      </trkpt>
      <trkpt lat="49.38489" lon="1.13521">
        <ele>132</ele>
        <time>2017-01-17T14:41:50Z</time>
      </trkpt>
      <trkpt lat="49.38485" lon="1.1352">
        <ele>132</ele>
        <time>2017-01-17T14:42:06Z</time>
      </trkpt>
      <trkpt lat="49.3848" lon="1.1352">
        <ele>132</ele>
        <time>2017-01-17T14:42:06Z</time>
      </trkpt>
      <trkpt lat="49.38475" lon="1.13519">
        <ele>132</ele>
        <time>2017-01-17T14:42:06Z</time>
      </trkpt>
      <trkpt lat="49.3847" lon="1.13514">
        <ele>132</ele>
        <time>2017-01-17T14:42:06Z</time>
      </trkpt>
      <trkpt lat="49.38466" lon="1.13505">
        <ele>132</ele>
        <time>2017-01-17T14:42:22Z</time>
      </trkpt>
      <trkpt lat="49.38462" lon="1.13495">
        <ele>132</ele>
        <time>2017-01-17T14:42:22Z</time>
      </trkpt>
      <trkpt lat="49.3846" lon="1.13487">
        <ele>132</ele>
        <time>2017-01-17T14:42:22Z</time>
      </trkpt>
      <trkpt lat="49.38455" lon="1.13483">
        <ele>132</ele>
        <time>2017-01-17T14:42:22Z</time>
      </trkpt>
      <trkpt lat="49.38451" lon="1.13479">
        <ele>132</ele>
        <time>2017-01-17T14:42:38Z</time>
      </trkpt>
      <trkpt lat="49.38446" lon="1.13476">
        <ele>132</ele>
        <time>2017-01-17T14:42:38Z</time>
      </trkpt>
      <trkpt lat="49.38442" lon="1.13473">
        <ele>132</ele>
        <time>2017-01-17T14:42:38Z</time>
      </trkpt>
      <trkpt lat="49.38438" lon="1.13471">
        <ele>132</ele>
        <time>2017-01-17T14:42:38Z</time>
      </trkpt>
      <trkpt lat="49.38433" lon="1.13469">
        <ele>132</ele>
        <time>2017-01-17T14:42:54Z</time>
      </trkpt>
      <trkpt lat="49.38429" lon="1.13468">
        <ele>132</ele>
        <time>2017-01-17T14:42:54Z</time>
      </trkpt>
      <trkpt lat="49.38424" lon="1.13466">
        <ele>132</ele>
        <time>2017-01-17T14:42:54Z</time>
      </trkpt>
      <trkpt lat="49.3842" lon="1.13463">
        <ele>132</ele>
        <time>2017-01-17T14:42:54Z</time>
      </trkpt>
      <trkpt lat="49.38415" lon="1.13459">
        <ele>132</ele>
        <time>2017-01-17T14:43:10Z</time>
      </trkpt>
      <trkpt lat="49.38412" lon="1.13451">
        <ele>130</ele>
        <time>2017-01-17T14:43:10Z</time>
      </trkpt>
      <trkpt lat="49.38408" lon="1.13443">
        <ele>130</ele>
        <time>2017-01-17T14:43:10Z</time>
      </trkpt>
      <trkpt lat="49.38403" lon="1.13437">
        <ele>130</ele>
        <time>2017-01-17T14:43:10Z</time>
      </trkpt>
      <trkpt lat="49.38399" lon="1.13432">
        <ele>130</ele>
        <time>2017-01-17T14:43:26Z</time>
      </trkpt>
      <trkpt lat="49.38395" lon="1.13427">
        <ele>130</ele>
        <time>2017-01-17T14:43:26Z</time>
      </trkpt>
      <trkpt lat="49.38391" lon="1.13423">
        <ele>130</ele>
        <time>2017-01-17T14:43:26Z</time>
      </trkpt>
      <trkpt lat="49.38388" lon="1.13419">
        <ele>130</ele>
        <time>2017-01-17T14:43:26Z</time>
      </trkpt>
      <trkpt lat="49.38383" lon="1.13418">
        <ele>130</ele>
        <time>2017-01-17T14:43:42Z</time>
      </trkpt>
      <trkpt lat="49.38378" lon="1.13413">
        <ele>130</ele>
        <time>2017-01-17T14:43:42Z</time>
      </trkpt>
      <trkpt lat="49.38374" lon="1.13412">
        <ele>134</ele>
        <time>2017-01-17T14:43:42Z</time>
      </trkpt>
      <trkpt lat="49.3837" lon="1.1341">
        <ele>134</ele>
        <time>2017-01-17T14:43:42Z</time>
      </trkpt>
      <trkpt lat="49.38364" lon="1.13415">
        <ele>134</ele>
        <time>2017-01-17T14:44:10Z</time>
      </trkpt>
      <trkpt lat="49.38358" lon="1.13416">
        <ele>134</ele>
        <time>2017-01-17T14:44:10Z</time>
      </trkpt>
      <trkpt lat="49.38352" lon="1.13415">
        <ele>134</ele>
        <time>2017-01-17T14:44:10Z</time>
      </trkpt>
      <trkpt lat="49.38347" lon="1.13415">
        <ele>134</ele>
        <time>2017-01-17T14:44:10Z</time>
      </trkpt>
      <trkpt lat="49.38341" lon="1.13412">
        <ele>134</ele>
        <time>2017-01-17T14:44:10Z</time>
      </trkpt>
      <trkpt lat="49.38337" lon="1.1341">
        <ele>134</ele>
        <time>2017-01-17T14:44:26Z</time>
      </trkpt>
      <trkpt lat="49.38337" lon="1.13407">
        <ele>134</ele>
        <time>2017-01-17T14:44:26Z</time>
      </trkpt>
      <trkpt lat="49.38338" lon="1.13397">
        <ele>134</ele>
        <time>2017-01-17T14:44:26Z</time>
      </trkpt>
      <trkpt lat="49.38341" lon="1.13391">
        <ele>134</ele>
        <time>2017-01-17T14:44:26Z</time>
      </trkpt>
      <trkpt lat="49.38337" lon="1.13388">
        <ele>134</ele>
        <time>2017-01-17T14:44:43Z</time>
      </trkpt>
      <trkpt lat="49.38336" lon="1.13382">
        <ele>134</ele>
        <time>2017-01-17T14:44:43Z</time>
      </trkpt>
      <trkpt lat="49.38335" lon="1.13373">
        <ele>131</ele>
        <time>2017-01-17T14:44:43Z</time>
      </trkpt>
      <trkpt lat="49.38336" lon="1.13364">
        <ele>131</ele>
        <time>2017-01-17T14:44:43Z</time>
      </trkpt>
      <trkpt lat="49.38337" lon="1.13359">
        <ele>131</ele>
        <time>2017-01-17T14:44:58Z</time>
      </trkpt>
      <trkpt lat="49.38338" lon="1.13351">
        <ele>131</ele>
        <time>2017-01-17T14:44:58Z</time>
      </trkpt>
      <trkpt lat="49.3834" lon="1.13343">
        <ele>131</ele>
        <time>2017-01-17T14:44:58Z</time>
      </trkpt>
      <trkpt lat="49.38339" lon="1.13337">
        <ele>131</ele>
        <time>2017-01-17T14:44:58Z</time>
      </trkpt>
      <trkpt lat="49.38339" lon="1.13332">
        <ele>131</ele>
        <time>2017-01-17T14:45:14Z</time>
      </trkpt>
      <trkpt lat="49.38338" lon="1.13324">
        <ele>131</ele>
        <time>2017-01-17T14:45:14Z</time>
      </trkpt>
      <trkpt lat="49.38337" lon="1.13319">
        <ele>131</ele>
        <time>2017-01-17T14:45:14Z</time>
      </trkpt>
      <trkpt lat="49.38338" lon="1.13316">
        <ele>131</ele>
        <time>2017-01-17T14:45:14Z</time>
      </trkpt>
      <trkpt lat="49.3834" lon="1.1331">
        <ele>131</ele>
        <time>2017-01-17T14:45:30Z</time>
      </trkpt>
      <trkpt lat="49.38341" lon="1.13304">
        <ele>131</ele>
        <time>2017-01-17T14:45:30Z</time>
      </trkpt>
      <trkpt lat="49.38342" lon="1.13297">
        <ele>131</ele>
        <time>2017-01-17T14:45:30Z</time>
      </trkpt>
      <trkpt lat="49.38347" lon="1.13293">
        <ele>131</ele>
        <time>2017-01-17T14:45:30Z</time>
      </trkpt>
      <trkpt lat="49.38347" lon="1.13285">
        <ele>131</ele>
        <time>2017-01-17T14:45:46Z</time>
      </trkpt>
      <trkpt lat="49.38346" lon="1.13277">
        <ele>131</ele>
        <time>2017-01-17T14:45:46Z</time>
      </trkpt>
      <trkpt lat="49.38347" lon="1.1327">
        <ele>131</ele>
        <time>2017-01-17T14:45:46Z</time>
      </trkpt>
      <trkpt lat="49.38348" lon="1.13267">
        <ele>131</ele>
        <time>2017-01-17T14:45:46Z</time>
      </trkpt>
      <trkpt lat="49.38352" lon="1.1326">
        <ele>131</ele>
        <time>2017-01-17T14:46:02Z</time>
      </trkpt>
      <trkpt lat="49.38349" lon="1.13253">
        <ele>131</ele>
        <time>2017-01-17T14:46:02Z</time>
      </trkpt>
      <trkpt lat="49.38345" lon="1.13248">
        <ele>131</ele>
        <time>2017-01-17T14:46:02Z</time>
      </trkpt>
      <trkpt lat="49.38342" lon="1.13243">
        <ele>131</ele>
        <time>2017-01-17T14:46:02Z</time>
      </trkpt>
      <trkpt lat="49.38338" lon="1.13239">
        <ele>131</ele>
        <time>2017-01-17T14:46:18Z</time>
      </trkpt>
      <trkpt lat="49.38334" lon="1.13236">
        <ele>131</ele>
        <time>2017-01-17T14:46:18Z</time>
      </trkpt>
      <trkpt lat="49.38331" lon="1.13232">
        <ele>131</ele>
        <time>2017-01-17T14:46:18Z</time>
      </trkpt>
      <trkpt lat="49.38329" lon="1.13231">
        <ele>131</ele>
        <time>2017-01-17T14:46:18Z</time>
      </trkpt>
      <trkpt lat="49.38329" lon="1.13231">
        <ele>131</ele>
        <time>2017-01-17T14:46:34Z</time>
      </trkpt>
      <trkpt lat="49.38324" lon="1.13229">
        <ele>131</ele>
        <time>2017-01-17T14:46:34Z</time>
      </trkpt>
      <trkpt lat="49.38322" lon="1.13223">
        <ele>131</ele>
        <time>2017-01-17T14:46:34Z</time>
      </trkpt>
      <trkpt lat="49.3832" lon="1.13218">
        <ele>131</ele>
        <time>2017-01-17T14:46:34Z</time>
      </trkpt>
      <trkpt lat="49.38321" lon="1.13217">
        <ele>131</ele>
        <time>2017-01-17T14:47:46Z</time>
      </trkpt>
      <trkpt lat="49.38321" lon="1.13216">
        <ele>131</ele>
        <time>2017-01-17T14:47:46Z</time>
      </trkpt>
      <trkpt lat="49.38325" lon="1.13216">
        <ele>131</ele>
        <time>2017-01-17T14:47:46Z</time>
      </trkpt>
      <trkpt lat="49.38329" lon="1.13214">
        <ele>131</ele>
        <time>2017-01-17T14:47:46Z</time>
      </trkpt>
      <trkpt lat="49.38333" lon="1.13213">
        <ele>131</ele>
        <time>2017-01-17T14:47:46Z</time>
      </trkpt>
      <trkpt lat="49.38339" lon="1.13212">
        <ele>131</ele>
        <time>2017-01-17T14:49:30Z</time>
      </trkpt>
      <trkpt lat="49.38335" lon="1.13212">
        <ele>131</ele>
        <time>2017-01-17T14:49:30Z</time>
      </trkpt>
      <trkpt lat="49.38331" lon="1.13209">
        <ele>131</ele>
        <time>2017-01-17T14:49:30Z</time>
      </trkpt>
      <trkpt lat="49.38327" lon="1.13206">
        <ele>123</ele>
        <time>2017-01-17T14:49:30Z</time>
      </trkpt>
      <trkpt lat="49.38324" lon="1.13203">
        <ele>123</ele>
        <time>2017-01-17T14:49:30Z</time>
      </trkpt>
      <trkpt lat="49.38322" lon="1.13199">
        <ele>123</ele>
        <time>2017-01-17T14:49:46Z</time>
      </trkpt>
      <trkpt lat="49.38319" lon="1.13194">
        <ele>123</ele>
        <time>2017-01-17T14:49:46Z</time>
      </trkpt>
      <trkpt lat="49.38317" lon="1.1319">
        <ele>123</ele>
        <time>2017-01-17T14:49:46Z</time>
      </trkpt>
      <trkpt lat="49.38316" lon="1.13183">
        <ele>123</ele>
        <time>2017-01-17T14:49:46Z</time>
      </trkpt>
      <trkpt lat="49.38315" lon="1.13177">
        <ele>123</ele>
        <time>2017-01-17T14:50:02Z</time>
      </trkpt>
      <trkpt lat="49.38312" lon="1.1317">
        <ele>123</ele>
        <time>2017-01-17T14:50:02Z</time>
      </trkpt>
      <trkpt lat="49.3831" lon="1.13162">
        <ele>123</ele>
        <time>2017-01-17T14:50:02Z</time>
      </trkpt>
      <trkpt lat="49.38309" lon="1.13156">
        <ele>123</ele>
        <time>2017-01-17T14:50:02Z</time>
      </trkpt>
      <trkpt lat="49.38308" lon="1.13149">
        <ele>123</ele>
        <time>2017-01-17T14:50:18Z</time>
      </trkpt>
      <trkpt lat="49.38309" lon="1.13142">
        <ele>123</ele>
        <time>2017-01-17T14:50:18Z</time>
      </trkpt>
      <trkpt lat="49.3831" lon="1.13134">
        <ele>123</ele>
        <time>2017-01-17T14:50:18Z</time>
      </trkpt>
      <trkpt lat="49.38308" lon="1.13129">
        <ele>123</ele>
        <time>2017-01-17T14:50:18Z</time>
      </trkpt>
      <trkpt lat="49.38303" lon="1.1313">
        <ele>123</ele>
        <time>2017-01-17T14:50:34Z</time>
      </trkpt>
      <trkpt lat="49.383" lon="1.13133">
        <ele>123</ele>
        <time>2017-01-17T14:50:34Z</time>
      </trkpt>
      <trkpt lat="49.38296" lon="1.13138">
        <ele>123</ele>
        <time>2017-01-17T14:50:34Z</time>
      </trkpt>
      <trkpt lat="49.38292" lon="1.13142">
        <ele>123</ele>
        <time>2017-01-17T14:50:34Z</time>
      </trkpt>
      <trkpt lat="49.38288" lon="1.13147">
        <ele>103</ele>
        <time>2017-01-17T14:50:50Z</time>
      </trkpt>
      <trkpt lat="49.38286" lon="1.13153">
        <ele>103</ele>
        <time>2017-01-17T14:50:50Z</time>
      </trkpt>
      <trkpt lat="49.38289" lon="1.13166">
        <ele>103</ele>
        <time>2017-01-17T14:50:50Z</time>
      </trkpt>
      <trkpt lat="49.38292" lon="1.13174">
        <ele>123</ele>
        <time>2017-01-17T14:50:50Z</time>
      </trkpt>
      <trkpt lat="49.38294" lon="1.13182">
        <ele>123</ele>
        <time>2017-01-17T14:51:06Z</time>
      </trkpt>
      <trkpt lat="49.38294" lon="1.13189">
        <ele>123</ele>
        <time>2017-01-17T14:51:06Z</time>
      </trkpt>
      <trkpt lat="49.38293" lon="1.13196">
        <ele>123</ele>
        <time>2017-01-17T14:51:06Z</time>
      </trkpt>
      <trkpt lat="49.38293" lon="1.13203">
        <ele>123</ele>
        <time>2017-01-17T14:51:06Z</time>
      </trkpt>
      <trkpt lat="49.3829" lon="1.13204">
        <ele>103</ele>
        <time>2017-01-17T14:51:22Z</time>
      </trkpt>
      <trkpt lat="49.3829" lon="1.1321">
        <ele>120</ele>
        <time>2017-01-17T14:51:22Z</time>
      </trkpt>
      <trkpt lat="49.38289" lon="1.13217">
        <ele>120</ele>
        <time>2017-01-17T14:51:22Z</time>
      </trkpt>
      <trkpt lat="49.38287" lon="1.13223">
        <ele>120</ele>
        <time>2017-01-17T14:51:22Z</time>
      </trkpt>
      <trkpt lat="49.38286" lon="1.1323">
        <ele>120</ele>
        <time>2017-01-17T14:51:38Z</time>
      </trkpt>
      <trkpt lat="49.38284" lon="1.13236">
        <ele>120</ele>
        <time>2017-01-17T14:51:38Z</time>
      </trkpt>
      <trkpt lat="49.38283" lon="1.13242">
        <ele>120</ele>
        <time>2017-01-17T14:51:38Z</time>
      </trkpt>
      <trkpt lat="49.38282" lon="1.13249">
        <ele>120</ele>
        <time>2017-01-17T14:51:38Z</time>
      </trkpt>
      <trkpt lat="49.38282" lon="1.13256">
        <ele>120</ele>
        <time>2017-01-17T14:51:54Z</time>
      </trkpt>
      <trkpt lat="49.38282" lon="1.13263">
        <ele>120</ele>
        <time>2017-01-17T14:51:54Z</time>
      </trkpt>
      <trkpt lat="49.38282" lon="1.13269">
        <ele>120</ele>
        <time>2017-01-17T14:51:54Z</time>
      </trkpt>
      <trkpt lat="49.3828" lon="1.13275">
        <ele>120</ele>
        <time>2017-01-17T14:51:54Z</time>
      </trkpt>
      <trkpt lat="49.38279" lon="1.13277">
        <ele>120</ele>
        <time>2017-01-17T14:52:10Z</time>
      </trkpt>
      <trkpt lat="49.38273" lon="1.13273">
        <ele>120</ele>
        <time>2017-01-17T14:52:10Z</time>
      </trkpt>
      <trkpt lat="49.38266" lon="1.13271">
        <ele>120</ele>
        <time>2017-01-17T14:52:10Z</time>
      </trkpt>
      <trkpt lat="49.38261" lon="1.13272">
        <ele>120</ele>
        <time>2017-01-17T14:52:10Z</time>
      </trkpt>
      <trkpt lat="49.38259" lon="1.13263">
        <ele>120</ele>
        <time>2017-01-17T14:52:26Z</time>
      </trkpt>
      <trkpt lat="49.38256" lon="1.13256">
        <ele>120</ele>
        <time>2017-01-17T14:52:26Z</time>
      </trkpt>
      <trkpt lat="49.38256" lon="1.13247">
        <ele>120</ele>
        <time>2017-01-17T14:52:26Z</time>
      </trkpt>
      <trkpt lat="49.38258" lon="1.1324">
        <ele>120</ele>
        <time>2017-01-17T14:52:26Z</time>
      </trkpt>
      <trkpt lat="49.38261" lon="1.13234">
        <ele>120</ele>
        <time>2017-01-17T14:52:42Z</time>
      </trkpt>
      <trkpt lat="49.38258" lon="1.13224">
        <ele>120</ele>
        <time>2017-01-17T14:52:42Z</time>
      </trkpt>
      <trkpt lat="49.38258" lon="1.13217">
        <ele>120</ele>
        <time>2017-01-17T14:52:42Z</time>
      </trkpt>
      <trkpt lat="49.38254" lon="1.13206">
        <ele>103</ele>
        <time>2017-01-17T14:52:42Z</time>
      </trkpt>
      <trkpt lat="49.38253" lon="1.13193">
        <ele>103</ele>
        <time>2017-01-17T14:52:58Z</time>
      </trkpt>
      <trkpt lat="49.38251" lon="1.13188">
        <ele>103</ele>
        <time>2017-01-17T14:52:58Z</time>
      </trkpt>
      <trkpt lat="49.38248" lon="1.13184">
        <ele>103</ele>
        <time>2017-01-17T14:52:58Z</time>
      </trkpt>
      <trkpt lat="49.38241" lon="1.13191">
        <ele>103</ele>
        <time>2017-01-17T14:52:58Z</time>
      </trkpt>
      <trkpt lat="49.38235" lon="1.13194">
        <ele>103</ele>
        <time>2017-01-17T14:53:42Z</time>
      </trkpt>
      <trkpt lat="49.38239" lon="1.1319">
        <ele>103</ele>
        <time>2017-01-17T14:53:42Z</time>
      </trkpt>
      <trkpt lat="49.38238" lon="1.1319">
        <ele>103</ele>
        <time>2017-01-17T14:53:42Z</time>
      </trkpt>
      <trkpt lat="49.38233" lon="1.13187">
        <ele>103</ele>
        <time>2017-01-17T14:53:42Z</time>
      </trkpt>
      <trkpt lat="49.38229" lon="1.13179">
        <ele>103</ele>
        <time>2017-01-17T14:53:42Z</time>
      </trkpt>
      <trkpt lat="49.38229" lon="1.13171">
        <ele>103</ele>
        <time>2017-01-17T14:53:58Z</time>
      </trkpt>
      <trkpt lat="49.38235" lon="1.13171">
        <ele>103</ele>
        <time>2017-01-17T14:53:58Z</time>
      </trkpt>
      <trkpt lat="49.38235" lon="1.13159">
        <ele>103</ele>
        <time>2017-01-17T14:53:58Z</time>
      </trkpt>
      <trkpt lat="49.38234" lon="1.13151">
        <ele>103</ele>
        <time>2017-01-17T14:53:58Z</time>
      </trkpt>
      <trkpt lat="49.38233" lon="1.13144">
        <ele>103</ele>
        <time>2017-01-17T14:54:14Z</time>
      </trkpt>
      <trkpt lat="49.38233" lon="1.13137">
        <ele>103</ele>
        <time>2017-01-17T14:54:14Z</time>
      </trkpt>
      <trkpt lat="49.38235" lon="1.1313">
        <ele>103</ele>
        <time>2017-01-17T14:54:14Z</time>
      </trkpt>
      <trkpt lat="49.38236" lon="1.13124">
        <ele>87</ele>
        <time>2017-01-17T14:54:14Z</time>
      </trkpt>
      <trkpt lat="49.38236" lon="1.13123">
        <ele>87</ele>
        <time>2017-01-17T14:54:30Z</time>
      </trkpt>
      <trkpt lat="49.38233" lon="1.13126">
        <ele>103</ele>
        <time>2017-01-17T14:54:30Z</time>
      </trkpt>
      <trkpt lat="49.38232" lon="1.13118">
        <ele>87</ele>
        <time>2017-01-17T14:54:30Z</time>
      </trkpt>
      <trkpt lat="49.38232" lon="1.1311">
        <ele>87</ele>
        <time>2017-01-17T14:54:30Z</time>
      </trkpt>
      <trkpt lat="49.38242" lon="1.13102">
        <ele>87</ele>
        <time>2017-01-17T14:55:34Z</time>
      </trkpt>
      <trkpt lat="49.38242" lon="1.13101">
        <ele>87</ele>
        <time>2017-01-17T14:55:34Z</time>
      </trkpt>
      <trkpt lat="49.38244" lon="1.13098">
        <ele>87</ele>
        <time>2017-01-17T14:55:34Z</time>
      </trkpt>
      <trkpt lat="49.38246" lon="1.1309">
        <ele>87</ele>
        <time>2017-01-17T14:55:34Z</time>
      </trkpt>
      <trkpt lat="49.38243" lon="1.13083">
        <ele>87</ele>
        <time>2017-01-17T14:55:34Z</time>
      </trkpt>
      <trkpt lat="49.3824" lon="1.13076">
        <ele>87</ele>
        <time>2017-01-17T14:55:50Z</time>
      </trkpt>
      <trkpt lat="49.38239" lon="1.1307">
        <ele>87</ele>
        <time>2017-01-17T14:55:50Z</time>
      </trkpt>
      <trkpt lat="49.38236" lon="1.13064">
        <ele>87</ele>
        <time>2017-01-17T14:55:50Z</time>
      </trkpt>
      <trkpt lat="49.38232" lon="1.13059">
        <ele>87</ele>
        <time>2017-01-17T14:55:50Z</time>
      </trkpt>
      <trkpt lat="49.38229" lon="1.13054">
        <ele>87</ele>
        <time>2017-01-17T14:56:06Z</time>
      </trkpt>
      <trkpt lat="49.38232" lon="1.1306">
        <ele>87</ele>
        <time>2017-01-17T14:56:06Z</time>
      </trkpt>
      <trkpt lat="49.38241" lon="1.13051">
        <ele>87</ele>
        <time>2017-01-17T14:56:06Z</time>
      </trkpt>
      <trkpt lat="49.38246" lon="1.13039">
        <ele>75</ele>
        <time>2017-01-17T14:56:06Z</time>
      </trkpt>
      <trkpt lat="49.38245" lon="1.13034">
        <ele>75</ele>
        <time>2017-01-17T14:56:22Z</time>
      </trkpt>
      <trkpt lat="49.38245" lon="1.13031">
        <ele>75</ele>
        <time>2017-01-17T14:56:22Z</time>
      </trkpt>
      <trkpt lat="49.38247" lon="1.13024">
        <ele>75</ele>
        <time>2017-01-17T14:56:22Z</time>
      </trkpt>
      <trkpt lat="49.38247" lon="1.13016">
        <ele>75</ele>
        <time>2017-01-17T14:56:22Z</time>
      </trkpt>
      <trkpt lat="49.38246" lon="1.13009">
        <ele>75</ele>
        <time>2017-01-17T14:56:38Z</time>
      </trkpt>
      <trkpt lat="49.38245" lon="1.13003">
        <ele>75</ele>
        <time>2017-01-17T14:56:38Z</time>
      </trkpt>
      <trkpt lat="49.38243" lon="1.12997">
        <ele>75</ele>
        <time>2017-01-17T14:56:38Z</time>
      </trkpt>
      <trkpt lat="49.38242" lon="1.12991">
        <ele>75</ele>
        <time>2017-01-17T14:56:38Z</time>
      </trkpt>
      <trkpt lat="49.38242" lon="1.12984">
        <ele>75</ele>
        <time>2017-01-17T14:56:54Z</time>
      </trkpt>
      <trkpt lat="49.3824" lon="1.1298">
        <ele>75</ele>
        <time>2017-01-17T14:56:54Z</time>
      </trkpt>
      <trkpt lat="49.38245" lon="1.12982">
        <ele>75</ele>
        <time>2017-01-17T14:56:54Z</time>
      </trkpt>
      <trkpt lat="49.38252" lon="1.12979">
        <ele>75</ele>
        <time>2017-01-17T14:56:54Z</time>
      </trkpt>
      <trkpt lat="49.38257" lon="1.12976">
        <ele>75</ele>
        <time>2017-01-17T14:57:10Z</time>
      </trkpt>
      <trkpt lat="49.38261" lon="1.1297">
        <ele>75</ele>
        <time>2017-01-17T14:57:10Z</time>
      </trkpt>
      <trkpt lat="49.38267" lon="1.12966">
        <ele>75</ele>
        <time>2017-01-17T14:57:10Z</time>
      </trkpt>
      <trkpt lat="49.38272" lon="1.1296">
        <ele>75</ele>
        <time>2017-01-17T14:57:10Z</time>
      </trkpt>
      <trkpt lat="49.38277" lon="1.12954">
        <ele>73</ele>
        <time>2017-01-17T14:57:26Z</time>
      </trkpt>
      <trkpt lat="49.38283" lon="1.12949">
        <ele>73</ele>
        <time>2017-01-17T14:57:26Z</time>
      </trkpt>
      <trkpt lat="49.38287" lon="1.12946">
        <ele>73</ele>
        <time>2017-01-17T14:57:26Z</time>
      </trkpt>
      <trkpt lat="49.38289" lon="1.12943">
        <ele>73</ele>
        <time>2017-01-17T14:57:26Z</time>
      </trkpt>
      <trkpt lat="49.38292" lon="1.12937">
        <ele>63</ele>
        <time>2017-01-17T14:57:42Z</time>
      </trkpt>
      <trkpt lat="49.38295" lon="1.12931">
        <ele>63</ele>
        <time>2017-01-17T14:57:42Z</time>
      </trkpt>
      <trkpt lat="49.38299" lon="1.12925">
        <ele>63</ele>
        <time>2017-01-17T14:57:42Z</time>
      </trkpt>
      <trkpt lat="49.38303" lon="1.12922">
        <ele>63</ele>
        <time>2017-01-17T14:57:42Z</time>
      </trkpt>
      <trkpt lat="49.38307" lon="1.12918">
        <ele>63</ele>
        <time>2017-01-17T14:57:58Z</time>
      </trkpt>
      <trkpt lat="49.3831" lon="1.12911">
        <ele>63</ele>
        <time>2017-01-17T14:57:58Z</time>
      </trkpt>
      <trkpt lat="49.38311" lon="1.12906">
        <ele>63</ele>
        <time>2017-01-17T14:57:58Z</time>
      </trkpt>
      <trkpt lat="49.38313" lon="1.12899">
        <ele>63</ele>
        <time>2017-01-17T14:57:58Z</time>
      </trkpt>
      <trkpt lat="49.38316" lon="1.12893">
        <ele>63</ele>
        <time>2017-01-17T14:58:14Z</time>
      </trkpt>
      <trkpt lat="49.3832" lon="1.12885">
        <ele>63</ele>
        <time>2017-01-17T14:58:14Z</time>
      </trkpt>
      <trkpt lat="49.38324" lon="1.12879">
        <ele>63</ele>
        <time>2017-01-17T14:58:14Z</time>
      </trkpt>
      <trkpt lat="49.38327" lon="1.12876">
        <ele>63</ele>
        <time>2017-01-17T14:58:14Z</time>
      </trkpt>
      <trkpt lat="49.38331" lon="1.12873">
        <ele>57</ele>
        <time>2017-01-17T14:58:30Z</time>
      </trkpt>
      <trkpt lat="49.38335" lon="1.12866">
        <ele>57</ele>
        <time>2017-01-17T14:58:30Z</time>
      </trkpt>
      <trkpt lat="49.38337" lon="1.12861">
        <ele>57</ele>
        <time>2017-01-17T14:58:30Z</time>
      </trkpt>
      <trkpt lat="49.38341" lon="1.12858">
        <ele>57</ele>
        <time>2017-01-17T14:58:30Z</time>
      </trkpt>
      <trkpt lat="49.38345" lon="1.12854">
        <ele>57</ele>
        <time>2017-01-17T14:58:46Z</time>
      </trkpt>
      <trkpt lat="49.38347" lon="1.12849">
        <ele>57</ele>
        <time>2017-01-17T14:58:46Z</time>
      </trkpt>
      <trkpt lat="49.38349" lon="1.12847">
        <ele>57</ele>
        <time>2017-01-17T14:58:46Z</time>
      </trkpt>
      <trkpt lat="49.38352" lon="1.12843">
        <ele>57</ele>
        <time>2017-01-17T14:58:46Z</time>
      </trkpt>
      <trkpt lat="49.38356" lon="1.12838">
        <ele>57</ele>
        <time>2017-01-17T14:59:02Z</time>
      </trkpt>
      <trkpt lat="49.38359" lon="1.12835">
        <ele>57</ele>
        <time>2017-01-17T14:59:02Z</time>
      </trkpt>
      <trkpt lat="49.38362" lon="1.12831">
        <ele>57</ele>
        <time>2017-01-17T14:59:02Z</time>
      </trkpt>
      <trkpt lat="49.38369" lon="1.12829">
        <ele>57</ele>
        <time>2017-01-17T14:59:02Z</time>
      </trkpt>
      <trkpt lat="49.38374" lon="1.12826">
        <ele>57</ele>
        <time>2017-01-17T14:59:18Z</time>
      </trkpt>
      <trkpt lat="49.38376" lon="1.12822">
        <ele>54</ele>
        <time>2017-01-17T14:59:18Z</time>
      </trkpt>
      <trkpt lat="49.38379" lon="1.12817">
        <ele>54</ele>
        <time>2017-01-17T14:59:18Z</time>
      </trkpt>
      <trkpt lat="49.38384" lon="1.12812">
        <ele>54</ele>
        <time>2017-01-17T14:59:18Z</time>
      </trkpt>
      <trkpt lat="49.38387" lon="1.12809">
        <ele>54</ele>
        <time>2017-01-17T14:59:34Z</time>
      </trkpt>
      <trkpt lat="49.38391" lon="1.12805">
        <ele>54</ele>
        <time>2017-01-17T14:59:34Z</time>
      </trkpt>
      <trkpt lat="49.38395" lon="1.128">
        <ele>54</ele>
        <time>2017-01-17T14:59:34Z</time>
      </trkpt>
      <trkpt lat="49.384" lon="1.12798">
        <ele>54</ele>
        <time>2017-01-17T14:59:34Z</time>
      </trkpt>
      <trkpt lat="49.38404" lon="1.12794">
        <ele>54</ele>
        <time>2017-01-17T14:59:50Z</time>
      </trkpt>
      <trkpt lat="49.38408" lon="1.12792">
        <ele>42</ele>
        <time>2017-01-17T14:59:50Z</time>
      </trkpt>
      <trkpt lat="49.38411" lon="1.12789">
        <ele>42</ele>
        <time>2017-01-17T14:59:50Z</time>
      </trkpt>
      <trkpt lat="49.38415" lon="1.12784">
        <ele>42</ele>
        <time>2017-01-17T14:59:50Z</time>
      </trkpt>
      <trkpt lat="49.38419" lon="1.12779">
        <ele>42</ele>
        <time>2017-01-17T15:00:06Z</time>
      </trkpt>
      <trkpt lat="49.38423" lon="1.12776">
        <ele>42</ele>
        <time>2017-01-17T15:00:06Z</time>
      </trkpt>
      <trkpt lat="49.38425" lon="1.12772">
        <ele>42</ele>
        <time>2017-01-17T15:00:06Z</time>
      </trkpt>
      <trkpt lat="49.38429" lon="1.12767">
        <ele>42</ele>
        <time>2017-01-17T15:00:06Z</time>
      </trkpt>
      <trkpt lat="49.38433" lon="1.12762">
        <ele>42</ele>
        <time>2017-01-17T15:00:22Z</time>
      </trkpt>
      <trkpt lat="49.38437" lon="1.12756">
        <ele>42</ele>
        <time>2017-01-17T15:00:22Z</time>
      </trkpt>
      <trkpt lat="49.3844" lon="1.12752">
        <ele>42</ele>
        <time>2017-01-17T15:00:22Z</time>
      </trkpt>
      <trkpt lat="49.38443" lon="1.12747">
        <ele>42</ele>
        <time>2017-01-17T15:00:22Z</time>
      </trkpt>
      <trkpt lat="49.38446" lon="1.12742">
        <ele>42</ele>
        <time>2017-01-17T15:00:38Z</time>
      </trkpt>
      <trkpt lat="49.38448" lon="1.12737">
        <ele>42</ele>
        <time>2017-01-17T15:00:38Z</time>
      </trkpt>
      <trkpt lat="49.3845" lon="1.12734">
        <ele>42</ele>
        <time>2017-01-17T15:00:38Z</time>
      </trkpt>
      <trkpt lat="49.38452" lon="1.12729">
        <ele>42</ele>
        <time>2017-01-17T15:00:38Z</time>
      </trkpt>
      <trkpt lat="49.38454" lon="1.12725">
        <ele>42</ele>
        <time>2017-01-17T15:00:54Z</time>
      </trkpt>
      <trkpt lat="49.38457" lon="1.1272">
        <ele>42</ele>
        <time>2017-01-17T15:00:54Z</time>
      </trkpt>
      <trkpt lat="49.38459" lon="1.12713">
        <ele>49</ele>
        <time>2017-01-17T15:00:54Z</time>
      </trkpt>
      <trkpt lat="49.38461" lon="1.12706">
        <ele>31</ele>
        <time>2017-01-17T15:00:54Z</time>
      </trkpt>
      <trkpt lat="49.38462" lon="1.12701">
        <ele>31</ele>
        <time>2017-01-17T15:01:10Z</time>
      </trkpt>
      <trkpt lat="49.38464" lon="1.12695">
        <ele>31</ele>
        <time>2017-01-17T15:01:10Z</time>
      </trkpt>
      <trkpt lat="49.38465" lon="1.1269">
        <ele>31</ele>
        <time>2017-01-17T15:01:10Z</time>
      </trkpt>
      <trkpt lat="49.38467" lon="1.12684">
        <ele>31</ele>
        <time>2017-01-17T15:01:10Z</time>
      </trkpt>
      <trkpt lat="49.3847" lon="1.12678">
        <ele>31</ele>
        <time>2017-01-17T15:01:26Z</time>
      </trkpt>
      <trkpt lat="49.38473" lon="1.12674">
        <ele>31</ele>
        <time>2017-01-17T15:01:26Z</time>
      </trkpt>
      <trkpt lat="49.38476" lon="1.1267">
        <ele>31</ele>
        <time>2017-01-17T15:01:26Z</time>
      </trkpt>
      <trkpt lat="49.38479" lon="1.12663">
        <ele>31</ele>
        <time>2017-01-17T15:01:26Z</time>
      </trkpt>
      <trkpt lat="49.3848" lon="1.12657">
        <ele>31</ele>
        <time>2017-01-17T15:01:42Z</time>
      </trkpt>
      <trkpt lat="49.3848" lon="1.12649">
        <ele>31</ele>
        <time>2017-01-17T15:01:42Z</time>
      </trkpt>
      <trkpt lat="49.38481" lon="1.12643">
        <ele>31</ele>
        <time>2017-01-17T15:01:42Z</time>
      </trkpt>
      <trkpt lat="49.38482" lon="1.12636">
        <ele>31</ele>
        <time>2017-01-17T15:01:42Z</time>
      </trkpt>
      <trkpt lat="49.38486" lon="1.12629">
        <ele>31</ele>
        <time>2017-01-17T15:01:58Z</time>
      </trkpt>
      <trkpt lat="49.38489" lon="1.12622">
        <ele>15</ele>
        <time>2017-01-17T15:01:58Z</time>
      </trkpt>
      <trkpt lat="49.3849" lon="1.12617">
        <ele>15</ele>
        <time>2017-01-17T15:01:58Z</time>
      </trkpt>
      <trkpt lat="49.3849" lon="1.12612">
        <ele>15</ele>
        <time>2017-01-17T15:01:58Z</time>
      </trkpt>
      <trkpt lat="49.3849" lon="1.12605">
        <ele>15</ele>
        <time>2017-01-17T15:02:14Z</time>
      </trkpt>
      <trkpt lat="49.38491" lon="1.12598">
        <ele>15</ele>
        <time>2017-01-17T15:02:14Z</time>
      </trkpt>
      <trkpt lat="49.38491" lon="1.12591">
        <ele>15</ele>
        <time>2017-01-17T15:02:14Z</time>
      </trkpt>
      <trkpt lat="49.3849" lon="1.12586">
        <ele>15</ele>
        <time>2017-01-17T15:02:14Z</time>
      </trkpt>
      <trkpt lat="49.38493" lon="1.12586">
        <ele>15</ele>
        <time>2017-01-17T15:02:54Z</time>
      </trkpt>
      <trkpt lat="49.38495" lon="1.12588">
        <ele>15</ele>
        <time>2017-01-17T15:02:54Z</time>
      </trkpt>
      <trkpt lat="49.38495" lon="1.12588">
        <ele>15</ele>
        <time>2017-01-17T15:02:54Z</time>
      </trkpt>
      <trkpt lat="49.38497" lon="1.12587">
        <ele>15</ele>
        <time>2017-01-17T15:02:54Z</time>
      </trkpt>
      <trkpt lat="49.38502" lon="1.12587">
        <ele>15</ele>
        <time>2017-01-17T15:02:54Z</time>
      </trkpt>
      <trkpt lat="49.38504" lon="1.12582">
        <ele>15</ele>
        <time>2017-01-17T15:03:10Z</time>
      </trkpt>
      <trkpt lat="49.38508" lon="1.12577">
        <ele>15</ele>
        <time>2017-01-17T15:03:10Z</time>
      </trkpt>
      <trkpt lat="49.38511" lon="1.12573">
        <ele>15</ele>
        <time>2017-01-17T15:03:10Z</time>
      </trkpt>
      <trkpt lat="49.38511" lon="1.12571">
        <ele>15</ele>
        <time>2017-01-17T15:03:10Z</time>
      </trkpt>
      <trkpt lat="49.38511" lon="1.12573">
        <ele>15</ele>
        <time>2017-01-17T15:03:46Z</time>
      </trkpt>
      <trkpt lat="49.38511" lon="1.12573">
        <ele>15</ele>
        <time>2017-01-17T15:03:46Z</time>
      </trkpt>
      <trkpt lat="49.38513" lon="1.12574">
        <ele>15</ele>
        <time>2017-01-17T15:03:46Z</time>
      </trkpt>
      <trkpt lat="49.38516" lon="1.12572">
        <ele>15</ele>
        <time>2017-01-17T15:03:46Z</time>
      </trkpt>
      <trkpt lat="49.38521" lon="1.12572">
        <ele>15</ele>
        <time>2017-01-17T15:03:46Z</time>
      </trkpt>
      <trkpt lat="49.38525" lon="1.12573">
        <ele>15</ele>
        <time>2017-01-17T15:04:02Z</time>
      </trkpt>
      <trkpt lat="49.38528" lon="1.1257">
        <ele>15</ele>
        <time>2017-01-17T15:04:02Z</time>
      </trkpt>
      <trkpt lat="49.38533" lon="1.12568">
        <ele>15</ele>
        <time>2017-01-17T15:04:02Z</time>
      </trkpt>
      <trkpt lat="49.38538" lon="1.12567">
        <ele>15</ele>
        <time>2017-01-17T15:04:02Z</time>
      </trkpt>
      <trkpt lat="49.38542" lon="1.12566">
        <ele>23</ele>
        <time>2017-01-17T15:04:18Z</time>
      </trkpt>
      <trkpt lat="49.38545" lon="1.12565">
        <ele>23</ele>
        <time>2017-01-17T15:04:18Z</time>
      </trkpt>
      <trkpt lat="49.38548" lon="1.12564">
        <ele>23</ele>
        <time>2017-01-17T15:04:18Z</time>
      </trkpt>
      <trkpt lat="49.38551" lon="1.12565">
        <ele>23</ele>
        <time>2017-01-17T15:04:18Z</time>
      </trkpt>
      <trkpt lat="49.38555" lon="1.12565">
        <ele>23</ele>
        <time>2017-01-17T15:04:34Z</time>
      </trkpt>
      <trkpt lat="49.38559" lon="1.12565">
        <ele>23</ele>
        <time>2017-01-17T15:04:34Z</time>
      </trkpt>
      <trkpt lat="49.38565" lon="1.12564">
        <ele>23</ele>
        <time>2017-01-17T15:04:34Z</time>
      </trkpt>
      <trkpt lat="49.3857" lon="1.12563">
        <ele>23</ele>
        <time>2017-01-17T15:04:34Z</time>
      </trkpt>
      <trkpt lat="49.38574" lon="1.12562">
        <ele>23</ele>
        <time>2017-01-17T15:04:50Z</time>
      </trkpt>
      <trkpt lat="49.3858" lon="1.1256">
        <ele>23</ele>
        <time>2017-01-17T15:04:50Z</time>
      </trkpt>
      <trkpt lat="49.38586" lon="1.1256">
        <ele>23</ele>
        <time>2017-01-17T15:04:50Z</time>
      </trkpt>
      <trkpt lat="49.38591" lon="1.1256">
        <ele>23</ele>
        <time>2017-01-17T15:04:50Z</time>
      </trkpt>
      <trkpt lat="49.38597" lon="1.12559">
        <ele>23</ele>
        <time>2017-01-17T15:05:06Z</time>
      </trkpt>
      <trkpt lat="49.38604" lon="1.12559">
        <ele>23</ele>
        <time>2017-01-17T15:05:06Z</time>
      </trkpt>
      <trkpt lat="49.38611" lon="1.1256">
        <ele>23</ele>
        <time>2017-01-17T15:05:06Z</time>
      </trkpt>
      <trkpt lat="49.38616" lon="1.12558">
        <ele>23</ele>
        <time>2017-01-17T15:05:06Z</time>
      </trkpt>
      <trkpt lat="49.3862" lon="1.12557">
        <ele>23</ele>
        <time>2017-01-17T15:05:22Z</time>
      </trkpt>
      <trkpt lat="49.38625" lon="1.12557">
        <ele>23</ele>
        <time>2017-01-17T15:05:22Z</time>
      </trkpt>
      <trkpt lat="49.38629" lon="1.12557">
        <ele>30</ele>
        <time>2017-01-17T15:05:22Z</time>
      </trkpt>
      <trkpt lat="49.38634" lon="1.12556">
        <ele>30</ele>
        <time>2017-01-17T15:05:22Z</time>
      </trkpt>
      <trkpt lat="49.38638" lon="1.12555">
        <ele>30</ele>
        <time>2017-01-17T15:05:38Z</time>
      </trkpt>
      <trkpt lat="49.38642" lon="1.12554">
        <ele>30</ele>
        <time>2017-01-17T15:05:38Z</time>
      </trkpt>
      <trkpt lat="49.38647" lon="1.12553">
        <ele>30</ele>
        <time>2017-01-17T15:05:38Z</time>
      </trkpt>
      <trkpt lat="49.38652" lon="1.12553">
        <ele>30</ele>
        <time>2017-01-17T15:05:38Z</time>
      </trkpt>
      <trkpt lat="49.38657" lon="1.12555">
        <ele>30</ele>
        <time>2017-01-17T15:05:54Z</time>
      </trkpt>
      <trkpt lat="49.38662" lon="1.12556">
        <ele>30</ele>
        <time>2017-01-17T15:05:54Z</time>
      </trkpt>
      <trkpt lat="49.38665" lon="1.12557">
        <ele>30</ele>
        <time>2017-01-17T15:05:54Z</time>
      </trkpt>
      <trkpt lat="49.3867" lon="1.12559">
        <ele>30</ele>
        <time>2017-01-17T15:05:54Z</time>
      </trkpt>
      <trkpt lat="49.38676" lon="1.12559">
        <ele>30</ele>
        <time>2017-01-17T15:06:10Z</time>
      </trkpt>
      <trkpt lat="49.38681" lon="1.1256">
        <ele>30</ele>
        <time>2017-01-17T15:06:10Z</time>
      </trkpt>
      <trkpt lat="49.38686" lon="1.12562">
        <ele>30</ele>
        <time>2017-01-17T15:06:10Z</time>
      </trkpt>
      <trkpt lat="49.3869" lon="1.12563">
        <ele>30</ele>
        <time>2017-01-17T15:06:10Z</time>
      </trkpt>
      <trkpt lat="49.38696" lon="1.12564">
        <ele>30</ele>
        <time>2017-01-17T15:06:26Z</time>
      </trkpt>
      <trkpt lat="49.387" lon="1.12565">
        <ele>30</ele>
        <time>2017-01-17T15:06:26Z</time>
      </trkpt>
      <trkpt lat="49.38704" lon="1.12567">
        <ele>30</ele>
        <time>2017-01-17T15:06:26Z</time>
      </trkpt>
      <trkpt lat="49.38707" lon="1.12568">
        <ele>30</ele>
        <time>2017-01-17T15:06:26Z</time>
      </trkpt>
      <trkpt lat="49.38711" lon="1.12567">
        <ele>27</ele>
        <time>2017-01-17T15:06:42Z</time>
      </trkpt>
      <trkpt lat="49.38716" lon="1.12569">
        <ele>27</ele>
        <time>2017-01-17T15:06:42Z</time>
      </trkpt>
      <trkpt lat="49.3872" lon="1.12568">
        <ele>27</ele>
        <time>2017-01-17T15:06:42Z</time>
      </trkpt>
      <trkpt lat="49.38724" lon="1.12569">
        <ele>27</ele>
        <time>2017-01-17T15:06:42Z</time>
      </trkpt>
      <trkpt lat="49.38728" lon="1.1257">
        <ele>27</ele>
        <time>2017-01-17T15:06:58Z</time>
      </trkpt>
      <trkpt lat="49.38733" lon="1.1257">
        <ele>27</ele>
        <time>2017-01-17T15:06:58Z</time>
      </trkpt>
      <trkpt lat="49.38738" lon="1.12569">
        <ele>27</ele>
        <time>2017-01-17T15:06:58Z</time>
      </trkpt>
      <trkpt lat="49.38744" lon="1.12571">
        <ele>27</ele>
        <time>2017-01-17T15:06:58Z</time>
      </trkpt>
      <trkpt lat="49.3875" lon="1.12571">
        <ele>27</ele>
        <time>2017-01-17T15:07:14Z</time>
      </trkpt>
      <trkpt lat="49.38755" lon="1.12573">
        <ele>27</ele>
        <time>2017-01-17T15:07:14Z</time>
      </trkpt>
      <trkpt lat="49.3876" lon="1.12573">
        <ele>27</ele>
        <time>2017-01-17T15:07:14Z</time>
      </trkpt>
      <trkpt lat="49.38765" lon="1.12574">
        <ele>27</ele>
        <time>2017-01-17T15:07:14Z</time>
      </trkpt>
      <trkpt lat="49.3877" lon="1.12575">
        <ele>27</ele>
        <time>2017-01-17T15:07:30Z</time>
      </trkpt>
      <trkpt lat="49.38775" lon="1.12575">
        <ele>27</ele>
        <time>2017-01-17T15:07:30Z</time>
      </trkpt>
      <trkpt lat="49.38781" lon="1.12576">
        <ele>27</ele>
        <time>2017-01-17T15:07:30Z</time>
      </trkpt>
      <trkpt lat="49.38786" lon="1.12579">
        <ele>27</ele>
        <time>2017-01-17T15:07:30Z</time>
      </trkpt>
      <trkpt lat="49.38791" lon="1.12578">
        <ele>27</ele>
        <time>2017-01-17T15:07:46Z</time>
      </trkpt>
      <trkpt lat="49.38797" lon="1.12578">
        <ele>16</ele>
        <time>2017-01-17T15:07:46Z</time>
      </trkpt>
      <trkpt lat="49.38802" lon="1.12578">
        <ele>16</ele>
        <time>2017-01-17T15:07:46Z</time>
      </trkpt>
      <trkpt lat="49.38807" lon="1.12579">
        <ele>16</ele>
        <time>2017-01-17T15:07:46Z</time>
      </trkpt>
      <trkpt lat="49.38812" lon="1.12581">
        <ele>16</ele>
        <time>2017-01-17T15:08:02Z</time>
      </trkpt>
      <trkpt lat="49.38817" lon="1.12583">
        <ele>16</ele>
        <time>2017-01-17T15:08:02Z</time>
      </trkpt>
      <trkpt lat="49.38823" lon="1.12583">
        <ele>16</ele>
        <time>2017-01-17T15:08:02Z</time>
      </trkpt>
      <trkpt lat="49.38827" lon="1.12584">
        <ele>16</ele>
        <time>2017-01-17T15:08:02Z</time>
      </trkpt>
      <trkpt lat="49.38833" lon="1.12586">
        <ele>16</ele>
        <time>2017-01-17T15:08:18Z</time>
      </trkpt>
      <trkpt lat="49.38838" lon="1.12587">
        <ele>16</ele>
        <time>2017-01-17T15:08:18Z</time>
      </trkpt>
      <trkpt lat="49.38843" lon="1.12587">
        <ele>16</ele>
        <time>2017-01-17T15:08:18Z</time>
      </trkpt>
      <trkpt lat="49.38847" lon="1.12588">
        <ele>16</ele>
        <time>2017-01-17T15:08:18Z</time>
      </trkpt>
      <trkpt lat="49.38851" lon="1.12588">
        <ele>16</ele>
        <time>2017-01-17T15:08:34Z</time>
      </trkpt>
      <trkpt lat="49.38857" lon="1.12587">
        <ele>16</ele>
        <time>2017-01-17T15:08:34Z</time>
      </trkpt>
      <trkpt lat="49.38861" lon="1.12582">
        <ele>16</ele>
        <time>2017-01-17T15:08:34Z</time>
      </trkpt>
      <trkpt lat="49.38863" lon="1.12577">
        <ele>16</ele>
        <time>2017-01-17T15:08:34Z</time>
      </trkpt>
      <trkpt lat="49.38864" lon="1.12572">
        <ele>16</ele>
        <time>2017-01-17T15:08:50Z</time>
      </trkpt>
      <trkpt lat="49.38864" lon="1.12566">
        <ele>16</ele>
        <time>2017-01-17T15:08:50Z</time>
      </trkpt>
      <trkpt lat="49.38865" lon="1.12558">
        <ele>16</ele>
        <time>2017-01-17T15:08:50Z</time>
      </trkpt>
      <trkpt lat="49.38865" lon="1.12551">
        <ele>16</ele>
        <time>2017-01-17T15:08:50Z</time>
      </trkpt>
      <trkpt lat="49.38866" lon="1.12544">
        <ele>16</ele>
        <time>2017-01-17T15:09:06Z</time>
      </trkpt>
      <trkpt lat="49.38866" lon="1.12538">
        <ele>10</ele>
        <time>2017-01-17T15:09:06Z</time>
      </trkpt>
      <trkpt lat="49.38866" lon="1.12532">
        <ele>10</ele>
        <time>2017-01-17T15:09:06Z</time>
      </trkpt>
      <trkpt lat="49.38866" lon="1.12526">
        <ele>10</ele>
        <time>2017-01-17T15:09:06Z</time>
      </trkpt>
      <trkpt lat="49.38865" lon="1.12519">
        <ele>10</ele>
        <time>2017-01-17T15:09:22Z</time>
      </trkpt>
      <trkpt lat="49.38866" lon="1.12513">
        <ele>10</ele>
        <time>2017-01-17T15:09:22Z</time>
      </trkpt>
      <trkpt lat="49.38867" lon="1.12507">
        <ele>10</ele>
        <time>2017-01-17T15:09:22Z</time>
      </trkpt>
      <trkpt lat="49.38867" lon="1.125">
        <ele>10</ele>
        <time>2017-01-17T15:09:22Z</time>
      </trkpt>
      <trkpt lat="49.38867" lon="1.12494">
        <ele>10</ele>
        <time>2017-01-17T15:09:38Z</time>
      </trkpt>
      <trkpt lat="49.38867" lon="1.12487">
        <ele>10</ele>
        <time>2017-01-17T15:09:38Z</time>
      </trkpt>
      <trkpt lat="49.38867" lon="1.12482">
        <ele>10</ele>
        <time>2017-01-17T15:09:38Z</time>
      </trkpt>
      <trkpt lat="49.38867" lon="1.1247">
        <ele>10</ele>
        <time>2017-01-17T15:09:38Z</time>
      </trkpt>
      <trkpt lat="49.38867" lon="1.12464">
        <ele>10</ele>
        <time>2017-01-17T15:09:54Z</time>
      </trkpt>
      <trkpt lat="49.38867" lon="1.12457">
        <ele>2</ele>
        <time>2017-01-17T15:09:54Z</time>
      </trkpt>
      <trkpt lat="49.38865" lon="1.12449">
        <ele>2</ele>
        <time>2017-01-17T15:09:54Z</time>
      </trkpt>
      <trkpt lat="49.38864" lon="1.12441">
        <ele>2</ele>
        <time>2017-01-17T15:09:54Z</time>
      </trkpt>
      <trkpt lat="49.38865" lon="1.12431">
        <ele>2</ele>
        <time>2017-01-17T15:10:10Z</time>
      </trkpt>
      <trkpt lat="49.38867" lon="1.12422">
        <ele>2</ele>
        <time>2017-01-17T15:10:10Z</time>
      </trkpt>
      <trkpt lat="49.38871" lon="1.1242">
        <ele>2</ele>
        <time>2017-01-17T15:10:10Z</time>
      </trkpt>
      <trkpt lat="49.38873" lon="1.12421">
        <ele>2</ele>
        <time>2017-01-17T15:10:10Z</time>
      </trkpt>
      <trkpt lat="49.38876" lon="1.12415">
        <ele>2</ele>
        <time>2017-01-17T15:15:22Z</time>
      </trkpt>
      <trkpt lat="49.38877" lon="1.12417">
        <ele>2</ele>
        <time>2017-01-17T15:15:22Z</time>
      </trkpt>
      <trkpt lat="49.3888" lon="1.12419">
        <ele>2</ele>
        <time>2017-01-17T15:15:22Z</time>
      </trkpt>
      <trkpt lat="49.38882" lon="1.12418">
        <ele>2</ele>
        <time>2017-01-17T15:15:22Z</time>
      </trkpt>
      <trkpt lat="49.38884" lon="1.12419">
        <ele>2</ele>
        <time>2017-01-17T15:15:22Z</time>
      </trkpt>
      <trkpt lat="49.38886" lon="1.12418">
        <ele>2</ele>
        <time>2017-01-17T15:15:38Z</time>
      </trkpt>
      <trkpt lat="49.3889" lon="1.12416">
        <ele>2</ele>
        <time>2017-01-17T15:15:38Z</time>
      </trkpt>
      <trkpt lat="49.38894" lon="1.12413">
        <ele>2</ele>
        <time>2017-01-17T15:15:38Z</time>
      </trkpt>
      <trkpt lat="49.38898" lon="1.12413">
        <ele>2</ele>
        <time>2017-01-17T15:15:38Z</time>
      </trkpt>
      <trkpt lat="49.38902" lon="1.12415">
        <ele>2</ele>
        <time>2017-01-17T15:15:54Z</time>
      </trkpt>
      <trkpt lat="49.38905" lon="1.12417">
        <ele>2</ele>
        <time>2017-01-17T15:15:54Z</time>
      </trkpt>
      <trkpt lat="49.38909" lon="1.12419">
        <ele>2</ele>
        <time>2017-01-17T15:15:54Z</time>
      </trkpt>
      <trkpt lat="49.38913" lon="1.12421">
        <ele>2</ele>
        <time>2017-01-17T15:15:54Z</time>
      </trkpt>
      <trkpt lat="49.38917" lon="1.12424">
        <ele>2</ele>
        <time>2017-01-17T15:16:10Z</time>
      </trkpt>
      <trkpt lat="49.38922" lon="1.12426">
        <ele>2</ele>
        <time>2017-01-17T15:16:10Z</time>
      </trkpt>
      <trkpt lat="49.38927" lon="1.12429">
        <ele>2</ele>
        <time>2017-01-17T15:16:10Z</time>
      </trkpt>
      <trkpt lat="49.38932" lon="1.12431">
        <ele>2</ele>
        <time>2017-01-17T15:16:10Z</time>
      </trkpt>
      <trkpt lat="49.38936" lon="1.12432">
        <ele>2</ele>
        <time>2017-01-17T15:16:26Z</time>
      </trkpt>
      <trkpt lat="49.38939" lon="1.1243">
        <ele>2</ele>
        <time>2017-01-17T15:16:26Z</time>
      </trkpt>
      <trkpt lat="49.38941" lon="1.12428">
        <ele>2</ele>
        <time>2017-01-17T15:16:26Z</time>
      </trkpt>
      <trkpt lat="49.38945" lon="1.12426">
        <ele>2</ele>
        <time>2017-01-17T15:16:26Z</time>
      </trkpt>
      <trkpt lat="49.3895" lon="1.12424">
        <ele>2</ele>
        <time>2017-01-17T15:16:42Z</time>
      </trkpt>
      <trkpt lat="49.38953" lon="1.12422">
        <ele>2</ele>
        <time>2017-01-17T15:16:42Z</time>
      </trkpt>
      <trkpt lat="49.38958" lon="1.12423">
        <ele>2</ele>
        <time>2017-01-17T15:16:42Z</time>
      </trkpt>
      <trkpt lat="49.3896" lon="1.12427">
        <ele>2</ele>
        <time>2017-01-17T15:16:42Z</time>
      </trkpt>
      <trkpt lat="49.38962" lon="1.12432">
        <ele>2</ele>
        <time>2017-01-17T15:16:58Z</time>
      </trkpt>
      <trkpt lat="49.38963" lon="1.12439">
        <ele>2</ele>
        <time>2017-01-17T15:16:58Z</time>
      </trkpt>
      <trkpt lat="49.38965" lon="1.12446">
        <ele>2</ele>
        <time>2017-01-17T15:16:58Z</time>
      </trkpt>
      <trkpt lat="49.38965" lon="1.12452">
        <ele>2</ele>
        <time>2017-01-17T15:16:58Z</time>
      </trkpt>
      <trkpt lat="49.38967" lon="1.1246">
        <ele>9</ele>
        <time>2017-01-17T15:17:14Z</time>
      </trkpt>
      <trkpt lat="49.38971" lon="1.12465">
        <ele>9</ele>
        <time>2017-01-17T15:17:14Z</time>
      </trkpt>
      <trkpt lat="49.38975" lon="1.12469">
        <ele>9</ele>
        <time>2017-01-17T15:17:14Z</time>
      </trkpt>
      <trkpt lat="49.38978" lon="1.1247">
        <ele>9</ele>
        <time>2017-01-17T15:17:14Z</time>
      </trkpt>
      <trkpt lat="49.38982" lon="1.12469">
        <ele>9</ele>
        <time>2017-01-17T15:17:30Z</time>
      </trkpt>
      <trkpt lat="49.38987" lon="1.12467">
        <ele>9</ele>
        <time>2017-01-17T15:17:30Z</time>
      </trkpt>
      <trkpt lat="49.38992" lon="1.12466">
        <ele>9</ele>
        <time>2017-01-17T15:17:30Z</time>
      </trkpt>
      <trkpt lat="49.38996" lon="1.12465">
        <ele>9</ele>
        <time>2017-01-17T15:17:30Z</time>
      </trkpt>
      <trkpt lat="49.39003" lon="1.12466">
        <ele>9</ele>
        <time>2017-01-17T15:17:46Z</time>
      </trkpt>
      <trkpt lat="49.3901" lon="1.12467">
        <ele>9</ele>
        <time>2017-01-17T15:17:46Z</time>
      </trkpt>
      <trkpt lat="49.39014" lon="1.12467">
        <ele>9</ele>
        <time>2017-01-17T15:17:46Z</time>
      </trkpt>
      <trkpt lat="49.39018" lon="1.12467">
        <ele>9</ele>
        <time>2017-01-17T15:17:46Z</time>
      </trkpt>
      <trkpt lat="49.39023" lon="1.12466">
        <ele>9</ele>
        <time>2017-01-17T15:18:02Z</time>
      </trkpt>
      <trkpt lat="49.39028" lon="1.12467">
        <ele>9</ele>
        <time>2017-01-17T15:18:02Z</time>
      </trkpt>
      <trkpt lat="49.39033" lon="1.12468">
        <ele>9</ele>
        <time>2017-01-17T15:18:02Z</time>
      </trkpt>
      <trkpt lat="49.39037" lon="1.12469">
        <ele>9</ele>
        <time>2017-01-17T15:18:02Z</time>
      </trkpt>
      <trkpt lat="49.39042" lon="1.12468">
        <ele>9</ele>
        <time>2017-01-17T15:18:18Z</time>
      </trkpt>
      <trkpt lat="49.39044" lon="1.12464">
        <ele>11</ele>
        <time>2017-01-17T15:18:18Z</time>
      </trkpt>
      <trkpt lat="49.39045" lon="1.1246">
        <ele>11</ele>
        <time>2017-01-17T15:18:18Z</time>
      </trkpt>
      <trkpt lat="49.39048" lon="1.12456">
        <ele>7</ele>
        <time>2017-01-17T15:18:18Z</time>
      </trkpt>
      <trkpt lat="49.39051" lon="1.12451">
        <ele>7</ele>
        <time>2017-01-17T15:18:34Z</time>
      </trkpt>
      <trkpt lat="49.39054" lon="1.12445">
        <ele>7</ele>
        <time>2017-01-17T15:18:34Z</time>
      </trkpt>
      <trkpt lat="49.39058" lon="1.1244">
        <ele>7</ele>
        <time>2017-01-17T15:18:34Z</time>
      </trkpt>
      <trkpt lat="49.3906" lon="1.12435">
        <ele>7</ele>
        <time>2017-01-17T15:18:34Z</time>
      </trkpt>
      <trkpt lat="49.39063" lon="1.1243">
        <ele>7</ele>
        <time>2017-01-17T15:18:50Z</time>
      </trkpt>
      <trkpt lat="49.39066" lon="1.12425">
        <ele>7</ele>
        <time>2017-01-17T15:18:50Z</time>
      </trkpt>
      <trkpt lat="49.39069" lon="1.12421">
        <ele>7</ele>
        <time>2017-01-17T15:18:50Z</time>
      </trkpt>
      <trkpt lat="49.39073" lon="1.12417">
        <ele>7</ele>
        <time>2017-01-17T15:18:50Z</time>
      </trkpt>
      <trkpt lat="49.39079" lon="1.12413">
        <ele>7</ele>
        <time>2017-01-17T15:19:06Z</time>
      </trkpt>
      <trkpt lat="49.39083" lon="1.1241">
        <ele>7</ele>
        <time>2017-01-17T15:19:06Z</time>
      </trkpt>
      <trkpt lat="49.39088" lon="1.12407">
        <ele>7</ele>
        <time>2017-01-17T15:19:06Z</time>
      </trkpt>
      <trkpt lat="49.39094" lon="1.12403">
        <ele>7</ele>
        <time>2017-01-17T15:19:06Z</time>
      </trkpt>
      <trkpt lat="49.39099" lon="1.12399">
        <ele>7</ele>
        <time>2017-01-17T15:19:23Z</time>
      </trkpt>
      <trkpt lat="49.39104" lon="1.12397">
        <ele>7</ele>
        <time>2017-01-17T15:19:23Z</time>
      </trkpt>
      <trkpt lat="49.39108" lon="1.12394">
        <ele>7</ele>
        <time>2017-01-17T15:19:23Z</time>
      </trkpt>
      <trkpt lat="49.39112" lon="1.12391">
        <ele>7</ele>
        <time>2017-01-17T15:19:23Z</time>
      </trkpt>
      <trkpt lat="49.39116" lon="1.12391">
        <ele>7</ele>
        <time>2017-01-17T15:19:38Z</time>
      </trkpt>
      <trkpt lat="49.3912" lon="1.1239">
        <ele>7</ele>
        <time>2017-01-17T15:19:38Z</time>
      </trkpt>
      <trkpt lat="49.39124" lon="1.12386">
        <ele>7</ele>
        <time>2017-01-17T15:19:38Z</time>
      </trkpt>
      <trkpt lat="49.39129" lon="1.12383">
        <ele>6</ele>
        <time>2017-01-17T15:19:38Z</time>
      </trkpt>
      <trkpt lat="49.39134" lon="1.1238">
        <ele>6</ele>
        <time>2017-01-17T15:19:54Z</time>
      </trkpt>
      <trkpt lat="49.39139" lon="1.12378">
        <ele>6</ele>
        <time>2017-01-17T15:19:54Z</time>
      </trkpt>
      <trkpt lat="49.39143" lon="1.12377">
        <ele>6</ele>
        <time>2017-01-17T15:19:54Z</time>
      </trkpt>
      <trkpt lat="49.39148" lon="1.12374">
        <ele>2</ele>
        <time>2017-01-17T15:19:54Z</time>
      </trkpt>
      <trkpt lat="49.39152" lon="1.12373">
        <ele>2</ele>
        <time>2017-01-17T15:20:10Z</time>
      </trkpt>
      <trkpt lat="49.39156" lon="1.12371">
        <ele>2</ele>
        <time>2017-01-17T15:20:10Z</time>
      </trkpt>
      <trkpt lat="49.39159" lon="1.12369">
        <ele>2</ele>
        <time>2017-01-17T15:20:10Z</time>
      </trkpt>
      <trkpt lat="49.39165" lon="1.12367">
        <ele>2</ele>
        <time>2017-01-17T15:20:10Z</time>
      </trkpt>
      <trkpt lat="49.3917" lon="1.12365">
        <ele>2</ele>
        <time>2017-01-17T15:20:26Z</time>
      </trkpt>
      <trkpt lat="49.39175" lon="1.12362">
        <ele>2</ele>
        <time>2017-01-17T15:20:26Z</time>
      </trkpt>
      <trkpt lat="49.3918" lon="1.12358">
        <ele>2</ele>
        <time>2017-01-17T15:20:26Z</time>
      </trkpt>
      <trkpt lat="49.39185" lon="1.12357">
        <ele>2</ele>
        <time>2017-01-17T15:20:26Z</time>
      </trkpt>
      <trkpt lat="49.39189" lon="1.12355">
        <ele>2</ele>
        <time>2017-01-17T15:20:42Z</time>
      </trkpt>
      <trkpt lat="49.39195" lon="1.12352">
        <ele>2</ele>
        <time>2017-01-17T15:20:42Z</time>
      </trkpt>
      <trkpt lat="49.39199" lon="1.12351">
        <ele>2</ele>
        <time>2017-01-17T15:20:42Z</time>
      </trkpt>
      <trkpt lat="49.39205" lon="1.12348">
        <ele>2</ele>
        <time>2017-01-17T15:20:42Z</time>
      </trkpt>
      <trkpt lat="49.3921" lon="1.12346">
        <ele>9</ele>
        <time>2017-01-17T15:20:58Z</time>
      </trkpt>
      <trkpt lat="49.39215" lon="1.12344">
        <ele>9</ele>
        <time>2017-01-17T15:20:58Z</time>
      </trkpt>
      <trkpt lat="49.39221" lon="1.12342">
        <ele>9</ele>
        <time>2017-01-17T15:20:58Z</time>
      </trkpt>
      <trkpt lat="49.39225" lon="1.12341">
        <ele>9</ele>
        <time>2017-01-17T15:20:58Z</time>
      </trkpt>
      <trkpt lat="49.3923" lon="1.12339">
        <ele>9</ele>
        <time>2017-01-17T15:21:14Z</time>
      </trkpt>
      <trkpt lat="49.39234" lon="1.12338">
        <ele>9</ele>
        <time>2017-01-17T15:21:14Z</time>
      </trkpt>
      <trkpt lat="49.39237" lon="1.12338">
        <ele>9</ele>
        <time>2017-01-17T15:21:14Z</time>
      </trkpt>
      <trkpt lat="49.39241" lon="1.12337">
        <ele>9</ele>
        <time>2017-01-17T15:21:14Z</time>
      </trkpt>
      <trkpt lat="49.39247" lon="1.12337">
        <ele>9</ele>
        <time>2017-01-17T15:21:30Z</time>
      </trkpt>
      <trkpt lat="49.39253" lon="1.12335">
        <ele>9</ele>
        <time>2017-01-17T15:21:30Z</time>
      </trkpt>
      <trkpt lat="49.39258" lon="1.12333">
        <ele>9</ele>
        <time>2017-01-17T15:21:30Z</time>
      </trkpt>
      <trkpt lat="49.39263" lon="1.12332">
        <ele>9</ele>
        <time>2017-01-17T15:21:30Z</time>
      </trkpt>
      <trkpt lat="49.39268" lon="1.12329">
        <ele>9</ele>
        <time>2017-01-17T15:21:46Z</time>
      </trkpt>
      <trkpt lat="49.39274" lon="1.12329">
        <ele>9</ele>
        <time>2017-01-17T15:21:46Z</time>
      </trkpt>
      <trkpt lat="49.39278" lon="1.12326">
        <ele>9</ele>
        <time>2017-01-17T15:21:46Z</time>
      </trkpt>
      <trkpt lat="49.39283" lon="1.12325">
        <ele>9</ele>
        <time>2017-01-17T15:21:46Z</time>
      </trkpt>
      <trkpt lat="49.39288" lon="1.12322">
        <ele>9</ele>
        <time>2017-01-17T15:22:02Z</time>
      </trkpt>
      <trkpt lat="49.39294" lon="1.12319">
        <ele>7</ele>
        <time>2017-01-17T15:22:02Z</time>
      </trkpt>
      <trkpt lat="49.39299" lon="1.12317">
        <ele>7</ele>
        <time>2017-01-17T15:22:02Z</time>
      </trkpt>
      <trkpt lat="49.39305" lon="1.12314">
        <ele>7</ele>
        <time>2017-01-17T15:22:02Z</time>
      </trkpt>
      <trkpt lat="49.39309" lon="1.12313">
        <ele>7</ele>
        <time>2017-01-17T15:22:18Z</time>
      </trkpt>
      <trkpt lat="49.39313" lon="1.12312">
        <ele>7</ele>
        <time>2017-01-17T15:22:18Z</time>
      </trkpt>
      <trkpt lat="49.39314" lon="1.1231">
        <ele>7</ele>
        <time>2017-01-17T15:22:18Z</time>
      </trkpt>
      <trkpt lat="49.39319" lon="1.12308">
        <ele>7</ele>
        <time>2017-01-17T15:22:18Z</time>
      </trkpt>
      <trkpt lat="49.39324" lon="1.12306">
        <ele>7</ele>
        <time>2017-01-17T15:22:34Z</time>
      </trkpt>
      <trkpt lat="49.3933" lon="1.12304">
        <ele>7</ele>
        <time>2017-01-17T15:22:34Z</time>
      </trkpt>
      <trkpt lat="49.39335" lon="1.12301">
        <ele>7</ele>
        <time>2017-01-17T15:22:34Z</time>
      </trkpt>
      <trkpt lat="49.3934" lon="1.12299">
        <ele>7</ele>
        <time>2017-01-17T15:22:34Z</time>
      </trkpt>
      <trkpt lat="49.39346" lon="1.12297">
        <ele>7</ele>
        <time>2017-01-17T15:22:51Z</time>
      </trkpt>
      <trkpt lat="49.39353" lon="1.12294">
        <ele>7</ele>
        <time>2017-01-17T15:22:51Z</time>
      </trkpt>
      <trkpt lat="49.39357" lon="1.12293">
        <ele>7</ele>
        <time>2017-01-17T15:22:51Z</time>
      </trkpt>
      <trkpt lat="49.39365" lon="1.12291">
        <ele>2</ele>
        <time>2017-01-17T15:22:51Z</time>
      </trkpt>
      <trkpt lat="49.39369" lon="1.1229">
        <ele>2</ele>
        <time>2017-01-17T15:23:06Z</time>
      </trkpt>
      <trkpt lat="49.39373" lon="1.12287">
        <ele>2</ele>
        <time>2017-01-17T15:23:06Z</time>
      </trkpt>
      <trkpt lat="49.39379" lon="1.12286">
        <ele>2</ele>
        <time>2017-01-17T15:23:06Z</time>
      </trkpt>
      <trkpt lat="49.39383" lon="1.12285">
        <ele>2</ele>
        <time>2017-01-17T15:23:06Z</time>
      </trkpt>
      <trkpt lat="49.39388" lon="1.12285">
        <ele>2</ele>
        <time>2017-01-17T15:23:22Z</time>
      </trkpt>
      <trkpt lat="49.39393" lon="1.12285">
        <ele>2</ele>
        <time>2017-01-17T15:23:22Z</time>
      </trkpt>
      <trkpt lat="49.39397" lon="1.12284">
        <ele>2</ele>
        <time>2017-01-17T15:23:22Z</time>
      </trkpt>
      <trkpt lat="49.39402" lon="1.12283">
        <ele>2</ele>
        <time>2017-01-17T15:23:22Z</time>
      </trkpt>
      <trkpt lat="49.39407" lon="1.12282">
        <ele>2</ele>
        <time>2017-01-17T15:23:39Z</time>
      </trkpt>
      <trkpt lat="49.39411" lon="1.12281">
        <ele>2</ele>
        <time>2017-01-17T15:23:39Z</time>
      </trkpt>
      <trkpt lat="49.39416" lon="1.12279">
        <ele>2</ele>
        <time>2017-01-17T15:23:39Z</time>
      </trkpt>
      <trkpt lat="49.39422" lon="1.12277">
        <ele>2</ele>
        <time>2017-01-17T15:23:39Z</time>
      </trkpt>
      <trkpt lat="49.39427" lon="1.12276">
        <ele>2</ele>
        <time>2017-01-17T15:23:54Z</time>
      </trkpt>
      <trkpt lat="49.39433" lon="1.12275">
        <ele>2</ele>
        <time>2017-01-17T15:23:54Z</time>
      </trkpt>
      <trkpt lat="49.39438" lon="1.12273">
        <ele>2</ele>
        <time>2017-01-17T15:23:54Z</time>
      </trkpt>
      <trkpt lat="49.39443" lon="1.12272">
        <ele>2</ele>
        <time>2017-01-17T15:23:54Z</time>
      </trkpt>
      <trkpt lat="49.39447" lon="1.12271">
        <ele>2</ele>
        <time>2017-01-17T15:24:10Z</time>
      </trkpt>
      <trkpt lat="49.39453" lon="1.12268">
        <ele>2</ele>
        <time>2017-01-17T15:24:10Z</time>
      </trkpt>
      <trkpt lat="49.39459" lon="1.12266">
        <ele>2</ele>
        <time>2017-01-17T15:24:10Z</time>
      </trkpt>
      <trkpt lat="49.39462" lon="1.12265">
        <ele>2</ele>
        <time>2017-01-17T15:24:10Z</time>
      </trkpt>
      <trkpt lat="49.39466" lon="1.12264">
        <ele>2</ele>
        <time>2017-01-17T15:24:26Z</time>
      </trkpt>
      <trkpt lat="49.3947" lon="1.12262">
        <ele>2</ele>
        <time>2017-01-17T15:24:26Z</time>
      </trkpt>
      <trkpt lat="49.39475" lon="1.1226">
        <ele>2</ele>
        <time>2017-01-17T15:24:26Z</time>
      </trkpt>
      <trkpt lat="49.39481" lon="1.12258">
        <ele>2</ele>
        <time>2017-01-17T15:24:26Z</time>
      </trkpt>
      <trkpt lat="49.39486" lon="1.12257">
        <ele>2</ele>
        <time>2017-01-17T15:24:42Z</time>
      </trkpt>
      <trkpt lat="49.39491" lon="1.12255">
        <ele>2</ele>
        <time>2017-01-17T15:24:42Z</time>
      </trkpt>
      <trkpt lat="49.39496" lon="1.12255">
        <ele>2</ele>
        <time>2017-01-17T15:24:42Z</time>
      </trkpt>
      <trkpt lat="49.39501" lon="1.12253">
        <ele>2</ele>
        <time>2017-01-17T15:24:42Z</time>
      </trkpt>
      <trkpt lat="49.39505" lon="1.12252">
        <ele>2</ele>
        <time>2017-01-17T15:24:58Z</time>
      </trkpt>
      <trkpt lat="49.39511" lon="1.12252">
        <ele>2</ele>
        <time>2017-01-17T15:24:58Z</time>
      </trkpt>
      <trkpt lat="49.39519" lon="1.12251">
        <ele>2</ele>
        <time>2017-01-17T15:24:58Z</time>
      </trkpt>
      <trkpt lat="49.39525" lon="1.12251">
        <ele>2</ele>
        <time>2017-01-17T15:24:58Z</time>
      </trkpt>
      <trkpt lat="49.39529" lon="1.1225">
        <ele>2</ele>
        <time>2017-01-17T15:25:14Z</time>
      </trkpt>
      <trkpt lat="49.39535" lon="1.1225">
        <ele>2</ele>
        <time>2017-01-17T15:25:14Z</time>
      </trkpt>
      <trkpt lat="49.39542" lon="1.12248">
        <ele>2</ele>
        <time>2017-01-17T15:25:14Z</time>
      </trkpt>
      <trkpt lat="49.39547" lon="1.12249">
        <ele>2</ele>
        <time>2017-01-17T15:25:14Z</time>
      </trkpt>
      <trkpt lat="49.39552" lon="1.12248">
        <ele>2</ele>
        <time>2017-01-17T15:25:30Z</time>
      </trkpt>
      <trkpt lat="49.39556" lon="1.12249">
        <ele>2</ele>
        <time>2017-01-17T15:25:30Z</time>
      </trkpt>
      <trkpt lat="49.39561" lon="1.12249">
        <ele>2</ele>
        <time>2017-01-17T15:25:30Z</time>
      </trkpt>
      <trkpt lat="49.39564" lon="1.1225">
        <ele>2</ele>
        <time>2017-01-17T15:25:30Z</time>
      </trkpt>
      <trkpt lat="49.39568" lon="1.12251">
        <ele>2</ele>
        <time>2017-01-17T15:25:46Z</time>
      </trkpt>
      <trkpt lat="49.39573" lon="1.12251">
        <ele>2</ele>
        <time>2017-01-17T15:25:46Z</time>
      </trkpt>
      <trkpt lat="49.39579" lon="1.12251">
        <ele>2</ele>
        <time>2017-01-17T15:25:46Z</time>
      </trkpt>
      <trkpt lat="49.39584" lon="1.12251">
        <ele>2</ele>
        <time>2017-01-17T15:25:46Z</time>
      </trkpt>
      <trkpt lat="49.39588" lon="1.12251">
        <ele>2</ele>
        <time>2017-01-17T15:26:02Z</time>
      </trkpt>
      <trkpt lat="49.39595" lon="1.1225">
        <ele>2</ele>
        <time>2017-01-17T15:26:02Z</time>
      </trkpt>
      <trkpt lat="49.396" lon="1.12251">
        <ele>2</ele>
        <time>2017-01-17T15:26:02Z</time>
      </trkpt>
      <trkpt lat="49.39602" lon="1.1225">
        <ele>2</ele>
        <time>2017-01-17T15:26:02Z</time>
      </trkpt>
      <trkpt lat="49.39606" lon="1.12251">
        <ele>2</ele>
        <time>2017-01-17T15:26:18Z</time>
      </trkpt>
      <trkpt lat="49.39612" lon="1.12253">
        <ele>2</ele>
        <time>2017-01-17T15:26:18Z</time>
      </trkpt>
      <trkpt lat="49.39618" lon="1.12253">
        <ele>2</ele>
        <time>2017-01-17T15:26:18Z</time>
      </trkpt>
      <trkpt lat="49.39623" lon="1.12254">
        <ele>2</ele>
        <time>2017-01-17T15:26:18Z</time>
      </trkpt>
      <trkpt lat="49.39628" lon="1.12254">
        <ele>5</ele>
        <time>2017-01-17T15:26:34Z</time>
      </trkpt>
      <trkpt lat="49.39633" lon="1.12255">
        <ele>5</ele>
        <time>2017-01-17T15:26:34Z</time>
      </trkpt>
      <trkpt lat="49.39638" lon="1.12254">
        <ele>5</ele>
        <time>2017-01-17T15:26:34Z</time>
      </trkpt>
      <trkpt lat="49.39643" lon="1.12254">
        <ele>5</ele>
        <time>2017-01-17T15:26:34Z</time>
      </trkpt>
      <trkpt lat="49.39648" lon="1.12253">
        <ele>5</ele>
        <time>2017-01-17T15:26:50Z</time>
      </trkpt>
      <trkpt lat="49.39653" lon="1.12252">
        <ele>5</ele>
        <time>2017-01-17T15:26:50Z</time>
      </trkpt>
      <trkpt lat="49.39657" lon="1.12251">
        <ele>5</ele>
        <time>2017-01-17T15:26:50Z</time>
      </trkpt>
      <trkpt lat="49.39662" lon="1.12251">
        <ele>5</ele>
        <time>2017-01-17T15:26:50Z</time>
      </trkpt>
      <trkpt lat="49.39666" lon="1.12252">
        <ele>5</ele>
        <time>2017-01-17T15:27:06Z</time>
      </trkpt>
      <trkpt lat="49.39671" lon="1.12253">
        <ele>5</ele>
        <time>2017-01-17T15:27:06Z</time>
      </trkpt>
      <trkpt lat="49.39676" lon="1.12251">
        <ele>5</ele>
        <time>2017-01-17T15:27:06Z</time>
      </trkpt>
      <trkpt lat="49.39681" lon="1.1225">
        <ele>5</ele>
        <time>2017-01-17T15:27:06Z</time>
      </trkpt>
      <trkpt lat="49.39684" lon="1.12249">
        <ele>5</ele>
        <time>2017-01-17T15:27:22Z</time>
      </trkpt>
      <trkpt lat="49.3969" lon="1.12249">
        <ele>5</ele>
        <time>2017-01-17T15:27:22Z</time>
      </trkpt>
      <trkpt lat="49.39699" lon="1.12247">
        <ele>5</ele>
        <time>2017-01-17T15:27:22Z</time>
      </trkpt>
      <trkpt lat="49.39705" lon="1.12245">
        <ele>5</ele>
        <time>2017-01-17T15:27:22Z</time>
      </trkpt>
      <trkpt lat="49.3971" lon="1.12244">
        <ele>7</ele>
        <time>2017-01-17T15:27:38Z</time>
      </trkpt>
      <trkpt lat="49.39715" lon="1.12243">
        <ele>7</ele>
        <time>2017-01-17T15:27:38Z</time>
      </trkpt>
      <trkpt lat="49.39722" lon="1.12243">
        <ele>7</ele>
        <time>2017-01-17T15:27:38Z</time>
      </trkpt>
      <trkpt lat="49.39729" lon="1.12243">
        <ele>7</ele>
        <time>2017-01-17T15:27:38Z</time>
      </trkpt>
      <trkpt lat="49.39734" lon="1.12242">
        <ele>7</ele>
        <time>2017-01-17T15:27:54Z</time>
      </trkpt>
      <trkpt lat="49.39739" lon="1.12242">
        <ele>7</ele>
        <time>2017-01-17T15:27:54Z</time>
      </trkpt>
      <trkpt lat="49.39743" lon="1.12242">
        <ele>7</ele>
        <time>2017-01-17T15:27:54Z</time>
      </trkpt>
      <trkpt lat="49.39747" lon="1.12242">
        <ele>7</ele>
        <time>2017-01-17T15:27:54Z</time>
      </trkpt>
      <trkpt lat="49.39752" lon="1.12241">
        <ele>7</ele>
        <time>2017-01-17T15:28:10Z</time>
      </trkpt>
      <trkpt lat="49.39755" lon="1.1224">
        <ele>7</ele>
        <time>2017-01-17T15:28:10Z</time>
      </trkpt>
      <trkpt lat="49.39759" lon="1.1224">
        <ele>7</ele>
        <time>2017-01-17T15:28:10Z</time>
      </trkpt>
      <trkpt lat="49.39764" lon="1.12241">
        <ele>7</ele>
        <time>2017-01-17T15:28:10Z</time>
      </trkpt>
      <trkpt lat="49.3977" lon="1.12241">
        <ele>7</ele>
        <time>2017-01-17T15:28:26Z</time>
      </trkpt>
      <trkpt lat="49.39775" lon="1.12243">
        <ele>7</ele>
        <time>2017-01-17T15:28:26Z</time>
      </trkpt>
      <trkpt lat="49.3978" lon="1.12245">
        <ele>7</ele>
        <time>2017-01-17T15:28:26Z</time>
      </trkpt>
      <trkpt lat="49.39786" lon="1.12245">
        <ele>7</ele>
        <time>2017-01-17T15:28:26Z</time>
      </trkpt>
      <trkpt lat="49.39791" lon="1.12244">
        <ele>7</ele>
        <time>2017-01-17T15:28:42Z</time>
      </trkpt>
      <trkpt lat="49.39797" lon="1.12244">
        <ele>8</ele>
        <time>2017-01-17T15:28:42Z</time>
      </trkpt>
      <trkpt lat="49.39802" lon="1.12245">
        <ele>8</ele>
        <time>2017-01-17T15:28:42Z</time>
      </trkpt>
      <trkpt lat="49.39808" lon="1.12246">
        <ele>8</ele>
        <time>2017-01-17T15:28:42Z</time>
      </trkpt>
      <trkpt lat="49.39813" lon="1.12247">
        <ele>8</ele>
        <time>2017-01-17T15:28:58Z</time>
      </trkpt>
      <trkpt lat="49.39818" lon="1.12246">
        <ele>8</ele>
        <time>2017-01-17T15:28:58Z</time>
      </trkpt>
      <trkpt lat="49.39823" lon="1.12245">
        <ele>8</ele>
        <time>2017-01-17T15:28:58Z</time>
      </trkpt>
      <trkpt lat="49.39829" lon="1.12245">
        <ele>8</ele>
        <time>2017-01-17T15:28:58Z</time>
      </trkpt>
      <trkpt lat="49.39835" lon="1.12244">
        <ele>8</ele>
        <time>2017-01-17T15:29:14Z</time>
      </trkpt>
      <trkpt lat="49.39838" lon="1.12245">
        <ele>8</ele>
        <time>2017-01-17T15:29:14Z</time>
      </trkpt>
      <trkpt lat="49.39844" lon="1.12244">
        <ele>8</ele>
        <time>2017-01-17T15:29:14Z</time>
      </trkpt>
      <trkpt lat="49.39849" lon="1.12244">
        <ele>8</ele>
        <time>2017-01-17T15:29:14Z</time>
      </trkpt>
      <trkpt lat="49.39853" lon="1.12243">
        <ele>8</ele>
        <time>2017-01-17T15:29:30Z</time>
      </trkpt>
      <trkpt lat="49.39857" lon="1.12242">
        <ele>8</ele>
        <time>2017-01-17T15:29:30Z</time>
      </trkpt>
      <trkpt lat="49.39863" lon="1.12243">
        <ele>8</ele>
        <time>2017-01-17T15:29:30Z</time>
      </trkpt>
      <trkpt lat="49.39869" lon="1.12242">
        <ele>8</ele>
        <time>2017-01-17T15:29:30Z</time>
      </trkpt>
      <trkpt lat="49.39873" lon="1.12242">
        <ele>8</ele>
        <time>2017-01-17T15:29:46Z</time>
      </trkpt>
      <trkpt lat="49.39879" lon="1.12242">
        <ele>5</ele>
        <time>2017-01-17T15:29:46Z</time>
      </trkpt>
      <trkpt lat="49.39884" lon="1.1224">
        <ele>5</ele>
        <time>2017-01-17T15:29:46Z</time>
      </trkpt>
      <trkpt lat="49.39889" lon="1.12239">
        <ele>5</ele>
        <time>2017-01-17T15:29:46Z</time>
      </trkpt>
      <trkpt lat="49.39894" lon="1.12238">
        <ele>5</ele>
        <time>2017-01-17T15:30:02Z</time>
      </trkpt>
      <trkpt lat="49.39898" lon="1.12237">
        <ele>5</ele>
        <time>2017-01-17T15:30:02Z</time>
      </trkpt>
      <trkpt lat="49.39903" lon="1.12236">
        <ele>5</ele>
        <time>2017-01-17T15:30:02Z</time>
      </trkpt>
      <trkpt lat="49.39908" lon="1.12235">
        <ele>5</ele>
        <time>2017-01-17T15:30:02Z</time>
      </trkpt>
      <trkpt lat="49.39914" lon="1.12234">
        <ele>5</ele>
        <time>2017-01-17T15:30:18Z</time>
      </trkpt>
      <trkpt lat="49.39917" lon="1.12233">
        <ele>5</ele>
        <time>2017-01-17T15:30:18Z</time>
      </trkpt>
      <trkpt lat="49.39923" lon="1.12233">
        <ele>5</ele>
        <time>2017-01-17T15:30:18Z</time>
      </trkpt>
      <trkpt lat="49.39929" lon="1.12232">
        <ele>5</ele>
        <time>2017-01-17T15:30:18Z</time>
      </trkpt>
      <trkpt lat="49.39934" lon="1.12232">
        <ele>5</ele>
        <time>2017-01-17T15:30:34Z</time>
      </trkpt>
      <trkpt lat="49.39938" lon="1.12232">
        <ele>5</ele>
        <time>2017-01-17T15:30:34Z</time>
      </trkpt>
      <trkpt lat="49.39944" lon="1.12231">
        <ele>5</ele>
        <time>2017-01-17T15:30:34Z</time>
      </trkpt>
      <trkpt lat="49.39949" lon="1.1223">
        <ele>5</ele>
        <time>2017-01-17T15:30:34Z</time>
      </trkpt>
      <trkpt lat="49.39953" lon="1.12231">
        <ele>5</ele>
        <time>2017-01-17T15:30:50Z</time>
      </trkpt>
      <trkpt lat="49.39957" lon="1.12231">
        <ele>5</ele>
        <time>2017-01-17T15:30:50Z</time>
      </trkpt>
      <trkpt lat="49.3996" lon="1.12231">
        <ele>3</ele>
        <time>2017-01-17T15:30:50Z</time>
      </trkpt>
      <trkpt lat="49.39965" lon="1.12231">
        <ele>3</ele>
        <time>2017-01-17T15:30:50Z</time>
      </trkpt>
      <trkpt lat="49.3997" lon="1.12231">
        <ele>3</ele>
        <time>2017-01-17T15:31:06Z</time>
      </trkpt>
      <trkpt lat="49.39977" lon="1.12231">
        <ele>3</ele>
        <time>2017-01-17T15:31:06Z</time>
      </trkpt>
      <trkpt lat="49.3998" lon="1.1223">
        <ele>3</ele>
        <time>2017-01-17T15:31:06Z</time>
      </trkpt>
      <trkpt lat="49.39983" lon="1.1223">
        <ele>3</ele>
        <time>2017-01-17T15:31:06Z</time>
      </trkpt>
      <trkpt lat="49.39986" lon="1.1223">
        <ele>3</ele>
        <time>2017-01-17T15:31:22Z</time>
      </trkpt>
      <trkpt lat="49.39993" lon="1.1223">
        <ele>3</ele>
        <time>2017-01-17T15:31:22Z</time>
      </trkpt>
      <trkpt lat="49.4" lon="1.12228">
        <ele>3</ele>
        <time>2017-01-17T15:31:22Z</time>
      </trkpt>
      <trkpt lat="49.40006" lon="1.12228">
        <ele>3</ele>
        <time>2017-01-17T15:31:22Z</time>
      </trkpt>
      <trkpt lat="49.40011" lon="1.12229">
        <ele>3</ele>
        <time>2017-01-17T15:31:38Z</time>
      </trkpt>
      <trkpt lat="49.40016" lon="1.12229">
        <ele>3</ele>
        <time>2017-01-17T15:31:38Z</time>
      </trkpt>
      <trkpt lat="49.40019" lon="1.12231">
        <ele>3</ele>
        <time>2017-01-17T15:31:38Z</time>
      </trkpt>
      <trkpt lat="49.40023" lon="1.12233">
        <ele>3</ele>
        <time>2017-01-17T15:31:38Z</time>
      </trkpt>
      <trkpt lat="49.4003" lon="1.12235">
        <ele>3</ele>
        <time>2017-01-17T15:31:54Z</time>
      </trkpt>
      <trkpt lat="49.40035" lon="1.12236">
        <ele>3</ele>
        <time>2017-01-17T15:31:54Z</time>
      </trkpt>
      <trkpt lat="49.4004" lon="1.12235">
        <ele>3</ele>
        <time>2017-01-17T15:31:54Z</time>
      </trkpt>
      <trkpt lat="49.40046" lon="1.12234">
        <ele>4</ele>
        <time>2017-01-17T15:31:54Z</time>
      </trkpt>
      <trkpt lat="49.40051" lon="1.12233">
        <ele>4</ele>
        <time>2017-01-17T15:32:10Z</time>
      </trkpt>
      <trkpt lat="49.40055" lon="1.12235">
        <ele>4</ele>
        <time>2017-01-17T15:32:10Z</time>
      </trkpt>
      <trkpt lat="49.40059" lon="1.12235">
        <ele>4</ele>
        <time>2017-01-17T15:32:10Z</time>
      </trkpt>
      <trkpt lat="49.40063" lon="1.12234">
        <ele>4</ele>
        <time>2017-01-17T15:32:10Z</time>
      </trkpt>
      <trkpt lat="49.40069" lon="1.12233">
        <ele>4</ele>
        <time>2017-01-17T15:32:26Z</time>
      </trkpt>
      <trkpt lat="49.40075" lon="1.12233">
        <ele>4</ele>
        <time>2017-01-17T15:32:26Z</time>
      </trkpt>
      <trkpt lat="49.40079" lon="1.12233">
        <ele>4</ele>
        <time>2017-01-17T15:32:26Z</time>
      </trkpt>
      <trkpt lat="49.40083" lon="1.12233">
        <ele>4</ele>
        <time>2017-01-17T15:32:26Z</time>
      </trkpt>
      <trkpt lat="49.40091" lon="1.12231">
        <ele>4</ele>
        <time>2017-01-17T15:32:43Z</time>
      </trkpt>
      <trkpt lat="49.40097" lon="1.12231">
        <ele>4</ele>
        <time>2017-01-17T15:32:43Z</time>
      </trkpt>
      <trkpt lat="49.40101" lon="1.1223">
        <ele>4</ele>
        <time>2017-01-17T15:32:43Z</time>
      </trkpt>
      <trkpt lat="49.40107" lon="1.12229">
        <ele>4</ele>
        <time>2017-01-17T15:32:43Z</time>
      </trkpt>
      <trkpt lat="49.40112" lon="1.12229">
        <ele>4</ele>
        <time>2017-01-17T15:32:58Z</time>
      </trkpt>
      <trkpt lat="49.40116" lon="1.12228">
        <ele>4</ele>
        <time>2017-01-17T15:32:58Z</time>
      </trkpt>
      <trkpt lat="49.40121" lon="1.12228">
        <ele>4</ele>
        <time>2017-01-17T15:32:58Z</time>
      </trkpt>
      <trkpt lat="49.40128" lon="1.12228">
        <ele>4</ele>
        <time>2017-01-17T15:32:58Z</time>
      </trkpt>
      <trkpt lat="49.40132" lon="1.12226">
        <ele>4</ele>
        <time>2017-01-17T15:33:14Z</time>
      </trkpt>
      <trkpt lat="49.40136" lon="1.12226">
        <ele>4</ele>
        <time>2017-01-17T15:33:14Z</time>
      </trkpt>
      <trkpt lat="49.40143" lon="1.12225">
        <ele>4</ele>
        <time>2017-01-17T15:33:14Z</time>
      </trkpt>
      <trkpt lat="49.40148" lon="1.12225">
        <ele>4</ele>
        <time>2017-01-17T15:33:14Z</time>
      </trkpt>
      <trkpt lat="49.40153" lon="1.12225">
        <ele>4</ele>
        <time>2017-01-17T15:33:30Z</time>
      </trkpt>
      <trkpt lat="49.40156" lon="1.12224">
        <ele>4</ele>
        <time>2017-01-17T15:33:30Z</time>
      </trkpt>
      <trkpt lat="49.4016" lon="1.12223">
        <ele>4</ele>
        <time>2017-01-17T15:33:30Z</time>
      </trkpt>
      <trkpt lat="49.40164" lon="1.12222">
        <ele>4</ele>
        <time>2017-01-17T15:33:30Z</time>
      </trkpt>
      <trkpt lat="49.40168" lon="1.12221">
        <ele>4</ele>
        <time>2017-01-17T15:33:46Z</time>
      </trkpt>
      <trkpt lat="49.40173" lon="1.12221">
        <ele>4</ele>
        <time>2017-01-17T15:33:46Z</time>
      </trkpt>
      <trkpt lat="49.40178" lon="1.1222">
        <ele>4</ele>
        <time>2017-01-17T15:33:46Z</time>
      </trkpt>
      <trkpt lat="49.40186" lon="1.12219">
        <ele>4</ele>
        <time>2017-01-17T15:33:46Z</time>
      </trkpt>
      <trkpt lat="49.40192" lon="1.12219">
        <ele>4</ele>
        <time>2017-01-17T15:34:02Z</time>
      </trkpt>
      <trkpt lat="49.40197" lon="1.12219">
        <ele>4</ele>
        <time>2017-01-17T15:34:02Z</time>
      </trkpt>
      <trkpt lat="49.402" lon="1.12219">
        <ele>4</ele>
        <time>2017-01-17T15:34:02Z</time>
      </trkpt>
      <trkpt lat="49.40204" lon="1.12219">
        <ele>4</ele>
        <time>2017-01-17T15:34:02Z</time>
      </trkpt>
      <trkpt lat="49.4021" lon="1.12218">
        <ele>6</ele>
        <time>2017-01-17T15:34:18Z</time>
      </trkpt>
      <trkpt lat="49.40217" lon="1.12216">
        <ele>6</ele>
        <time>2017-01-17T15:34:18Z</time>
      </trkpt>
      <trkpt lat="49.40223" lon="1.12216">
        <ele>6</ele>
        <time>2017-01-17T15:34:18Z</time>
      </trkpt>
      <trkpt lat="49.40228" lon="1.12216">
        <ele>6</ele>
        <time>2017-01-17T15:34:18Z</time>
      </trkpt>
      <trkpt lat="49.40231" lon="1.12215">
        <ele>6</ele>
        <time>2017-01-17T15:34:34Z</time>
      </trkpt>
      <trkpt lat="49.40236" lon="1.12214">
        <ele>6</ele>
        <time>2017-01-17T15:34:34Z</time>
      </trkpt>
      <trkpt lat="49.40242" lon="1.12214">
        <ele>6</ele>
        <time>2017-01-17T15:34:34Z</time>
      </trkpt>
      <trkpt lat="49.40247" lon="1.12214">
        <ele>6</ele>
        <time>2017-01-17T15:34:34Z</time>
      </trkpt>
      <trkpt lat="49.4025" lon="1.12213">
        <ele>6</ele>
        <time>2017-01-17T15:34:50Z</time>
      </trkpt>
      <trkpt lat="49.40255" lon="1.12212">
        <ele>6</ele>
        <time>2017-01-17T15:34:50Z</time>
      </trkpt>
      <trkpt lat="49.40259" lon="1.12212">
        <ele>6</ele>
        <time>2017-01-17T15:34:50Z</time>
      </trkpt>
      <trkpt lat="49.40264" lon="1.12211">
        <ele>6</ele>
        <time>2017-01-17T15:34:50Z</time>
      </trkpt>
      <trkpt lat="49.4027" lon="1.1221">
        <ele>6</ele>
        <time>2017-01-17T15:35:06Z</time>
      </trkpt>
      <trkpt lat="49.40275" lon="1.12208">
        <ele>2</ele>
        <time>2017-01-17T15:35:06Z</time>
      </trkpt>
      <trkpt lat="49.40281" lon="1.12207">
        <ele>2</ele>
        <time>2017-01-17T15:35:06Z</time>
      </trkpt>
      <trkpt lat="49.40285" lon="1.12208">
        <ele>2</ele>
        <time>2017-01-17T15:35:06Z</time>
      </trkpt>
      <trkpt lat="49.40289" lon="1.12208">
        <ele>2</ele>
        <time>2017-01-17T15:35:22Z</time>
      </trkpt>
      <trkpt lat="49.40294" lon="1.12209">
        <ele>7</ele>
        <time>2017-01-17T15:35:22Z</time>
      </trkpt>
      <trkpt lat="49.40298" lon="1.1221">
        <ele>7</ele>
        <time>2017-01-17T15:35:22Z</time>
      </trkpt>
      <trkpt lat="49.40303" lon="1.1221">
        <ele>7</ele>
        <time>2017-01-17T15:35:22Z</time>
      </trkpt>
      <trkpt lat="49.40307" lon="1.12207">
        <ele>2</ele>
        <time>2017-01-17T15:35:38Z</time>
      </trkpt>
      <trkpt lat="49.40313" lon="1.12205">
        <ele>2</ele>
        <time>2017-01-17T15:35:38Z</time>
      </trkpt>
      <trkpt lat="49.40318" lon="1.12204">
        <ele>2</ele>
        <time>2017-01-17T15:35:38Z</time>
      </trkpt>
      <trkpt lat="49.40324" lon="1.12202">
        <ele>2</ele>
        <time>2017-01-17T15:35:38Z</time>
      </trkpt>
      <trkpt lat="49.40329" lon="1.122">
        <ele>2</ele>
        <time>2017-01-17T15:35:54Z</time>
      </trkpt>
      <trkpt lat="49.40334" lon="1.122">
        <ele>2</ele>
        <time>2017-01-17T15:35:54Z</time>
      </trkpt>
      <trkpt lat="49.40338" lon="1.122">
        <ele>2</ele>
        <time>2017-01-17T15:35:54Z</time>
      </trkpt>
      <trkpt lat="49.40344" lon="1.12199">
        <ele>2</ele>
        <time>2017-01-17T15:35:54Z</time>
      </trkpt>
      <trkpt lat="49.40349" lon="1.12197">
        <ele>2</ele>
        <time>2017-01-17T15:36:10Z</time>
      </trkpt>
      <trkpt lat="49.40354" lon="1.12198">
        <ele>2</ele>
        <time>2017-01-17T15:36:10Z</time>
      </trkpt>
      <trkpt lat="49.40359" lon="1.12196">
        <ele>2</ele>
        <time>2017-01-17T15:36:10Z</time>
      </trkpt>
      <trkpt lat="49.40363" lon="1.12197">
        <ele>2</ele>
        <time>2017-01-17T15:36:10Z</time>
      </trkpt>
      <trkpt lat="49.40367" lon="1.12196">
        <ele>2</ele>
        <time>2017-01-17T15:36:26Z</time>
      </trkpt>
      <trkpt lat="49.40372" lon="1.12196">
        <ele>2</ele>
        <time>2017-01-17T15:36:26Z</time>
      </trkpt>
      <trkpt lat="49.40378" lon="1.12195">
        <ele>2</ele>
        <time>2017-01-17T15:36:26Z</time>
      </trkpt>
      <trkpt lat="49.40383" lon="1.12194">
        <ele>2</ele>
        <time>2017-01-17T15:36:26Z</time>
      </trkpt>
      <trkpt lat="49.4039" lon="1.12193">
        <ele>2</ele>
        <time>2017-01-17T15:36:42Z</time>
      </trkpt>
      <trkpt lat="49.40394" lon="1.12192">
        <ele>2</ele>
        <time>2017-01-17T15:36:42Z</time>
      </trkpt>
      <trkpt lat="49.40399" lon="1.1219">
        <ele>2</ele>
        <time>2017-01-17T15:36:42Z</time>
      </trkpt>
      <trkpt lat="49.40405" lon="1.12189">
        <ele>2</ele>
        <time>2017-01-17T15:36:42Z</time>
      </trkpt>
      <trkpt lat="49.40409" lon="1.12189">
        <ele>2</ele>
        <time>2017-01-17T15:36:58Z</time>
      </trkpt>
      <trkpt lat="49.40414" lon="1.12189">
        <ele>2</ele>
        <time>2017-01-17T15:36:58Z</time>
      </trkpt>
      <trkpt lat="49.4042" lon="1.12187">
        <ele>2</ele>
        <time>2017-01-17T15:36:58Z</time>
      </trkpt>
      <trkpt lat="49.40426" lon="1.12186">
        <ele>2</ele>
        <time>2017-01-17T15:36:58Z</time>
      </trkpt>
      <trkpt lat="49.40431" lon="1.12186">
        <ele>2</ele>
        <time>2017-01-17T15:37:14Z</time>
      </trkpt>
      <trkpt lat="49.40436" lon="1.12186">
        <ele>2</ele>
        <time>2017-01-17T15:37:14Z</time>
      </trkpt>
      <trkpt lat="49.40442" lon="1.12185">
        <ele>2</ele>
        <time>2017-01-17T15:37:14Z</time>
      </trkpt>
      <trkpt lat="49.40445" lon="1.12183">
        <ele>2</ele>
        <time>2017-01-17T15:37:14Z</time>
      </trkpt>
      <trkpt lat="49.40452" lon="1.12181">
        <ele>2</ele>
        <time>2017-01-17T15:37:30Z</time>
      </trkpt>
      <trkpt lat="49.40458" lon="1.1218">
        <ele>13</ele>
        <time>2017-01-17T15:37:30Z</time>
      </trkpt>
      <trkpt lat="49.40464" lon="1.12179">
        <ele>13</ele>
        <time>2017-01-17T15:37:30Z</time>
      </trkpt>
      <trkpt lat="49.40468" lon="1.12178">
        <ele>13</ele>
        <time>2017-01-17T15:37:30Z</time>
      </trkpt>
      <trkpt lat="49.40472" lon="1.12176">
        <ele>13</ele>
        <time>2017-01-17T15:37:46Z</time>
      </trkpt>
      <trkpt lat="49.40477" lon="1.12175">
        <ele>13</ele>
        <time>2017-01-17T15:37:46Z</time>
      </trkpt>
      <trkpt lat="49.40482" lon="1.12175">
        <ele>13</ele>
        <time>2017-01-17T15:37:46Z</time>
      </trkpt>
      <trkpt lat="49.40486" lon="1.12174">
        <ele>13</ele>
        <time>2017-01-17T15:37:46Z</time>
      </trkpt>
      <trkpt lat="49.40491" lon="1.12174">
        <ele>13</ele>
        <time>2017-01-17T15:38:02Z</time>
      </trkpt>
      <trkpt lat="49.40497" lon="1.12173">
        <ele>13</ele>
        <time>2017-01-17T15:38:02Z</time>
      </trkpt>
      <trkpt lat="49.40502" lon="1.12173">
        <ele>13</ele>
        <time>2017-01-17T15:38:02Z</time>
      </trkpt>
      <trkpt lat="49.40506" lon="1.12172">
        <ele>13</ele>
        <time>2017-01-17T15:38:02Z</time>
      </trkpt>
      <trkpt lat="49.4051" lon="1.1217">
        <ele>13</ele>
        <time>2017-01-17T15:38:18Z</time>
      </trkpt>
      <trkpt lat="49.40516" lon="1.1217">
        <ele>13</ele>
        <time>2017-01-17T15:38:18Z</time>
      </trkpt>
      <trkpt lat="49.40521" lon="1.12168">
        <ele>13</ele>
        <time>2017-01-17T15:38:18Z</time>
      </trkpt>
      <trkpt lat="49.40526" lon="1.12167">
        <ele>13</ele>
        <time>2017-01-17T15:38:18Z</time>
      </trkpt>
      <trkpt lat="49.40531" lon="1.12166">
        <ele>13</ele>
        <time>2017-01-17T15:38:34Z</time>
      </trkpt>
      <trkpt lat="49.40536" lon="1.12165">
        <ele>13</ele>
        <time>2017-01-17T15:38:34Z</time>
      </trkpt>
      <trkpt lat="49.4054" lon="1.12163">
        <ele>13</ele>
        <time>2017-01-17T15:38:34Z</time>
      </trkpt>
      <trkpt lat="49.40544" lon="1.12161">
        <ele>7</ele>
        <time>2017-01-17T15:38:34Z</time>
      </trkpt>
      <trkpt lat="49.40549" lon="1.1216">
        <ele>7</ele>
        <time>2017-01-17T15:38:50Z</time>
      </trkpt>
      <trkpt lat="49.40553" lon="1.12159">
        <ele>7</ele>
        <time>2017-01-17T15:38:50Z</time>
      </trkpt>
      <trkpt lat="49.40559" lon="1.12159">
        <ele>7</ele>
        <time>2017-01-17T15:38:50Z</time>
      </trkpt>
      <trkpt lat="49.40565" lon="1.12158">
        <ele>7</ele>
        <time>2017-01-17T15:38:50Z</time>
      </trkpt>
      <trkpt lat="49.40571" lon="1.12158">
        <ele>7</ele>
        <time>2017-01-17T15:39:06Z</time>
      </trkpt>
      <trkpt lat="49.40575" lon="1.12156">
        <ele>7</ele>
        <time>2017-01-17T15:39:06Z</time>
      </trkpt>
      <trkpt lat="49.4058" lon="1.12156">
        <ele>7</ele>
        <time>2017-01-17T15:39:06Z</time>
      </trkpt>
      <trkpt lat="49.40585" lon="1.12154">
        <ele>7</ele>
        <time>2017-01-17T15:39:06Z</time>
      </trkpt>
      <trkpt lat="49.4059" lon="1.12153">
        <ele>7</ele>
        <time>2017-01-17T15:39:22Z</time>
      </trkpt>
      <trkpt lat="49.40593" lon="1.12152">
        <ele>7</ele>
        <time>2017-01-17T15:39:22Z</time>
      </trkpt>
      <trkpt lat="49.40597" lon="1.1215">
        <ele>7</ele>
        <time>2017-01-17T15:39:22Z</time>
      </trkpt>
      <trkpt lat="49.40601" lon="1.1215">
        <ele>7</ele>
        <time>2017-01-17T15:39:22Z</time>
      </trkpt>
      <trkpt lat="49.40606" lon="1.12148">
        <ele>7</ele>
        <time>2017-01-17T15:39:38Z</time>
      </trkpt>
      <trkpt lat="49.40611" lon="1.12147">
        <ele>7</ele>
        <time>2017-01-17T15:39:38Z</time>
      </trkpt>
      <trkpt lat="49.40617" lon="1.12145">
        <ele>7</ele>
        <time>2017-01-17T15:39:38Z</time>
      </trkpt>
      <trkpt lat="49.40622" lon="1.12145">
        <ele>7</ele>
        <time>2017-01-17T15:39:38Z</time>
      </trkpt>
      <trkpt lat="49.40626" lon="1.12145">
        <ele>7</ele>
        <time>2017-01-17T15:39:54Z</time>
      </trkpt>
      <trkpt lat="49.40632" lon="1.12144">
        <ele>7</ele>
        <time>2017-01-17T15:39:54Z</time>
      </trkpt>
      <trkpt lat="49.4064" lon="1.12142">
        <ele>7</ele>
        <time>2017-01-17T15:39:54Z</time>
      </trkpt>
      <trkpt lat="49.40646" lon="1.1214">
        <ele>7</ele>
        <time>2017-01-17T15:39:54Z</time>
      </trkpt>
      <trkpt lat="49.4065" lon="1.12139">
        <ele>7</ele>
        <time>2017-01-17T15:40:10Z</time>
      </trkpt>
      <trkpt lat="49.40654" lon="1.12138">
        <ele>7</ele>
        <time>2017-01-17T15:40:10Z</time>
      </trkpt>
      <trkpt lat="49.40659" lon="1.12136">
        <ele>7</ele>
        <time>2017-01-17T15:40:10Z</time>
      </trkpt>
      <trkpt lat="49.40663" lon="1.12136">
        <ele>7</ele>
        <time>2017-01-17T15:40:10Z</time>
      </trkpt>
      <trkpt lat="49.40669" lon="1.12135">
        <ele>7</ele>
        <time>2017-01-17T15:40:26Z</time>
      </trkpt>
      <trkpt lat="49.40675" lon="1.12134">
        <ele>7</ele>
        <time>2017-01-17T15:40:26Z</time>
      </trkpt>
      <trkpt lat="49.4068" lon="1.12133">
        <ele>7</ele>
        <time>2017-01-17T15:40:26Z</time>
      </trkpt>
      <trkpt lat="49.40686" lon="1.12131">
        <ele>7</ele>
        <time>2017-01-17T15:40:26Z</time>
      </trkpt>
      <trkpt lat="49.40689" lon="1.1213">
        <ele>7</ele>
        <time>2017-01-17T15:40:42Z</time>
      </trkpt>
      <trkpt lat="49.40694" lon="1.1213">
        <ele>7</ele>
        <time>2017-01-17T15:40:42Z</time>
      </trkpt>
      <trkpt lat="49.40697" lon="1.12128">
        <ele>7</ele>
        <time>2017-01-17T15:40:42Z</time>
      </trkpt>
      <trkpt lat="49.40703" lon="1.12127">
        <ele>7</ele>
        <time>2017-01-17T15:40:42Z</time>
      </trkpt>
      <trkpt lat="49.40707" lon="1.12125">
        <ele>2</ele>
        <time>2017-01-17T15:40:58Z</time>
      </trkpt>
      <trkpt lat="49.40713" lon="1.12123">
        <ele>2</ele>
        <time>2017-01-17T15:40:58Z</time>
      </trkpt>
      <trkpt lat="49.40719" lon="1.12121">
        <ele>2</ele>
        <time>2017-01-17T15:40:58Z</time>
      </trkpt>
      <trkpt lat="49.40724" lon="1.1212">
        <ele>2</ele>
        <time>2017-01-17T15:40:58Z</time>
      </trkpt>
      <trkpt lat="49.40729" lon="1.12117">
        <ele>2</ele>
        <time>2017-01-17T15:41:14Z</time>
      </trkpt>
      <trkpt lat="49.40734" lon="1.12116">
        <ele>2</ele>
        <time>2017-01-17T15:41:14Z</time>
      </trkpt>
      <trkpt lat="49.40739" lon="1.12114">
        <ele>2</ele>
        <time>2017-01-17T15:41:14Z</time>
      </trkpt>
      <trkpt lat="49.40744" lon="1.12113">
        <ele>2</ele>
        <time>2017-01-17T15:41:14Z</time>
      </trkpt>
      <trkpt lat="49.40749" lon="1.12111">
        <ele>2</ele>
        <time>2017-01-17T15:41:30Z</time>
      </trkpt>
      <trkpt lat="49.40754" lon="1.12111">
        <ele>2</ele>
        <time>2017-01-17T15:41:30Z</time>
      </trkpt>
      <trkpt lat="49.40758" lon="1.12109">
        <ele>2</ele>
        <time>2017-01-17T15:41:30Z</time>
      </trkpt>
      <trkpt lat="49.40761" lon="1.12109">
        <ele>2</ele>
        <time>2017-01-17T15:41:30Z</time>
      </trkpt>
      <trkpt lat="49.40766" lon="1.12108">
        <ele>2</ele>
        <time>2017-01-17T15:41:46Z</time>
      </trkpt>
      <trkpt lat="49.40772" lon="1.12107">
        <ele>2</ele>
        <time>2017-01-17T15:41:46Z</time>
      </trkpt>
      <trkpt lat="49.40778" lon="1.12106">
        <ele>2</ele>
        <time>2017-01-17T15:41:46Z</time>
      </trkpt>
      <trkpt lat="49.40784" lon="1.12105">
        <ele>2</ele>
        <time>2017-01-17T15:41:46Z</time>
      </trkpt>
      <trkpt lat="49.40788" lon="1.12104">
        <ele>2</ele>
        <time>2017-01-17T15:42:02Z</time>
      </trkpt>
      <trkpt lat="49.40793" lon="1.12102">
        <ele>3</ele>
        <time>2017-01-17T15:42:02Z</time>
      </trkpt>
      <trkpt lat="49.40797" lon="1.12101">
        <ele>3</ele>
        <time>2017-01-17T15:42:02Z</time>
      </trkpt>
      <trkpt lat="49.40801" lon="1.121">
        <ele>3</ele>
        <time>2017-01-17T15:42:02Z</time>
      </trkpt>
      <trkpt lat="49.40806" lon="1.12098">
        <ele>3</ele>
        <time>2017-01-17T15:42:18Z</time>
      </trkpt>
      <trkpt lat="49.4081" lon="1.12098">
        <ele>3</ele>
        <time>2017-01-17T15:42:18Z</time>
      </trkpt>
      <trkpt lat="49.40817" lon="1.12096">
        <ele>3</ele>
        <time>2017-01-17T15:42:18Z</time>
      </trkpt>
      <trkpt lat="49.40822" lon="1.12096">
        <ele>3</ele>
        <time>2017-01-17T15:42:18Z</time>
      </trkpt>
      <trkpt lat="49.40826" lon="1.12095">
        <ele>3</ele>
        <time>2017-01-17T15:42:34Z</time>
      </trkpt>
      <trkpt lat="49.40833" lon="1.12094">
        <ele>3</ele>
        <time>2017-01-17T15:42:34Z</time>
      </trkpt>
      <trkpt lat="49.40838" lon="1.12093">
        <ele>3</ele>
        <time>2017-01-17T15:42:34Z</time>
      </trkpt>
      <trkpt lat="49.40842" lon="1.12092">
        <ele>3</ele>
        <time>2017-01-17T15:42:34Z</time>
      </trkpt>
      <trkpt lat="49.40845" lon="1.12092">
        <ele>3</ele>
        <time>2017-01-17T15:42:50Z</time>
      </trkpt>
      <trkpt lat="49.4085" lon="1.12089">
        <ele>3</ele>
        <time>2017-01-17T15:42:50Z</time>
      </trkpt>
      <trkpt lat="49.40856" lon="1.12086">
        <ele>3</ele>
        <time>2017-01-17T15:42:50Z</time>
      </trkpt>
      <trkpt lat="49.40862" lon="1.12084">
        <ele>3</ele>
        <time>2017-01-17T15:42:50Z</time>
      </trkpt>
      <trkpt lat="49.40865" lon="1.12085">
        <ele>3</ele>
        <time>2017-01-17T15:43:06Z</time>
      </trkpt>
      <trkpt lat="49.4087" lon="1.1209">
        <ele>3</ele>
        <time>2017-01-17T15:43:06Z</time>
      </trkpt>
      <trkpt lat="49.40875" lon="1.12088">
        <ele>3</ele>
        <time>2017-01-17T15:43:06Z</time>
      </trkpt>
      <trkpt lat="49.40881" lon="1.12087">
        <ele>5</ele>
        <time>2017-01-17T15:43:06Z</time>
      </trkpt>
      <trkpt lat="49.40885" lon="1.12086">
        <ele>5</ele>
        <time>2017-01-17T15:43:22Z</time>
      </trkpt>
      <trkpt lat="49.4089" lon="1.12087">
        <ele>5</ele>
        <time>2017-01-17T15:43:22Z</time>
      </trkpt>
      <trkpt lat="49.40895" lon="1.12089">
        <ele>5</ele>
        <time>2017-01-17T15:43:22Z</time>
      </trkpt>
      <trkpt lat="49.40899" lon="1.1209">
        <ele>5</ele>
        <time>2017-01-17T15:43:22Z</time>
      </trkpt>
      <trkpt lat="49.40904" lon="1.12089">
        <ele>5</ele>
        <time>2017-01-17T15:43:38Z</time>
      </trkpt>
      <trkpt lat="49.40908" lon="1.12086">
        <ele>5</ele>
        <time>2017-01-17T15:43:38Z</time>
      </trkpt>
      <trkpt lat="49.40913" lon="1.12082">
        <ele>5</ele>
        <time>2017-01-17T15:43:38Z</time>
      </trkpt>
      <trkpt lat="49.40917" lon="1.12078">
        <ele>5</ele>
        <time>2017-01-17T15:43:38Z</time>
      </trkpt>
      <trkpt lat="49.40922" lon="1.12075">
        <ele>5</ele>
        <time>2017-01-17T15:43:54Z</time>
      </trkpt>
      <trkpt lat="49.40927" lon="1.12072">
        <ele>5</ele>
        <time>2017-01-17T15:43:54Z</time>
      </trkpt>
      <trkpt lat="49.40932" lon="1.1207">
        <ele>5</ele>
        <time>2017-01-17T15:43:54Z</time>
      </trkpt>
      <trkpt lat="49.40936" lon="1.12069">
        <ele>5</ele>
        <time>2017-01-17T15:43:54Z</time>
      </trkpt>
      <trkpt lat="49.40939" lon="1.12066">
        <ele>5</ele>
        <time>2017-01-17T15:44:10Z</time>
      </trkpt>
      <trkpt lat="49.40942" lon="1.12064">
        <ele>5</ele>
        <time>2017-01-17T15:44:10Z</time>
      </trkpt>
      <trkpt lat="49.40947" lon="1.12061">
        <ele>5</ele>
        <time>2017-01-17T15:44:10Z</time>
      </trkpt>
      <trkpt lat="49.40951" lon="1.12057">
        <ele>5</ele>
        <time>2017-01-17T15:44:10Z</time>
      </trkpt>
      <trkpt lat="49.40955" lon="1.12056">
        <ele>5</ele>
        <time>2017-01-17T15:44:26Z</time>
      </trkpt>
      <trkpt lat="49.4096" lon="1.12055">
        <ele>7</ele>
        <time>2017-01-17T15:44:26Z</time>
      </trkpt>
      <trkpt lat="49.40965" lon="1.12053">
        <ele>7</ele>
        <time>2017-01-17T15:44:26Z</time>
      </trkpt>
      <trkpt lat="49.40968" lon="1.12051">
        <ele>7</ele>
        <time>2017-01-17T15:44:26Z</time>
      </trkpt>
      <trkpt lat="49.40973" lon="1.12049">
        <ele>7</ele>
        <time>2017-01-17T15:44:42Z</time>
      </trkpt>
      <trkpt lat="49.40975" lon="1.12047">
        <ele>7</ele>
        <time>2017-01-17T15:44:42Z</time>
      </trkpt>
      <trkpt lat="49.40981" lon="1.12044">
        <ele>7</ele>
        <time>2017-01-17T15:44:42Z</time>
      </trkpt>
      <trkpt lat="49.40987" lon="1.12043">
        <ele>7</ele>
        <time>2017-01-17T15:44:42Z</time>
      </trkpt>
      <trkpt lat="49.40993" lon="1.12039">
        <ele>2</ele>
        <time>2017-01-17T15:44:58Z</time>
      </trkpt>
      <trkpt lat="49.40999" lon="1.12035">
        <ele>2</ele>
        <time>2017-01-17T15:44:58Z</time>
      </trkpt>
      <trkpt lat="49.41003" lon="1.12033">
        <ele>2</ele>
        <time>2017-01-17T15:44:58Z</time>
      </trkpt>
      <trkpt lat="49.41008" lon="1.12032">
        <ele>2</ele>
        <time>2017-01-17T15:44:58Z</time>
      </trkpt>
      <trkpt lat="49.41013" lon="1.1203">
        <ele>2</ele>
        <time>2017-01-17T15:45:14Z</time>
      </trkpt>
      <trkpt lat="49.41015" lon="1.12029">
        <ele>2</ele>
        <time>2017-01-17T15:45:14Z</time>
      </trkpt>
      <trkpt lat="49.41019" lon="1.12026">
        <ele>2</ele>
        <time>2017-01-17T15:45:14Z</time>
      </trkpt>
      <trkpt lat="49.41024" lon="1.12024">
        <ele>2</ele>
        <time>2017-01-17T15:45:14Z</time>
      </trkpt>
      <trkpt lat="49.41029" lon="1.12023">
        <ele>2</ele>
        <time>2017-01-17T15:45:30Z</time>
      </trkpt>
      <trkpt lat="49.41032" lon="1.12022">
        <ele>2</ele>
        <time>2017-01-17T15:45:30Z</time>
      </trkpt>
      <trkpt lat="49.41038" lon="1.12022">
        <ele>2</ele>
        <time>2017-01-17T15:45:30Z</time>
      </trkpt>
      <trkpt lat="49.41043" lon="1.1202">
        <ele>7</ele>
        <time>2017-01-17T15:45:30Z</time>
      </trkpt>
      <trkpt lat="49.41049" lon="1.12018">
        <ele>7</ele>
        <time>2017-01-17T15:45:46Z</time>
      </trkpt>
      <trkpt lat="49.41052" lon="1.12017">
        <ele>7</ele>
        <time>2017-01-17T15:45:46Z</time>
      </trkpt>
      <trkpt lat="49.41058" lon="1.12014">
        <ele>7</ele>
        <time>2017-01-17T15:45:46Z</time>
      </trkpt>
      <trkpt lat="49.41061" lon="1.12012">
        <ele>7</ele>
        <time>2017-01-17T15:45:46Z</time>
      </trkpt>
      <trkpt lat="49.41065" lon="1.1201">
        <ele>7</ele>
        <time>2017-01-17T15:46:06Z</time>
      </trkpt>
      <trkpt lat="49.41065" lon="1.12014">
        <ele>7</ele>
        <time>2017-01-17T15:46:06Z</time>
      </trkpt>
      <trkpt lat="49.41067" lon="1.12008">
        <ele>7</ele>
        <time>2017-01-17T15:46:06Z</time>
      </trkpt>
      <trkpt lat="49.41072" lon="1.12006">
        <ele>7</ele>
        <time>2017-01-17T15:46:06Z</time>
      </trkpt>
      <trkpt lat="49.41077" lon="1.12004">
        <ele>7</ele>
        <time>2017-01-17T15:46:06Z</time>
      </trkpt>
      <trkpt lat="49.41083" lon="1.12003">
        <ele>7</ele>
        <time>2017-01-17T15:46:22Z</time>
      </trkpt>
      <trkpt lat="49.41087" lon="1.12001">
        <ele>7</ele>
        <time>2017-01-17T15:46:22Z</time>
      </trkpt>
      <trkpt lat="49.4109" lon="1.11999">
        <ele>7</ele>
        <time>2017-01-17T15:46:22Z</time>
      </trkpt>
      <trkpt lat="49.41092" lon="1.11995">
        <ele>7</ele>
        <time>2017-01-17T15:46:22Z</time>
      </trkpt>
      <trkpt lat="49.41091" lon="1.12001">
        <ele>7</ele>
        <time>2017-01-17T15:49:38Z</time>
      </trkpt>
      <trkpt lat="49.41094" lon="1.12003">
        <ele>7</ele>
        <time>2017-01-17T15:49:38Z</time>
      </trkpt>
      <trkpt lat="49.41099" lon="1.12005">
        <ele>7</ele>
        <time>2017-01-17T15:49:38Z</time>
      </trkpt>
      <trkpt lat="49.41104" lon="1.12004">
        <ele>7</ele>
        <time>2017-01-17T15:49:38Z</time>
      </trkpt>
      <trkpt lat="49.41108" lon="1.12002">
        <ele>7</ele>
        <time>2017-01-17T15:49:38Z</time>
      </trkpt>
      <trkpt lat="49.41112" lon="1.12">
        <ele>7</ele>
        <time>2017-01-17T15:49:54Z</time>
      </trkpt>
      <trkpt lat="49.41117" lon="1.12">
        <ele>7</ele>
        <time>2017-01-17T15:49:54Z</time>
      </trkpt>
      <trkpt lat="49.41121" lon="1.11999">
        <ele>7</ele>
        <time>2017-01-17T15:49:54Z</time>
      </trkpt>
      <trkpt lat="49.41124" lon="1.11998">
        <ele>7</ele>
        <time>2017-01-17T15:49:54Z</time>
      </trkpt>
      <trkpt lat="49.41128" lon="1.11993">
        <ele>7</ele>
        <time>2017-01-17T15:50:10Z</time>
      </trkpt>
      <trkpt lat="49.41133" lon="1.11993">
        <ele>7</ele>
        <time>2017-01-17T15:50:10Z</time>
      </trkpt>
      <trkpt lat="49.41137" lon="1.11992">
        <ele>7</ele>
        <time>2017-01-17T15:50:10Z</time>
      </trkpt>
      <trkpt lat="49.41141" lon="1.1199">
        <ele>7</ele>
        <time>2017-01-17T15:50:10Z</time>
      </trkpt>
      <trkpt lat="49.41146" lon="1.11989">
        <ele>7</ele>
        <time>2017-01-17T15:50:26Z</time>
      </trkpt>
      <trkpt lat="49.41148" lon="1.11988">
        <ele>7</ele>
        <time>2017-01-17T15:50:26Z</time>
      </trkpt>
      <trkpt lat="49.41151" lon="1.11987">
        <ele>7</ele>
        <time>2017-01-17T15:50:26Z</time>
      </trkpt>
      <trkpt lat="49.41157" lon="1.11984">
        <ele>7</ele>
        <time>2017-01-17T15:50:26Z</time>
      </trkpt>
      <trkpt lat="49.41163" lon="1.11982">
        <ele>7</ele>
        <time>2017-01-17T15:50:42Z</time>
      </trkpt>
      <trkpt lat="49.41168" lon="1.11979">
        <ele>7</ele>
        <time>2017-01-17T15:50:42Z</time>
      </trkpt>
      <trkpt lat="49.41171" lon="1.11976">
        <ele>7</ele>
        <time>2017-01-17T15:50:42Z</time>
      </trkpt>
      <trkpt lat="49.41174" lon="1.11974">
        <ele>7</ele>
        <time>2017-01-17T15:50:42Z</time>
      </trkpt>
      <trkpt lat="49.4118" lon="1.11971">
        <ele>7</ele>
        <time>2017-01-17T15:50:58Z</time>
      </trkpt>
      <trkpt lat="49.41186" lon="1.11966">
        <ele>7</ele>
        <time>2017-01-17T15:50:58Z</time>
      </trkpt>
      <trkpt lat="49.41191" lon="1.11965">
        <ele>7</ele>
        <time>2017-01-17T15:50:58Z</time>
      </trkpt>
      <trkpt lat="49.41194" lon="1.11965">
        <ele>7</ele>
        <time>2017-01-17T15:50:58Z</time>
      </trkpt>
      <trkpt lat="49.412" lon="1.11962">
        <ele>7</ele>
        <time>2017-01-17T15:51:14Z</time>
      </trkpt>
      <trkpt lat="49.41204" lon="1.11959">
        <ele>7</ele>
        <time>2017-01-17T15:51:14Z</time>
      </trkpt>
      <trkpt lat="49.41206" lon="1.11958">
        <ele>2</ele>
        <time>2017-01-17T15:51:14Z</time>
      </trkpt>
      <trkpt lat="49.4121" lon="1.11957">
        <ele>4</ele>
        <time>2017-01-17T15:51:14Z</time>
      </trkpt>
      <trkpt lat="49.41219" lon="1.11952">
        <ele>4</ele>
        <time>2017-01-17T15:51:42Z</time>
      </trkpt>
      <trkpt lat="49.41222" lon="1.11952">
        <ele>4</ele>
        <time>2017-01-17T15:51:42Z</time>
      </trkpt>
      <trkpt lat="49.41227" lon="1.11952">
        <ele>4</ele>
        <time>2017-01-17T15:51:42Z</time>
      </trkpt>
      <trkpt lat="49.41231" lon="1.1195">
        <ele>4</ele>
        <time>2017-01-17T15:51:42Z</time>
      </trkpt>
      <trkpt lat="49.41237" lon="1.11948">
        <ele>4</ele>
        <time>2017-01-17T15:51:42Z</time>
      </trkpt>
      <trkpt lat="49.41242" lon="1.11946">
        <ele>4</ele>
        <time>2017-01-17T15:51:58Z</time>
      </trkpt>
      <trkpt lat="49.41246" lon="1.11945">
        <ele>4</ele>
        <time>2017-01-17T15:51:58Z</time>
      </trkpt>
      <trkpt lat="49.4125" lon="1.11944">
        <ele>4</ele>
        <time>2017-01-17T15:51:58Z</time>
      </trkpt>
      <trkpt lat="49.41255" lon="1.11943">
        <ele>4</ele>
        <time>2017-01-17T15:51:58Z</time>
      </trkpt>
      <trkpt lat="49.41259" lon="1.11941">
        <ele>4</ele>
        <time>2017-01-17T15:52:14Z</time>
      </trkpt>
      <trkpt lat="49.41263" lon="1.1194">
        <ele>4</ele>
        <time>2017-01-17T15:52:14Z</time>
      </trkpt>
      <trkpt lat="49.41266" lon="1.11938">
        <ele>4</ele>
        <time>2017-01-17T15:52:14Z</time>
      </trkpt>
      <trkpt lat="49.41271" lon="1.11935">
        <ele>4</ele>
        <time>2017-01-17T15:52:14Z</time>
      </trkpt>
      <trkpt lat="49.41277" lon="1.11933">
        <ele>4</ele>
        <time>2017-01-17T15:52:30Z</time>
      </trkpt>
      <trkpt lat="49.41282" lon="1.11931">
        <ele>4</ele>
        <time>2017-01-17T15:52:30Z</time>
      </trkpt>
      <trkpt lat="49.41286" lon="1.1193">
        <ele>4</ele>
        <time>2017-01-17T15:52:30Z</time>
      </trkpt>
      <trkpt lat="49.4129" lon="1.11928">
        <ele>4</ele>
        <time>2017-01-17T15:52:30Z</time>
      </trkpt>
      <trkpt lat="49.41294" lon="1.11927">
        <ele>6</ele>
        <time>2017-01-17T15:52:46Z</time>
      </trkpt>
      <trkpt lat="49.41298" lon="1.11925">
        <ele>6</ele>
        <time>2017-01-17T15:52:46Z</time>
      </trkpt>
      <trkpt lat="49.41303" lon="1.11922">
        <ele>6</ele>
        <time>2017-01-17T15:52:46Z</time>
      </trkpt>
      <trkpt lat="49.41307" lon="1.11918">
        <ele>6</ele>
        <time>2017-01-17T15:52:46Z</time>
      </trkpt>
      <trkpt lat="49.41312" lon="1.11916">
        <ele>6</ele>
        <time>2017-01-17T15:53:02Z</time>
      </trkpt>
      <trkpt lat="49.41317" lon="1.11915">
        <ele>6</ele>
        <time>2017-01-17T15:53:02Z</time>
      </trkpt>
      <trkpt lat="49.41323" lon="1.11918">
        <ele>6</ele>
        <time>2017-01-17T15:53:02Z</time>
      </trkpt>
      <trkpt lat="49.41327" lon="1.11914">
        <ele>6</ele>
        <time>2017-01-17T15:53:02Z</time>
      </trkpt>
      <trkpt lat="49.41326" lon="1.11907">
        <ele>6</ele>
        <time>2017-01-17T15:53:18Z</time>
      </trkpt>
      <trkpt lat="49.41326" lon="1.11901">
        <ele>6</ele>
        <time>2017-01-17T15:53:18Z</time>
      </trkpt>
      <trkpt lat="49.41329" lon="1.11896">
        <ele>6</ele>
        <time>2017-01-17T15:53:18Z</time>
      </trkpt>
      <trkpt lat="49.41332" lon="1.11894">
        <ele>6</ele>
        <time>2017-01-17T15:53:18Z</time>
      </trkpt>
      <trkpt lat="49.41335" lon="1.11893">
        <ele>6</ele>
        <time>2017-01-17T15:53:34Z</time>
      </trkpt>
      <trkpt lat="49.4134" lon="1.1189">
        <ele>6</ele>
        <time>2017-01-17T15:53:34Z</time>
      </trkpt>
      <trkpt lat="49.41344" lon="1.11888">
        <ele>6</ele>
        <time>2017-01-17T15:53:34Z</time>
      </trkpt>
      <trkpt lat="49.4135" lon="1.11885">
        <ele>6</ele>
        <time>2017-01-17T15:53:34Z</time>
      </trkpt>
      <trkpt lat="49.41354" lon="1.11882">
        <ele>6</ele>
        <time>2017-01-17T15:53:50Z</time>
      </trkpt>
      <trkpt lat="49.41358" lon="1.11881">
        <ele>6</ele>
        <time>2017-01-17T15:53:50Z</time>
      </trkpt>
      <trkpt lat="49.41363" lon="1.1188">
        <ele>6</ele>
        <time>2017-01-17T15:53:50Z</time>
      </trkpt>
      <trkpt lat="49.41369" lon="1.11879">
        <ele>6</ele>
        <time>2017-01-17T15:53:50Z</time>
      </trkpt>
      <trkpt lat="49.41374" lon="1.11878">
        <ele>6</ele>
        <time>2017-01-17T15:54:06Z</time>
      </trkpt>
      <trkpt lat="49.41378" lon="1.11876">
        <ele>7</ele>
        <time>2017-01-17T15:54:06Z</time>
      </trkpt>
      <trkpt lat="49.41381" lon="1.11874">
        <ele>2</ele>
        <time>2017-01-17T15:54:06Z</time>
      </trkpt>
      <trkpt lat="49.41386" lon="1.11872">
        <ele>2</ele>
        <time>2017-01-17T15:54:06Z</time>
      </trkpt>
      <trkpt lat="49.41391" lon="1.11869">
        <ele>2</ele>
        <time>2017-01-17T15:54:22Z</time>
      </trkpt>
      <trkpt lat="49.41396" lon="1.11866">
        <ele>2</ele>
        <time>2017-01-17T15:54:22Z</time>
      </trkpt>
      <trkpt lat="49.41401" lon="1.11863">
        <ele>2</ele>
        <time>2017-01-17T15:54:22Z</time>
      </trkpt>
      <trkpt lat="49.41405" lon="1.11861">
        <ele>2</ele>
        <time>2017-01-17T15:54:22Z</time>
      </trkpt>
      <trkpt lat="49.41407" lon="1.11859">
        <ele>2</ele>
        <time>2017-01-17T15:54:38Z</time>
      </trkpt>
      <trkpt lat="49.41411" lon="1.11856">
        <ele>2</ele>
        <time>2017-01-17T15:54:38Z</time>
      </trkpt>
      <trkpt lat="49.41415" lon="1.11855">
        <ele>2</ele>
        <time>2017-01-17T15:54:38Z</time>
      </trkpt>
      <trkpt lat="49.4142" lon="1.11852">
        <ele>2</ele>
        <time>2017-01-17T15:54:38Z</time>
      </trkpt>
      <trkpt lat="49.41426" lon="1.1185">
        <ele>2</ele>
        <time>2017-01-17T15:54:54Z</time>
      </trkpt>
      <trkpt lat="49.41432" lon="1.11849">
        <ele>2</ele>
        <time>2017-01-17T15:54:54Z</time>
      </trkpt>
      <trkpt lat="49.41435" lon="1.11846">
        <ele>2</ele>
        <time>2017-01-17T15:54:54Z</time>
      </trkpt>
      <trkpt lat="49.41441" lon="1.11844">
        <ele>2</ele>
        <time>2017-01-17T15:54:54Z</time>
      </trkpt>
      <trkpt lat="49.41445" lon="1.11841">
        <ele>2</ele>
        <time>2017-01-17T15:55:10Z</time>
      </trkpt>
      <trkpt lat="49.4145" lon="1.11841">
        <ele>2</ele>
        <time>2017-01-17T15:55:10Z</time>
      </trkpt>
      <trkpt lat="49.41454" lon="1.11839">
        <ele>2</ele>
        <time>2017-01-17T15:55:10Z</time>
      </trkpt>
      <trkpt lat="49.4146" lon="1.11836">
        <ele>5</ele>
        <time>2017-01-17T15:55:10Z</time>
      </trkpt>
      <trkpt lat="49.41464" lon="1.11833">
        <ele>5</ele>
        <time>2017-01-17T15:55:26Z</time>
      </trkpt>
      <trkpt lat="49.41469" lon="1.11829">
        <ele>5</ele>
        <time>2017-01-17T15:55:26Z</time>
      </trkpt>
      <trkpt lat="49.41474" lon="1.11825">
        <ele>5</ele>
        <time>2017-01-17T15:55:26Z</time>
      </trkpt>
      <trkpt lat="49.41478" lon="1.11821">
        <ele>5</ele>
        <time>2017-01-17T15:55:26Z</time>
      </trkpt>
      <trkpt lat="49.41482" lon="1.11818">
        <ele>5</ele>
        <time>2017-01-17T15:55:42Z</time>
      </trkpt>
      <trkpt lat="49.41486" lon="1.11815">
        <ele>5</ele>
        <time>2017-01-17T15:55:42Z</time>
      </trkpt>
      <trkpt lat="49.41491" lon="1.11812">
        <ele>5</ele>
        <time>2017-01-17T15:55:42Z</time>
      </trkpt>
      <trkpt lat="49.41495" lon="1.1181">
        <ele>5</ele>
        <time>2017-01-17T15:55:42Z</time>
      </trkpt>
      <trkpt lat="49.41498" lon="1.11807">
        <ele>5</ele>
        <time>2017-01-17T15:55:58Z</time>
      </trkpt>
      <trkpt lat="49.41502" lon="1.11805">
        <ele>5</ele>
        <time>2017-01-17T15:55:58Z</time>
      </trkpt>
      <trkpt lat="49.41505" lon="1.11802">
        <ele>5</ele>
        <time>2017-01-17T15:55:58Z</time>
      </trkpt>
      <trkpt lat="49.41509" lon="1.118">
        <ele>5</ele>
        <time>2017-01-17T15:55:58Z</time>
      </trkpt>
      <trkpt lat="49.41514" lon="1.11797">
        <ele>5</ele>
        <time>2017-01-17T15:56:14Z</time>
      </trkpt>
      <trkpt lat="49.41519" lon="1.11795">
        <ele>5</ele>
        <time>2017-01-17T15:56:14Z</time>
      </trkpt>
      <trkpt lat="49.41523" lon="1.11793">
        <ele>5</ele>
        <time>2017-01-17T15:56:14Z</time>
      </trkpt>
      <trkpt lat="49.41528" lon="1.11791">
        <ele>4</ele>
        <time>2017-01-17T15:56:14Z</time>
      </trkpt>
      <trkpt lat="49.41533" lon="1.11789">
        <ele>4</ele>
        <time>2017-01-17T15:56:30Z</time>
      </trkpt>
      <trkpt lat="49.41539" lon="1.11785">
        <ele>4</ele>
        <time>2017-01-17T15:56:30Z</time>
      </trkpt>
      <trkpt lat="49.41545" lon="1.11781">
        <ele>4</ele>
        <time>2017-01-17T15:56:30Z</time>
      </trkpt>
      <trkpt lat="49.4155" lon="1.11778">
        <ele>4</ele>
        <time>2017-01-17T15:56:30Z</time>
      </trkpt>
      <trkpt lat="49.41554" lon="1.11777">
        <ele>4</ele>
        <time>2017-01-17T15:56:46Z</time>
      </trkpt>
      <trkpt lat="49.41559" lon="1.11775">
        <ele>4</ele>
        <time>2017-01-17T15:56:46Z</time>
      </trkpt>
      <trkpt lat="49.41562" lon="1.11772">
        <ele>4</ele>
        <time>2017-01-17T15:56:46Z</time>
      </trkpt>
      <trkpt lat="49.41568" lon="1.11769">
        <ele>4</ele>
        <time>2017-01-17T15:56:46Z</time>
      </trkpt>
      <trkpt lat="49.41572" lon="1.11766">
        <ele>4</ele>
        <time>2017-01-17T15:57:02Z</time>
      </trkpt>
      <trkpt lat="49.41577" lon="1.11764">
        <ele>4</ele>
        <time>2017-01-17T15:57:02Z</time>
      </trkpt>
      <trkpt lat="49.41581" lon="1.11762">
        <ele>4</ele>
        <time>2017-01-17T15:57:02Z</time>
      </trkpt>
      <trkpt lat="49.41586" lon="1.11759">
        <ele>4</ele>
        <time>2017-01-17T15:57:02Z</time>
      </trkpt>
      <trkpt lat="49.4159" lon="1.11756">
        <ele>4</ele>
        <time>2017-01-17T15:57:18Z</time>
      </trkpt>
      <trkpt lat="49.41594" lon="1.11755">
        <ele>4</ele>
        <time>2017-01-17T15:57:18Z</time>
      </trkpt>
      <trkpt lat="49.41598" lon="1.11752">
        <ele>4</ele>
        <time>2017-01-17T15:57:18Z</time>
      </trkpt>
      <trkpt lat="49.41603" lon="1.1175">
        <ele>4</ele>
        <time>2017-01-17T15:57:18Z</time>
      </trkpt>
      <trkpt lat="49.41608" lon="1.11747">
        <ele>4</ele>
        <time>2017-01-17T15:57:34Z</time>
      </trkpt>
      <trkpt lat="49.41612" lon="1.11744">
        <ele>4</ele>
        <time>2017-01-17T15:57:34Z</time>
      </trkpt>
      <trkpt lat="49.41616" lon="1.11741">
        <ele>4</ele>
        <time>2017-01-17T15:57:34Z</time>
      </trkpt>
      <trkpt lat="49.41619" lon="1.11739">
        <ele>4</ele>
        <time>2017-01-17T15:57:34Z</time>
      </trkpt>
      <trkpt lat="49.41623" lon="1.11736">
        <ele>4</ele>
        <time>2017-01-17T15:57:50Z</time>
      </trkpt>
      <trkpt lat="49.41628" lon="1.11733">
        <ele>6</ele>
        <time>2017-01-17T15:57:50Z</time>
      </trkpt>
      <trkpt lat="49.41631" lon="1.11732">
        <ele>6</ele>
        <time>2017-01-17T15:57:50Z</time>
      </trkpt>
      <trkpt lat="49.41636" lon="1.1173">
        <ele>6</ele>
        <time>2017-01-17T15:57:50Z</time>
      </trkpt>
      <trkpt lat="49.4164" lon="1.11728">
        <ele>6</ele>
        <time>2017-01-17T15:58:06Z</time>
      </trkpt>
      <trkpt lat="49.41644" lon="1.11726">
        <ele>6</ele>
        <time>2017-01-17T15:58:06Z</time>
      </trkpt>
      <trkpt lat="49.41649" lon="1.11724">
        <ele>6</ele>
        <time>2017-01-17T15:58:06Z</time>
      </trkpt>
      <trkpt lat="49.41655" lon="1.1172">
        <ele>6</ele>
        <time>2017-01-17T15:58:06Z</time>
      </trkpt>
      <trkpt lat="49.4166" lon="1.11719">
        <ele>6</ele>
        <time>2017-01-17T15:58:22Z</time>
      </trkpt>
      <trkpt lat="49.41664" lon="1.11717">
        <ele>6</ele>
        <time>2017-01-17T15:58:22Z</time>
      </trkpt>
      <trkpt lat="49.41667" lon="1.11714">
        <ele>6</ele>
        <time>2017-01-17T15:58:22Z</time>
      </trkpt>
      <trkpt lat="49.41671" lon="1.11712">
        <ele>6</ele>
        <time>2017-01-17T15:58:22Z</time>
      </trkpt>
      <trkpt lat="49.41676" lon="1.11708">
        <ele>6</ele>
        <time>2017-01-17T15:58:38Z</time>
      </trkpt>
      <trkpt lat="49.4168" lon="1.11706">
        <ele>2</ele>
        <time>2017-01-17T15:58:38Z</time>
      </trkpt>
      <trkpt lat="49.41685" lon="1.11703">
        <ele>2</ele>
        <time>2017-01-17T15:58:38Z</time>
      </trkpt>
      <trkpt lat="49.41689" lon="1.11701">
        <ele>2</ele>
        <time>2017-01-17T15:58:38Z</time>
      </trkpt>
      <trkpt lat="49.41694" lon="1.11696">
        <ele>2</ele>
        <time>2017-01-17T15:58:54Z</time>
      </trkpt>
      <trkpt lat="49.41698" lon="1.11694">
        <ele>2</ele>
        <time>2017-01-17T15:58:54Z</time>
      </trkpt>
      <trkpt lat="49.41702" lon="1.11691">
        <ele>2</ele>
        <time>2017-01-17T15:58:54Z</time>
      </trkpt>
      <trkpt lat="49.41707" lon="1.11688">
        <ele>2</ele>
        <time>2017-01-17T15:58:54Z</time>
      </trkpt>
      <trkpt lat="49.41712" lon="1.11686">
        <ele>7</ele>
        <time>2017-01-17T15:59:10Z</time>
      </trkpt>
      <trkpt lat="49.41717" lon="1.11684">
        <ele>7</ele>
        <time>2017-01-17T15:59:10Z</time>
      </trkpt>
      <trkpt lat="49.41721" lon="1.11681">
        <ele>7</ele>
        <time>2017-01-17T15:59:10Z</time>
      </trkpt>
      <trkpt lat="49.41726" lon="1.11679">
        <ele>7</ele>
        <time>2017-01-17T15:59:10Z</time>
      </trkpt>
      <trkpt lat="49.41729" lon="1.11677">
        <ele>7</ele>
        <time>2017-01-17T15:59:26Z</time>
      </trkpt>
      <trkpt lat="49.41733" lon="1.11675">
        <ele>7</ele>
        <time>2017-01-17T15:59:26Z</time>
      </trkpt>
      <trkpt lat="49.41738" lon="1.11673">
        <ele>7</ele>
        <time>2017-01-17T15:59:26Z</time>
      </trkpt>
      <trkpt lat="49.41743" lon="1.1167">
        <ele>7</ele>
        <time>2017-01-17T15:59:26Z</time>
      </trkpt>
      <trkpt lat="49.41747" lon="1.11668">
        <ele>7</ele>
        <time>2017-01-17T15:59:42Z</time>
      </trkpt>
      <trkpt lat="49.41752" lon="1.11665">
        <ele>7</ele>
        <time>2017-01-17T15:59:42Z</time>
      </trkpt>
      <trkpt lat="49.41757" lon="1.11664">
        <ele>7</ele>
        <time>2017-01-17T15:59:42Z</time>
      </trkpt>
      <trkpt lat="49.41761" lon="1.11662">
        <ele>7</ele>
        <time>2017-01-17T15:59:42Z</time>
      </trkpt>
      <trkpt lat="49.41764" lon="1.11659">
        <ele>7</ele>
        <time>2017-01-17T15:59:58Z</time>
      </trkpt>
      <trkpt lat="49.4177" lon="1.11657">
        <ele>7</ele>
        <time>2017-01-17T15:59:58Z</time>
      </trkpt>
      <trkpt lat="49.41776" lon="1.11654">
        <ele>7</ele>
        <time>2017-01-17T15:59:58Z</time>
      </trkpt>
      <trkpt lat="49.4178" lon="1.11651">
        <ele>7</ele>
        <time>2017-01-17T15:59:58Z</time>
      </trkpt>
      <trkpt lat="49.41784" lon="1.11649">
        <ele>7</ele>
        <time>2017-01-17T16:00:14Z</time>
      </trkpt>
      <trkpt lat="49.41787" lon="1.11645">
        <ele>7</ele>
        <time>2017-01-17T16:00:14Z</time>
      </trkpt>
      <trkpt lat="49.41792" lon="1.11641">
        <ele>5</ele>
        <time>2017-01-17T16:00:14Z</time>
      </trkpt>
      <trkpt lat="49.41796" lon="1.11639">
        <ele>5</ele>
        <time>2017-01-17T16:00:14Z</time>
      </trkpt>
      <trkpt lat="49.418" lon="1.11636">
        <ele>5</ele>
        <time>2017-01-17T16:00:30Z</time>
      </trkpt>
      <trkpt lat="49.41805" lon="1.11635">
        <ele>5</ele>
        <time>2017-01-17T16:00:30Z</time>
      </trkpt>
      <trkpt lat="49.41809" lon="1.11632">
        <ele>5</ele>
        <time>2017-01-17T16:00:30Z</time>
      </trkpt>
      <trkpt lat="49.41813" lon="1.11631">
        <ele>5</ele>
        <time>2017-01-17T16:00:30Z</time>
      </trkpt>
      <trkpt lat="49.41818" lon="1.1163">
        <ele>5</ele>
        <time>2017-01-17T16:00:46Z</time>
      </trkpt>
      <trkpt lat="49.41821" lon="1.11628">
        <ele>5</ele>
        <time>2017-01-17T16:00:46Z</time>
      </trkpt>
      <trkpt lat="49.41825" lon="1.11626">
        <ele>5</ele>
        <time>2017-01-17T16:00:46Z</time>
      </trkpt>
      <trkpt lat="49.4183" lon="1.11624">
        <ele>3</ele>
        <time>2017-01-17T16:00:46Z</time>
      </trkpt>
      <trkpt lat="49.41836" lon="1.11621">
        <ele>3</ele>
        <time>2017-01-17T16:01:02Z</time>
      </trkpt>
      <trkpt lat="49.4184" lon="1.11619">
        <ele>3</ele>
        <time>2017-01-17T16:01:02Z</time>
      </trkpt>
      <trkpt lat="49.41844" lon="1.11617">
        <ele>3</ele>
        <time>2017-01-17T16:01:02Z</time>
      </trkpt>
      <trkpt lat="49.41849" lon="1.11615">
        <ele>3</ele>
        <time>2017-01-17T16:01:02Z</time>
      </trkpt>
      <trkpt lat="49.41853" lon="1.11612">
        <ele>3</ele>
        <time>2017-01-17T16:01:18Z</time>
      </trkpt>
      <trkpt lat="49.41859" lon="1.1161">
        <ele>3</ele>
        <time>2017-01-17T16:01:18Z</time>
      </trkpt>
      <trkpt lat="49.41863" lon="1.11608">
        <ele>3</ele>
        <time>2017-01-17T16:01:18Z</time>
      </trkpt>
      <trkpt lat="49.41868" lon="1.11605">
        <ele>3</ele>
        <time>2017-01-17T16:01:18Z</time>
      </trkpt>
      <trkpt lat="49.41872" lon="1.11603">
        <ele>3</ele>
        <time>2017-01-17T16:01:34Z</time>
      </trkpt>
      <trkpt lat="49.41877" lon="1.116">
        <ele>7</ele>
        <time>2017-01-17T16:01:34Z</time>
      </trkpt>
      <trkpt lat="49.4188" lon="1.11598">
        <ele>7</ele>
        <time>2017-01-17T16:01:34Z</time>
      </trkpt>
      <trkpt lat="49.41885" lon="1.11596">
        <ele>7</ele>
        <time>2017-01-17T16:01:34Z</time>
      </trkpt>
      <trkpt lat="49.41888" lon="1.11594">
        <ele>7</ele>
        <time>2017-01-17T16:01:50Z</time>
      </trkpt>
      <trkpt lat="49.41891" lon="1.11592">
        <ele>7</ele>
        <time>2017-01-17T16:01:50Z</time>
      </trkpt>
      <trkpt lat="49.41896" lon="1.11589">
        <ele>7</ele>
        <time>2017-01-17T16:01:50Z</time>
      </trkpt>
      <trkpt lat="49.41901" lon="1.11585">
        <ele>7</ele>
        <time>2017-01-17T16:01:50Z</time>
      </trkpt>
      <trkpt lat="49.41906" lon="1.11582">
        <ele>7</ele>
        <time>2017-01-17T16:02:06Z</time>
      </trkpt>
      <trkpt lat="49.4191" lon="1.1158">
        <ele>7</ele>
        <time>2017-01-17T16:02:06Z</time>
      </trkpt>
      <trkpt lat="49.41914" lon="1.11577">
        <ele>7</ele>
        <time>2017-01-17T16:02:06Z</time>
      </trkpt>
      <trkpt lat="49.4192" lon="1.11574">
        <ele>7</ele>
        <time>2017-01-17T16:02:06Z</time>
      </trkpt>
      <trkpt lat="49.41925" lon="1.1157">
        <ele>7</ele>
        <time>2017-01-17T16:02:22Z</time>
      </trkpt>
      <trkpt lat="49.4193" lon="1.11567">
        <ele>7</ele>
        <time>2017-01-17T16:02:22Z</time>
      </trkpt>
      <trkpt lat="49.41935" lon="1.11564">
        <ele>7</ele>
        <time>2017-01-17T16:02:22Z</time>
      </trkpt>
      <trkpt lat="49.41939" lon="1.11563">
        <ele>7</ele>
        <time>2017-01-17T16:02:22Z</time>
      </trkpt>
      <trkpt lat="49.41944" lon="1.11561">
        <ele>7</ele>
        <time>2017-01-17T16:02:38Z</time>
      </trkpt>
      <trkpt lat="49.41947" lon="1.11559">
        <ele>7</ele>
        <time>2017-01-17T16:02:38Z</time>
      </trkpt>
      <trkpt lat="49.41951" lon="1.11557">
        <ele>7</ele>
        <time>2017-01-17T16:02:38Z</time>
      </trkpt>
      <trkpt lat="49.41956" lon="1.11555">
        <ele>7</ele>
        <time>2017-01-17T16:02:38Z</time>
      </trkpt>
      <trkpt lat="49.41961" lon="1.11553">
        <ele>9</ele>
        <time>2017-01-17T16:02:54Z</time>
      </trkpt>
      <trkpt lat="49.41964" lon="1.11551">
        <ele>9</ele>
        <time>2017-01-17T16:02:54Z</time>
      </trkpt>
      <trkpt lat="49.41969" lon="1.11548">
        <ele>9</ele>
        <time>2017-01-17T16:02:54Z</time>
      </trkpt>
      <trkpt lat="49.41975" lon="1.11545">
        <ele>9</ele>
        <time>2017-01-17T16:02:54Z</time>
      </trkpt>
      <trkpt lat="49.41978" lon="1.11542">
        <ele>9</ele>
        <time>2017-01-17T16:03:10Z</time>
      </trkpt>
      <trkpt lat="49.41981" lon="1.1154">
        <ele>11</ele>
        <time>2017-01-17T16:03:10Z</time>
      </trkpt>
      <trkpt lat="49.41984" lon="1.11537">
        <ele>11</ele>
        <time>2017-01-17T16:03:10Z</time>
      </trkpt>
      <trkpt lat="49.41988" lon="1.11534">
        <ele>11</ele>
        <time>2017-01-17T16:03:10Z</time>
      </trkpt>
      <trkpt lat="49.41994" lon="1.11531">
        <ele>11</ele>
        <time>2017-01-17T16:03:26Z</time>
      </trkpt>
      <trkpt lat="49.41998" lon="1.11528">
        <ele>11</ele>
        <time>2017-01-17T16:03:26Z</time>
      </trkpt>
      <trkpt lat="49.42003" lon="1.11525">
        <ele>11</ele>
        <time>2017-01-17T16:03:26Z</time>
      </trkpt>
      <trkpt lat="49.42007" lon="1.1152">
        <ele>11</ele>
        <time>2017-01-17T16:03:26Z</time>
      </trkpt>
      <trkpt lat="49.4201" lon="1.11518">
        <ele>11</ele>
        <time>2017-01-17T16:03:42Z</time>
      </trkpt>
      <trkpt lat="49.42015" lon="1.11514">
        <ele>11</ele>
        <time>2017-01-17T16:03:42Z</time>
      </trkpt>
      <trkpt lat="49.42018" lon="1.11518">
        <ele>11</ele>
        <time>2017-01-17T16:03:42Z</time>
      </trkpt>
      <trkpt lat="49.42019" lon="1.11516">
        <ele>11</ele>
        <time>2017-01-17T16:03:42Z</time>
      </trkpt>
      <trkpt lat="49.42022" lon="1.11514">
        <ele>11</ele>
        <time>2017-01-17T16:03:58Z</time>
      </trkpt>
      <trkpt lat="49.42026" lon="1.11512">
        <ele>11</ele>
        <time>2017-01-17T16:03:58Z</time>
      </trkpt>
      <trkpt lat="49.4203" lon="1.11508">
        <ele>11</ele>
        <time>2017-01-17T16:03:58Z</time>
      </trkpt>
      <trkpt lat="49.42036" lon="1.11505">
        <ele>11</ele>
        <time>2017-01-17T16:03:58Z</time>
      </trkpt>
      <trkpt lat="49.42041" lon="1.11501">
        <ele>11</ele>
        <time>2017-01-17T16:04:14Z</time>
      </trkpt>
      <trkpt lat="49.42046" lon="1.115">
        <ele>7</ele>
        <time>2017-01-17T16:04:14Z</time>
      </trkpt>
      <trkpt lat="49.42051" lon="1.11498">
        <ele>7</ele>
        <time>2017-01-17T16:04:14Z</time>
      </trkpt>
      <trkpt lat="49.42057" lon="1.11497">
        <ele>7</ele>
        <time>2017-01-17T16:04:14Z</time>
      </trkpt>
      <trkpt lat="49.42061" lon="1.11494">
        <ele>7</ele>
        <time>2017-01-17T16:04:30Z</time>
      </trkpt>
      <trkpt lat="49.42065" lon="1.11491">
        <ele>7</ele>
        <time>2017-01-17T16:04:30Z</time>
      </trkpt>
      <trkpt lat="49.4207" lon="1.11488">
        <ele>7</ele>
        <time>2017-01-17T16:04:30Z</time>
      </trkpt>
      <trkpt lat="49.42075" lon="1.11485">
        <ele>7</ele>
        <time>2017-01-17T16:04:30Z</time>
      </trkpt>
      <trkpt lat="49.42079" lon="1.11482">
        <ele>7</ele>
        <time>2017-01-17T16:04:46Z</time>
      </trkpt>
      <trkpt lat="49.42084" lon="1.11479">
        <ele>7</ele>
        <time>2017-01-17T16:04:46Z</time>
      </trkpt>
      <trkpt lat="49.42088" lon="1.11476">
        <ele>7</ele>
        <time>2017-01-17T16:04:46Z</time>
      </trkpt>
      <trkpt lat="49.42091" lon="1.11473">
        <ele>7</ele>
        <time>2017-01-17T16:04:46Z</time>
      </trkpt>
      <trkpt lat="49.42095" lon="1.11469">
        <ele>7</ele>
        <time>2017-01-17T16:05:02Z</time>
      </trkpt>
      <trkpt lat="49.42099" lon="1.11465">
        <ele>7</ele>
        <time>2017-01-17T16:05:02Z</time>
      </trkpt>
      <trkpt lat="49.42103" lon="1.11464">
        <ele>7</ele>
        <time>2017-01-17T16:05:02Z</time>
      </trkpt>
      <trkpt lat="49.42108" lon="1.1146">
        <ele>7</ele>
        <time>2017-01-17T16:05:02Z</time>
      </trkpt>
      <trkpt lat="49.42112" lon="1.11457">
        <ele>1</ele>
        <time>2017-01-17T16:05:18Z</time>
      </trkpt>
      <trkpt lat="49.42116" lon="1.11455">
        <ele>1</ele>
        <time>2017-01-17T16:05:18Z</time>
      </trkpt>
      <trkpt lat="49.42121" lon="1.11451">
        <ele>1</ele>
        <time>2017-01-17T16:05:18Z</time>
      </trkpt>
      <trkpt lat="49.42126" lon="1.11449">
        <ele>3</ele>
        <time>2017-01-17T16:05:18Z</time>
      </trkpt>
      <trkpt lat="49.42133" lon="1.11446">
        <ele>3</ele>
        <time>2017-01-17T16:05:34Z</time>
      </trkpt>
      <trkpt lat="49.42137" lon="1.11442">
        <ele>3</ele>
        <time>2017-01-17T16:05:34Z</time>
      </trkpt>
      <trkpt lat="49.42139" lon="1.11438">
        <ele>3</ele>
        <time>2017-01-17T16:05:34Z</time>
      </trkpt>
      <trkpt lat="49.42143" lon="1.11435">
        <ele>3</ele>
        <time>2017-01-17T16:05:34Z</time>
      </trkpt>
      <trkpt lat="49.42148" lon="1.11434">
        <ele>3</ele>
        <time>2017-01-17T16:05:50Z</time>
      </trkpt>
      <trkpt lat="49.42151" lon="1.11431">
        <ele>3</ele>
        <time>2017-01-17T16:05:50Z</time>
      </trkpt>
      <trkpt lat="49.42155" lon="1.11428">
        <ele>3</ele>
        <time>2017-01-17T16:05:50Z</time>
      </trkpt>
      <trkpt lat="49.42161" lon="1.11423">
        <ele>3</ele>
        <time>2017-01-17T16:05:50Z</time>
      </trkpt>
      <trkpt lat="49.42165" lon="1.1142">
        <ele>3</ele>
        <time>2017-01-17T16:06:06Z</time>
      </trkpt>
      <trkpt lat="49.42172" lon="1.11418">
        <ele>3</ele>
        <time>2017-01-17T16:06:06Z</time>
      </trkpt>
      <trkpt lat="49.42178" lon="1.11416">
        <ele>3</ele>
        <time>2017-01-17T16:06:06Z</time>
      </trkpt>
      <trkpt lat="49.42182" lon="1.11413">
        <ele>3</ele>
        <time>2017-01-17T16:06:06Z</time>
      </trkpt>
      <trkpt lat="49.42185" lon="1.1141">
        <ele>3</ele>
        <time>2017-01-17T16:06:22Z</time>
      </trkpt>
      <trkpt lat="49.4219" lon="1.11407">
        <ele>3</ele>
        <time>2017-01-17T16:06:22Z</time>
      </trkpt>
      <trkpt lat="49.42194" lon="1.11404">
        <ele>3</ele>
        <time>2017-01-17T16:06:22Z</time>
      </trkpt>
      <trkpt lat="49.42198" lon="1.11401">
        <ele>3</ele>
        <time>2017-01-17T16:06:22Z</time>
      </trkpt>
      <trkpt lat="49.42202" lon="1.11398">
        <ele>3</ele>
        <time>2017-01-17T16:06:38Z</time>
      </trkpt>
      <trkpt lat="49.42207" lon="1.11396">
        <ele>3</ele>
        <time>2017-01-17T16:06:38Z</time>
      </trkpt>
      <trkpt lat="49.42211" lon="1.11394">
        <ele>7</ele>
        <time>2017-01-17T16:06:38Z</time>
      </trkpt>
      <trkpt lat="49.42217" lon="1.11391">
        <ele>7</ele>
        <time>2017-01-17T16:06:38Z</time>
      </trkpt>
      <trkpt lat="49.42218" lon="1.11391">
        <ele>7</ele>
        <time>2017-01-17T16:06:58Z</time>
      </trkpt>
      <trkpt lat="49.42217" lon="1.11392">
        <ele>7</ele>
        <time>2017-01-17T16:06:58Z</time>
      </trkpt>
      <trkpt lat="49.42219" lon="1.11391">
        <ele>7</ele>
        <time>2017-01-17T16:06:58Z</time>
      </trkpt>
      <trkpt lat="49.42224" lon="1.11389">
        <ele>7</ele>
        <time>2017-01-17T16:06:58Z</time>
      </trkpt>
      <trkpt lat="49.42228" lon="1.11386">
        <ele>7</ele>
        <time>2017-01-17T16:06:58Z</time>
      </trkpt>
      <trkpt lat="49.42232" lon="1.11383">
        <ele>7</ele>
        <time>2017-01-17T16:07:14Z</time>
      </trkpt>
      <trkpt lat="49.42237" lon="1.1138">
        <ele>7</ele>
        <time>2017-01-17T16:07:14Z</time>
      </trkpt>
      <trkpt lat="49.42241" lon="1.11376">
        <ele>7</ele>
        <time>2017-01-17T16:07:14Z</time>
      </trkpt>
      <trkpt lat="49.42245" lon="1.11374">
        <ele>1</ele>
        <time>2017-01-17T16:07:14Z</time>
      </trkpt>
      <trkpt lat="49.42249" lon="1.11373">
        <ele>1</ele>
        <time>2017-01-17T16:07:30Z</time>
      </trkpt>
      <trkpt lat="49.42251" lon="1.11369">
        <ele>1</ele>
        <time>2017-01-17T16:07:30Z</time>
      </trkpt>
      <trkpt lat="49.42255" lon="1.11365">
        <ele>1</ele>
        <time>2017-01-17T16:07:30Z</time>
      </trkpt>
      <trkpt lat="49.42257" lon="1.11364">
        <ele>1</ele>
        <time>2017-01-17T16:07:30Z</time>
      </trkpt>
      <trkpt lat="49.42259" lon="1.11368">
        <ele>1</ele>
        <time>2017-01-17T16:17:38Z</time>
      </trkpt>
      <trkpt lat="49.42259" lon="1.11374">
        <ele>1</ele>
        <time>2017-01-17T16:17:38Z</time>
      </trkpt>
      <trkpt lat="49.42264" lon="1.11379">
        <ele>7</ele>
        <time>2017-01-17T16:17:38Z</time>
      </trkpt>
      <trkpt lat="49.4227" lon="1.11386">
        <ele>7</ele>
        <time>2017-01-17T16:17:38Z</time>
      </trkpt>
      <trkpt lat="49.42274" lon="1.11392">
        <ele>7</ele>
        <time>2017-01-17T16:17:38Z</time>
      </trkpt>
      <trkpt lat="49.42278" lon="1.114">
        <ele>7</ele>
        <time>2017-01-17T16:17:54Z</time>
      </trkpt>
      <trkpt lat="49.42281" lon="1.11407">
        <ele>7</ele>
        <time>2017-01-17T16:17:54Z</time>
      </trkpt>
      <trkpt lat="49.42283" lon="1.11412">
        <ele>7</ele>
        <time>2017-01-17T16:17:54Z</time>
      </trkpt>
      <trkpt lat="49.42288" lon="1.11419">
        <ele>7</ele>
        <time>2017-01-17T16:17:54Z</time>
      </trkpt>
      <trkpt lat="49.42291" lon="1.11426">
        <ele>7</ele>
        <time>2017-01-17T16:18:10Z</time>
      </trkpt>
      <trkpt lat="49.42293" lon="1.11433">
        <ele>12</ele>
        <time>2017-01-17T16:18:10Z</time>
      </trkpt>
      <trkpt lat="49.42296" lon="1.11438">
        <ele>12</ele>
        <time>2017-01-17T16:18:10Z</time>
      </trkpt>
      <trkpt lat="49.423" lon="1.11446">
        <ele>12</ele>
        <time>2017-01-17T16:18:10Z</time>
      </trkpt>
      <trkpt lat="49.42302" lon="1.11452">
        <ele>12</ele>
        <time>2017-01-17T16:18:26Z</time>
      </trkpt>
      <trkpt lat="49.42304" lon="1.11457">
        <ele>12</ele>
        <time>2017-01-17T16:18:26Z</time>
      </trkpt>
      <trkpt lat="49.42307" lon="1.11463">
        <ele>15</ele>
        <time>2017-01-17T16:18:26Z</time>
      </trkpt>
      <trkpt lat="49.42311" lon="1.11468">
        <ele>15</ele>
        <time>2017-01-17T16:18:26Z</time>
      </trkpt>
      <trkpt lat="49.42315" lon="1.11471">
        <ele>15</ele>
        <time>2017-01-17T16:18:42Z</time>
      </trkpt>
      <trkpt lat="49.42319" lon="1.11473">
        <ele>15</ele>
        <time>2017-01-17T16:18:42Z</time>
      </trkpt>
      <trkpt lat="49.42323" lon="1.11473">
        <ele>15</ele>
        <time>2017-01-17T16:18:42Z</time>
      </trkpt>
      <trkpt lat="49.42329" lon="1.11469">
        <ele>15</ele>
        <time>2017-01-17T16:18:42Z</time>
      </trkpt>
      <trkpt lat="49.42332" lon="1.11467">
        <ele>15</ele>
        <time>2017-01-17T16:19:22Z</time>
      </trkpt>
      <trkpt lat="49.42331" lon="1.11469">
        <ele>15</ele>
        <time>2017-01-17T16:19:22Z</time>
      </trkpt>
      <trkpt lat="49.42334" lon="1.11476">
        <ele>15</ele>
        <time>2017-01-17T16:19:22Z</time>
      </trkpt>
      <trkpt lat="49.42336" lon="1.11483">
        <ele>15</ele>
        <time>2017-01-17T16:19:22Z</time>
      </trkpt>
      <trkpt lat="49.42336" lon="1.11491">
        <ele>15</ele>
        <time>2017-01-17T16:19:22Z</time>
      </trkpt>
      <trkpt lat="49.4233" lon="1.11495">
        <ele>15</ele>
        <time>2017-01-17T16:19:38Z</time>
      </trkpt>
      <trkpt lat="49.42326" lon="1.11499">
        <ele>15</ele>
        <time>2017-01-17T16:19:38Z</time>
      </trkpt>
      <trkpt lat="49.42321" lon="1.11505">
        <ele>15</ele>
        <time>2017-01-17T16:19:38Z</time>
      </trkpt>
      <trkpt lat="49.42316" lon="1.11508">
        <ele>15</ele>
        <time>2017-01-17T16:19:38Z</time>
      </trkpt>
      <trkpt lat="49.42312" lon="1.11511">
        <ele>15</ele>
        <time>2017-01-17T16:19:54Z</time>
      </trkpt>
      <trkpt lat="49.42308" lon="1.11514">
        <ele>15</ele>
        <time>2017-01-17T16:19:54Z</time>
      </trkpt>
      <trkpt lat="49.42302" lon="1.11518">
        <ele>15</ele>
        <time>2017-01-17T16:19:54Z</time>
      </trkpt>
      <trkpt lat="49.42296" lon="1.11523">
        <ele>15</ele>
        <time>2017-01-17T16:19:54Z</time>
      </trkpt>
      <trkpt lat="49.4229" lon="1.11527">
        <ele>11</ele>
        <time>2017-01-17T16:20:10Z</time>
      </trkpt>
      <trkpt lat="49.42285" lon="1.1153">
        <ele>11</ele>
        <time>2017-01-17T16:20:10Z</time>
      </trkpt>
      <trkpt lat="49.42281" lon="1.11531">
        <ele>11</ele>
        <time>2017-01-17T16:20:10Z</time>
      </trkpt>
      <trkpt lat="49.42277" lon="1.11533">
        <ele>11</ele>
        <time>2017-01-17T16:20:10Z</time>
      </trkpt>
      <trkpt lat="49.42271" lon="1.11538">
        <ele>11</ele>
        <time>2017-01-17T16:20:26Z</time>
      </trkpt>
      <trkpt lat="49.42266" lon="1.1154">
        <ele>11</ele>
        <time>2017-01-17T16:20:26Z</time>
      </trkpt>
      <trkpt lat="49.42261" lon="1.11543">
        <ele>18</ele>
        <time>2017-01-17T16:20:26Z</time>
      </trkpt>
      <trkpt lat="49.42256" lon="1.11546">
        <ele>18</ele>
        <time>2017-01-17T16:20:26Z</time>
      </trkpt>
      <trkpt lat="49.42251" lon="1.1155">
        <ele>18</ele>
        <time>2017-01-17T16:20:42Z</time>
      </trkpt>
      <trkpt lat="49.42246" lon="1.11553">
        <ele>18</ele>
        <time>2017-01-17T16:20:42Z</time>
      </trkpt>
      <trkpt lat="49.42242" lon="1.11555">
        <ele>18</ele>
        <time>2017-01-17T16:20:42Z</time>
      </trkpt>
      <trkpt lat="49.42237" lon="1.11557">
        <ele>18</ele>
        <time>2017-01-17T16:20:42Z</time>
      </trkpt>
      <trkpt lat="49.42233" lon="1.1156">
        <ele>18</ele>
        <time>2017-01-17T16:20:58Z</time>
      </trkpt>
      <trkpt lat="49.42227" lon="1.11562">
        <ele>18</ele>
        <time>2017-01-17T16:20:58Z</time>
      </trkpt>
      <trkpt lat="49.42223" lon="1.11565">
        <ele>18</ele>
        <time>2017-01-17T16:20:58Z</time>
      </trkpt>
      <trkpt lat="49.42218" lon="1.11567">
        <ele>18</ele>
        <time>2017-01-17T16:20:58Z</time>
      </trkpt>
      <trkpt lat="49.42214" lon="1.11569">
        <ele>18</ele>
        <time>2017-01-17T16:21:14Z</time>
      </trkpt>
      <trkpt lat="49.42209" lon="1.11572">
        <ele>18</ele>
        <time>2017-01-17T16:21:14Z</time>
      </trkpt>
      <trkpt lat="49.42203" lon="1.11575">
        <ele>10</ele>
        <time>2017-01-17T16:21:14Z</time>
      </trkpt>
      <trkpt lat="49.42199" lon="1.11577">
        <ele>10</ele>
        <time>2017-01-17T16:21:14Z</time>
      </trkpt>
      <trkpt lat="49.42194" lon="1.11579">
        <ele>10</ele>
        <time>2017-01-17T16:21:30Z</time>
      </trkpt>
      <trkpt lat="49.42189" lon="1.11582">
        <ele>10</ele>
        <time>2017-01-17T16:21:30Z</time>
      </trkpt>
      <trkpt lat="49.42185" lon="1.11584">
        <ele>10</ele>
        <time>2017-01-17T16:21:30Z</time>
      </trkpt>
      <trkpt lat="49.42182" lon="1.11587">
        <ele>10</ele>
        <time>2017-01-17T16:21:30Z</time>
      </trkpt>
      <trkpt lat="49.42178" lon="1.1159">
        <ele>10</ele>
        <time>2017-01-17T16:21:46Z</time>
      </trkpt>
      <trkpt lat="49.42176" lon="1.11596">
        <ele>10</ele>
        <time>2017-01-17T16:21:46Z</time>
      </trkpt>
      <trkpt lat="49.42172" lon="1.11602">
        <ele>10</ele>
        <time>2017-01-17T16:21:46Z</time>
      </trkpt>
      <trkpt lat="49.4217" lon="1.11608">
        <ele>10</ele>
        <time>2017-01-17T16:21:46Z</time>
      </trkpt>
      <trkpt lat="49.42167" lon="1.11612">
        <ele>10</ele>
        <time>2017-01-17T16:22:02Z</time>
      </trkpt>
      <trkpt lat="49.42163" lon="1.11616">
        <ele>10</ele>
        <time>2017-01-17T16:22:02Z</time>
      </trkpt>
      <trkpt lat="49.4216" lon="1.1162">
        <ele>10</ele>
        <time>2017-01-17T16:22:02Z</time>
      </trkpt>
      <trkpt lat="49.42158" lon="1.11622">
        <ele>10</ele>
        <time>2017-01-17T16:22:02Z</time>
      </trkpt>
      <trkpt lat="49.42154" lon="1.11622">
        <ele>10</ele>
        <time>2017-01-17T16:22:18Z</time>
      </trkpt>
      <trkpt lat="49.42149" lon="1.11625">
        <ele>10</ele>
        <time>2017-01-17T16:22:18Z</time>
      </trkpt>
      <trkpt lat="49.42148" lon="1.11629">
        <ele>22</ele>
        <time>2017-01-17T16:22:18Z</time>
      </trkpt>
      <trkpt lat="49.42147" lon="1.11633">
        <ele>22</ele>
        <time>2017-01-17T16:22:18Z</time>
      </trkpt>
      <trkpt lat="49.42151" lon="1.11637">
        <ele>22</ele>
        <time>2017-01-17T16:22:34Z</time>
      </trkpt>
      <trkpt lat="49.42154" lon="1.11641">
        <ele>22</ele>
        <time>2017-01-17T16:22:34Z</time>
      </trkpt>
      <trkpt lat="49.42154" lon="1.11645">
        <ele>22</ele>
        <time>2017-01-17T16:22:34Z</time>
      </trkpt>
      <trkpt lat="49.42157" lon="1.11651">
        <ele>22</ele>
        <time>2017-01-17T16:22:34Z</time>
      </trkpt>
      <trkpt lat="49.42158" lon="1.11654">
        <ele>22</ele>
        <time>2017-01-17T16:22:50Z</time>
      </trkpt>
      <trkpt lat="49.42158" lon="1.11658">
        <ele>22</ele>
        <time>2017-01-17T16:22:50Z</time>
      </trkpt>
      <trkpt lat="49.42159" lon="1.11664">
        <ele>22</ele>
        <time>2017-01-17T16:22:50Z</time>
      </trkpt>
      <trkpt lat="49.42159" lon="1.11668">
        <ele>22</ele>
        <time>2017-01-17T16:22:50Z</time>
      </trkpt>
      <trkpt lat="49.42161" lon="1.1167">
        <ele>22</ele>
        <time>2017-01-17T16:23:06Z</time>
      </trkpt>
      <trkpt lat="49.42159" lon="1.11675">
        <ele>22</ele>
        <time>2017-01-17T16:23:06Z</time>
      </trkpt>
      <trkpt lat="49.4216" lon="1.1168">
        <ele>22</ele>
        <time>2017-01-17T16:23:06Z</time>
      </trkpt>
      <trkpt lat="49.42159" lon="1.11687">
        <ele>22</ele>
        <time>2017-01-17T16:23:06Z</time>
      </trkpt>
      <trkpt lat="49.4216" lon="1.11693">
        <ele>22</ele>
        <time>2017-01-17T16:23:26Z</time>
      </trkpt>
      <trkpt lat="49.42161" lon="1.11698">
        <ele>22</ele>
        <time>2017-01-17T16:23:26Z</time>
      </trkpt>
      <trkpt lat="49.42162" lon="1.11703">
        <ele>22</ele>
        <time>2017-01-17T16:23:26Z</time>
      </trkpt>
      <trkpt lat="49.42163" lon="1.11706">
        <ele>22</ele>
        <time>2017-01-17T16:23:26Z</time>
      </trkpt>
      <trkpt lat="49.42164" lon="1.11709">
        <ele>41</ele>
        <time>2017-01-17T16:23:26Z</time>
      </trkpt>
      <trkpt lat="49.42167" lon="1.11713">
        <ele>41</ele>
        <time>2017-01-17T16:23:42Z</time>
      </trkpt>
      <trkpt lat="49.4217" lon="1.11715">
        <ele>41</ele>
        <time>2017-01-17T16:23:42Z</time>
      </trkpt>
      <trkpt lat="49.42174" lon="1.11718">
        <ele>41</ele>
        <time>2017-01-17T16:23:42Z</time>
      </trkpt>
      <trkpt lat="49.42179" lon="1.11717">
        <ele>41</ele>
        <time>2017-01-17T16:23:42Z</time>
      </trkpt>
      <trkpt lat="49.42184" lon="1.11715">
        <ele>41</ele>
        <time>2017-01-17T16:23:58Z</time>
      </trkpt>
      <trkpt lat="49.42189" lon="1.11713">
        <ele>41</ele>
        <time>2017-01-17T16:23:58Z</time>
      </trkpt>
      <trkpt lat="49.42193" lon="1.11711">
        <ele>41</ele>
        <time>2017-01-17T16:23:58Z</time>
      </trkpt>
      <trkpt lat="49.42198" lon="1.11709">
        <ele>41</ele>
        <time>2017-01-17T16:23:58Z</time>
      </trkpt>
      <trkpt lat="49.42202" lon="1.11707">
        <ele>22</ele>
        <time>2017-01-17T16:24:14Z</time>
      </trkpt>
      <trkpt lat="49.42206" lon="1.11704">
        <ele>22</ele>
        <time>2017-01-17T16:24:14Z</time>
      </trkpt>
      <trkpt lat="49.4221" lon="1.11701">
        <ele>37</ele>
        <time>2017-01-17T16:24:14Z</time>
      </trkpt>
      <trkpt lat="49.42214" lon="1.11699">
        <ele>37</ele>
        <time>2017-01-17T16:24:14Z</time>
      </trkpt>
      <trkpt lat="49.42219" lon="1.11697">
        <ele>37</ele>
        <time>2017-01-17T16:24:30Z</time>
      </trkpt>
      <trkpt lat="49.42223" lon="1.11694">
        <ele>37</ele>
        <time>2017-01-17T16:24:30Z</time>
      </trkpt>
      <trkpt lat="49.42227" lon="1.11692">
        <ele>37</ele>
        <time>2017-01-17T16:24:30Z</time>
      </trkpt>
      <trkpt lat="49.42232" lon="1.11689">
        <ele>37</ele>
        <time>2017-01-17T16:24:30Z</time>
      </trkpt>
      <trkpt lat="49.42236" lon="1.11687">
        <ele>37</ele>
        <time>2017-01-17T16:24:46Z</time>
      </trkpt>
      <trkpt lat="49.4224" lon="1.11685">
        <ele>37</ele>
        <time>2017-01-17T16:24:46Z</time>
      </trkpt>
      <trkpt lat="49.42245" lon="1.11684">
        <ele>37</ele>
        <time>2017-01-17T16:24:46Z</time>
      </trkpt>
      <trkpt lat="49.42249" lon="1.11685">
        <ele>37</ele>
        <time>2017-01-17T16:24:46Z</time>
      </trkpt>
      <trkpt lat="49.42253" lon="1.11689">
        <ele>37</ele>
        <time>2017-01-17T16:25:02Z</time>
      </trkpt>
      <trkpt lat="49.42255" lon="1.11696">
        <ele>37</ele>
        <time>2017-01-17T16:25:02Z</time>
      </trkpt>
      <trkpt lat="49.42254" lon="1.11703">
        <ele>37</ele>
        <time>2017-01-17T16:25:02Z</time>
      </trkpt>
      <trkpt lat="49.42251" lon="1.11711">
        <ele>61</ele>
        <time>2017-01-17T16:25:02Z</time>
      </trkpt>
      <trkpt lat="49.42248" lon="1.11718">
        <ele>61</ele>
        <time>2017-01-17T16:25:18Z</time>
      </trkpt>
      <trkpt lat="49.42242" lon="1.11723">
        <ele>61</ele>
        <time>2017-01-17T16:25:18Z</time>
      </trkpt>
      <trkpt lat="49.42233" lon="1.11729">
        <ele>61</ele>
        <time>2017-01-17T16:25:18Z</time>
      </trkpt>
      <trkpt lat="49.42227" lon="1.1173">
        <ele>61</ele>
        <time>2017-01-17T16:25:18Z</time>
      </trkpt>
      <trkpt lat="49.42222" lon="1.11735">
        <ele>61</ele>
        <time>2017-01-17T16:25:34Z</time>
      </trkpt>
      <trkpt lat="49.42218" lon="1.11737">
        <ele>61</ele>
        <time>2017-01-17T16:25:34Z</time>
      </trkpt>
      <trkpt lat="49.42213" lon="1.11741">
        <ele>61</ele>
        <time>2017-01-17T16:25:34Z</time>
      </trkpt>
      <trkpt lat="49.42207" lon="1.11745">
        <ele>41</ele>
        <time>2017-01-17T16:25:34Z</time>
      </trkpt>
      <trkpt lat="49.42202" lon="1.11748">
        <ele>41</ele>
        <time>2017-01-17T16:25:50Z</time>
      </trkpt>
      <trkpt lat="49.42199" lon="1.11749">
        <ele>41</ele>
        <time>2017-01-17T16:25:50Z</time>
      </trkpt>
      <trkpt lat="49.42196" lon="1.11751">
        <ele>41</ele>
        <time>2017-01-17T16:25:50Z</time>
      </trkpt>
      <trkpt lat="49.42193" lon="1.11755">
        <ele>41</ele>
        <time>2017-01-17T16:25:50Z</time>
      </trkpt>
      <trkpt lat="49.4219" lon="1.11759">
        <ele>41</ele>
        <time>2017-01-17T16:26:06Z</time>
      </trkpt>
      <trkpt lat="49.42186" lon="1.11764">
        <ele>41</ele>
        <time>2017-01-17T16:26:06Z</time>
      </trkpt>
      <trkpt lat="49.42183" lon="1.11769">
        <ele>41</ele>
        <time>2017-01-17T16:26:06Z</time>
      </trkpt>
      <trkpt lat="49.42178" lon="1.11773">
        <ele>41</ele>
        <time>2017-01-17T16:26:06Z</time>
      </trkpt>
      <trkpt lat="49.42175" lon="1.11776">
        <ele>41</ele>
        <time>2017-01-17T16:26:22Z</time>
      </trkpt>
      <trkpt lat="49.42172" lon="1.11781">
        <ele>41</ele>
        <time>2017-01-17T16:26:22Z</time>
      </trkpt>
      <trkpt lat="49.4217" lon="1.11787">
        <ele>41</ele>
        <time>2017-01-17T16:26:22Z</time>
      </trkpt>
      <trkpt lat="49.42167" lon="1.11792">
        <ele>60</ele>
        <time>2017-01-17T16:26:22Z</time>
      </trkpt>
      <trkpt lat="49.42165" lon="1.11795">
        <ele>60</ele>
        <time>2017-01-17T16:26:38Z</time>
      </trkpt>
      <trkpt lat="49.42164" lon="1.11793">
        <ele>60</ele>
        <time>2017-01-17T16:26:38Z</time>
      </trkpt>
      <trkpt lat="49.4216" lon="1.11792">
        <ele>60</ele>
        <time>2017-01-17T16:26:38Z</time>
      </trkpt>
      <trkpt lat="49.42156" lon="1.11795">
        <ele>60</ele>
        <time>2017-01-17T16:26:38Z</time>
      </trkpt>
      <trkpt lat="49.42152" lon="1.11795">
        <ele>60</ele>
        <time>2017-01-17T16:26:54Z</time>
      </trkpt>
      <trkpt lat="49.42149" lon="1.11797">
        <ele>60</ele>
        <time>2017-01-17T16:26:54Z</time>
      </trkpt>
      <trkpt lat="49.42145" lon="1.11799">
        <ele>60</ele>
        <time>2017-01-17T16:26:54Z</time>
      </trkpt>
      <trkpt lat="49.4214" lon="1.118">
        <ele>60</ele>
        <time>2017-01-17T16:26:54Z</time>
      </trkpt>
      <trkpt lat="49.42137" lon="1.11803">
        <ele>60</ele>
        <time>2017-01-17T16:27:10Z</time>
      </trkpt>
      <trkpt lat="49.42132" lon="1.11804">
        <ele>60</ele>
        <time>2017-01-17T16:27:10Z</time>
      </trkpt>
      <trkpt lat="49.42128" lon="1.11804">
        <ele>60</ele>
        <time>2017-01-17T16:27:10Z</time>
      </trkpt>
      <trkpt lat="49.42125" lon="1.11803">
        <ele>67</ele>
        <time>2017-01-17T16:27:10Z</time>
      </trkpt>
      <trkpt lat="49.42123" lon="1.11802">
        <ele>67</ele>
        <time>2017-01-17T16:27:26Z</time>
      </trkpt>
      <trkpt lat="49.4212" lon="1.11797">
        <ele>67</ele>
        <time>2017-01-17T16:27:26Z</time>
      </trkpt>
      <trkpt lat="49.4212" lon="1.11793">
        <ele>67</ele>
        <time>2017-01-17T16:27:26Z</time>
      </trkpt>
      <trkpt lat="49.42119" lon="1.11788">
        <ele>36</ele>
        <time>2017-01-17T16:27:26Z</time>
      </trkpt>
      <trkpt lat="49.42119" lon="1.11787">
        <ele>36</ele>
        <time>2017-01-17T16:28:38Z</time>
      </trkpt>
      <trkpt lat="49.42118" lon="1.11786">
        <ele>36</ele>
        <time>2017-01-17T16:28:38Z</time>
      </trkpt>
      <trkpt lat="49.42115" lon="1.11786">
        <ele>36</ele>
        <time>2017-01-17T16:28:38Z</time>
      </trkpt>
      <trkpt lat="49.42112" lon="1.11788">
        <ele>36</ele>
        <time>2017-01-17T16:28:38Z</time>
      </trkpt>
      <trkpt lat="49.42108" lon="1.1179">
        <ele>36</ele>
        <time>2017-01-17T16:28:38Z</time>
      </trkpt>
      <trkpt lat="49.42104" lon="1.11791">
        <ele>36</ele>
        <time>2017-01-17T16:28:54Z</time>
      </trkpt>
      <trkpt lat="49.42099" lon="1.11799">
        <ele>67</ele>
        <time>2017-01-17T16:28:54Z</time>
      </trkpt>
      <trkpt lat="49.42098" lon="1.11804">
        <ele>67</ele>
        <time>2017-01-17T16:28:54Z</time>
      </trkpt>
      <trkpt lat="49.42095" lon="1.11807">
        <ele>67</ele>
        <time>2017-01-17T16:28:54Z</time>
      </trkpt>
      <trkpt lat="49.42092" lon="1.11806">
        <ele>67</ele>
        <time>2017-01-17T16:29:22Z</time>
      </trkpt>
      <trkpt lat="49.42088" lon="1.11806">
        <ele>67</ele>
        <time>2017-01-17T16:29:22Z</time>
      </trkpt>
      <trkpt lat="49.42084" lon="1.11806">
        <ele>67</ele>
        <time>2017-01-17T16:29:22Z</time>
      </trkpt>
      <trkpt lat="49.42081" lon="1.11805">
        <ele>67</ele>
        <time>2017-01-17T16:29:22Z</time>
      </trkpt>
      <trkpt lat="49.42077" lon="1.11807">
        <ele>67</ele>
        <time>2017-01-17T16:29:22Z</time>
      </trkpt>
      <trkpt lat="49.42072" lon="1.11808">
        <ele>67</ele>
        <time>2017-01-17T16:29:38Z</time>
      </trkpt>
      <trkpt lat="49.42069" lon="1.11812">
        <ele>67</ele>
        <time>2017-01-17T16:29:38Z</time>
      </trkpt>
      <trkpt lat="49.42065" lon="1.11815">
        <ele>67</ele>
        <time>2017-01-17T16:29:38Z</time>
      </trkpt>
      <trkpt lat="49.42061" lon="1.11819">
        <ele>67</ele>
        <time>2017-01-17T16:29:38Z</time>
      </trkpt>
      <trkpt lat="49.42056" lon="1.11822">
        <ele>67</ele>
        <time>2017-01-17T16:29:54Z</time>
      </trkpt>
      <trkpt lat="49.42051" lon="1.11825">
        <ele>67</ele>
        <time>2017-01-17T16:29:54Z</time>
      </trkpt>
      <trkpt lat="49.42047" lon="1.11829">
        <ele>67</ele>
        <time>2017-01-17T16:29:54Z</time>
      </trkpt>
      <trkpt lat="49.42044" lon="1.11833">
        <ele>67</ele>
        <time>2017-01-17T16:29:54Z</time>
      </trkpt>
      <trkpt lat="49.4204" lon="1.11837">
        <ele>49</ele>
        <time>2017-01-17T16:30:10Z</time>
      </trkpt>
      <trkpt lat="49.42037" lon="1.11842">
        <ele>49</ele>
        <time>2017-01-17T16:30:10Z</time>
      </trkpt>
      <trkpt lat="49.42034" lon="1.11846">
        <ele>49</ele>
        <time>2017-01-17T16:30:10Z</time>
      </trkpt>
      <trkpt lat="49.42029" lon="1.11847">
        <ele>49</ele>
        <time>2017-01-17T16:30:10Z</time>
      </trkpt>
      <trkpt lat="49.42028" lon="1.1185">
        <ele>49</ele>
        <time>2017-01-17T16:30:26Z</time>
      </trkpt>
      <trkpt lat="49.42025" lon="1.11852">
        <ele>49</ele>
        <time>2017-01-17T16:30:26Z</time>
      </trkpt>
      <trkpt lat="49.42023" lon="1.11855">
        <ele>49</ele>
        <time>2017-01-17T16:30:26Z</time>
      </trkpt>
      <trkpt lat="49.4202" lon="1.1186">
        <ele>49</ele>
        <time>2017-01-17T16:30:26Z</time>
      </trkpt>
      <trkpt lat="49.42018" lon="1.11862">
        <ele>49</ele>
        <time>2017-01-17T16:30:42Z</time>
      </trkpt>
      <trkpt lat="49.42015" lon="1.11864">
        <ele>49</ele>
        <time>2017-01-17T16:30:42Z</time>
      </trkpt>
      <trkpt lat="49.4201" lon="1.11865">
        <ele>49</ele>
        <time>2017-01-17T16:30:42Z</time>
      </trkpt>
      <trkpt lat="49.42007" lon="1.11868">
        <ele>49</ele>
        <time>2017-01-17T16:30:42Z</time>
      </trkpt>
      <trkpt lat="49.42002" lon="1.11874">
        <ele>49</ele>
        <time>2017-01-17T16:30:58Z</time>
      </trkpt>
      <trkpt lat="49.41998" lon="1.11876">
        <ele>79</ele>
        <time>2017-01-17T16:30:58Z</time>
      </trkpt>
      <trkpt lat="49.41992" lon="1.11878">
        <ele>79</ele>
        <time>2017-01-17T16:30:58Z</time>
      </trkpt>
      <trkpt lat="49.41987" lon="1.1188">
        <ele>79</ele>
        <time>2017-01-17T16:30:58Z</time>
      </trkpt>
      <trkpt lat="49.41984" lon="1.11884">
        <ele>79</ele>
        <time>2017-01-17T16:31:14Z</time>
      </trkpt>
      <trkpt lat="49.4198" lon="1.11886">
        <ele>79</ele>
        <time>2017-01-17T16:31:14Z</time>
      </trkpt>
      <trkpt lat="49.41977" lon="1.11889">
        <ele>79</ele>
        <time>2017-01-17T16:31:14Z</time>
      </trkpt>
      <trkpt lat="49.41973" lon="1.11893">
        <ele>79</ele>
        <time>2017-01-17T16:31:14Z</time>
      </trkpt>
      <trkpt lat="49.41969" lon="1.11896">
        <ele>79</ele>
        <time>2017-01-17T16:31:30Z</time>
      </trkpt>
      <trkpt lat="49.41964" lon="1.11902">
        <ele>79</ele>
        <time>2017-01-17T16:31:30Z</time>
      </trkpt>
      <trkpt lat="49.41961" lon="1.11905">
        <ele>79</ele>
        <time>2017-01-17T16:31:30Z</time>
      </trkpt>
      <trkpt lat="49.41959" lon="1.11909">
        <ele>79</ele>
        <time>2017-01-17T16:31:30Z</time>
      </trkpt>
      <trkpt lat="49.41957" lon="1.11915">
        <ele>44</ele>
        <time>2017-01-17T16:31:46Z</time>
      </trkpt>
      <trkpt lat="49.41955" lon="1.1192">
        <ele>44</ele>
        <time>2017-01-17T16:31:46Z</time>
      </trkpt>
      <trkpt lat="49.41955" lon="1.11925">
        <ele>44</ele>
        <time>2017-01-17T16:31:46Z</time>
      </trkpt>
      <trkpt lat="49.41954" lon="1.11931">
        <ele>44</ele>
        <time>2017-01-17T16:31:46Z</time>
      </trkpt>
      <trkpt lat="49.41953" lon="1.11935">
        <ele>44</ele>
        <time>2017-01-17T16:32:06Z</time>
      </trkpt>
      <trkpt lat="49.41953" lon="1.11939">
        <ele>44</ele>
        <time>2017-01-17T16:32:06Z</time>
      </trkpt>
      <trkpt lat="49.41955" lon="1.1194">
        <ele>44</ele>
        <time>2017-01-17T16:32:06Z</time>
      </trkpt>
      <trkpt lat="49.41956" lon="1.11946">
        <ele>44</ele>
        <time>2017-01-17T16:32:06Z</time>
      </trkpt>
      <trkpt lat="49.41958" lon="1.11952">
        <ele>44</ele>
        <time>2017-01-17T16:32:06Z</time>
      </trkpt>
      <trkpt lat="49.41957" lon="1.11958">
        <ele>44</ele>
        <time>2017-01-17T16:32:22Z</time>
      </trkpt>
      <trkpt lat="49.41956" lon="1.11964">
        <ele>61</ele>
        <time>2017-01-17T16:32:22Z</time>
      </trkpt>
      <trkpt lat="49.41955" lon="1.1197">
        <ele>61</ele>
        <time>2017-01-17T16:32:22Z</time>
      </trkpt>
      <trkpt lat="49.41955" lon="1.11977">
        <ele>61</ele>
        <time>2017-01-17T16:32:22Z</time>
      </trkpt>
      <trkpt lat="49.41954" lon="1.11983">
        <ele>61</ele>
        <time>2017-01-17T16:32:42Z</time>
      </trkpt>
      <trkpt lat="49.41955" lon="1.11989">
        <ele>61</ele>
        <time>2017-01-17T16:32:42Z</time>
      </trkpt>
      <trkpt lat="49.41954" lon="1.11992">
        <ele>61</ele>
        <time>2017-01-17T16:32:42Z</time>
      </trkpt>
      <trkpt lat="49.41955" lon="1.11996">
        <ele>61</ele>
        <time>2017-01-17T16:32:42Z</time>
      </trkpt>
      <trkpt lat="49.41955" lon="1.12">
        <ele>61</ele>
        <time>2017-01-17T16:32:42Z</time>
      </trkpt>
      <trkpt lat="49.41954" lon="1.12007">
        <ele>61</ele>
        <time>2017-01-17T16:32:58Z</time>
      </trkpt>
      <trkpt lat="49.41954" lon="1.12013">
        <ele>61</ele>
        <time>2017-01-17T16:32:58Z</time>
      </trkpt>
      <trkpt lat="49.41953" lon="1.12019">
        <ele>61</ele>
        <time>2017-01-17T16:32:58Z</time>
      </trkpt>
      <trkpt lat="49.41951" lon="1.12025">
        <ele>61</ele>
        <time>2017-01-17T16:32:58Z</time>
      </trkpt>
      <trkpt lat="49.41951" lon="1.12031">
        <ele>61</ele>
        <time>2017-01-17T16:33:14Z</time>
      </trkpt>
      <trkpt lat="49.41952" lon="1.12037">
        <ele>61</ele>
        <time>2017-01-17T16:33:14Z</time>
      </trkpt>
      <trkpt lat="49.41951" lon="1.12042">
        <ele>89</ele>
        <time>2017-01-17T16:33:14Z</time>
      </trkpt>
      <trkpt lat="49.41949" lon="1.12049">
        <ele>89</ele>
        <time>2017-01-17T16:33:14Z</time>
      </trkpt>
      <trkpt lat="49.41947" lon="1.12055">
        <ele>89</ele>
        <time>2017-01-17T16:33:30Z</time>
      </trkpt>
      <trkpt lat="49.41944" lon="1.12057">
        <ele>89</ele>
        <time>2017-01-17T16:33:30Z</time>
      </trkpt>
      <trkpt lat="49.41941" lon="1.12059">
        <ele>89</ele>
        <time>2017-01-17T16:33:30Z</time>
      </trkpt>
      <trkpt lat="49.41938" lon="1.12062">
        <ele>89</ele>
        <time>2017-01-17T16:33:30Z</time>
      </trkpt>
      <trkpt lat="49.41934" lon="1.12063">
        <ele>89</ele>
        <time>2017-01-17T16:33:46Z</time>
      </trkpt>
      <trkpt lat="49.41931" lon="1.12064">
        <ele>89</ele>
        <time>2017-01-17T16:33:46Z</time>
      </trkpt>
      <trkpt lat="49.41927" lon="1.12064">
        <ele>89</ele>
        <time>2017-01-17T16:33:46Z</time>
      </trkpt>
      <trkpt lat="49.41924" lon="1.12063">
        <ele>89</ele>
        <time>2017-01-17T16:33:46Z</time>
      </trkpt>
      <trkpt lat="49.4192" lon="1.12064">
        <ele>89</ele>
        <time>2017-01-17T16:34:02Z</time>
      </trkpt>
      <trkpt lat="49.41918" lon="1.12066">
        <ele>89</ele>
        <time>2017-01-17T16:34:02Z</time>
      </trkpt>
      <trkpt lat="49.41913" lon="1.12068">
        <ele>89</ele>
        <time>2017-01-17T16:34:02Z</time>
      </trkpt>
      <trkpt lat="49.41909" lon="1.1207">
        <ele>89</ele>
        <time>2017-01-17T16:34:02Z</time>
      </trkpt>
      <trkpt lat="49.41904" lon="1.12072">
        <ele>89</ele>
        <time>2017-01-17T16:34:18Z</time>
      </trkpt>
      <trkpt lat="49.41899" lon="1.12073">
        <ele>89</ele>
        <time>2017-01-17T16:34:18Z</time>
      </trkpt>
      <trkpt lat="49.41894" lon="1.12073">
        <ele>89</ele>
        <time>2017-01-17T16:34:18Z</time>
      </trkpt>
      <trkpt lat="49.41889" lon="1.12074">
        <ele>89</ele>
        <time>2017-01-17T16:34:18Z</time>
      </trkpt>
      <trkpt lat="49.41884" lon="1.12075">
        <ele>89</ele>
        <time>2017-01-17T16:34:34Z</time>
      </trkpt>
      <trkpt lat="49.4188" lon="1.12074">
        <ele>89</ele>
        <time>2017-01-17T16:34:34Z</time>
      </trkpt>
      <trkpt lat="49.41875" lon="1.12069">
        <ele>105</ele>
        <time>2017-01-17T16:34:34Z</time>
      </trkpt>
      <trkpt lat="49.41871" lon="1.12066">
        <ele>105</ele>
        <time>2017-01-17T16:34:34Z</time>
      </trkpt>
      <trkpt lat="49.41868" lon="1.12061">
        <ele>105</ele>
        <time>2017-01-17T16:34:50Z</time>
      </trkpt>
      <trkpt lat="49.41864" lon="1.12056">
        <ele>105</ele>
        <time>2017-01-17T16:34:50Z</time>
      </trkpt>
      <trkpt lat="49.41861" lon="1.12053">
        <ele>105</ele>
        <time>2017-01-17T16:34:50Z</time>
      </trkpt>
      <trkpt lat="49.41857" lon="1.12048">
        <ele>105</ele>
        <time>2017-01-17T16:34:50Z</time>
      </trkpt>
      <trkpt lat="49.41853" lon="1.12045">
        <ele>105</ele>
        <time>2017-01-17T16:35:06Z</time>
      </trkpt>
      <trkpt lat="49.41849" lon="1.12041">
        <ele>75</ele>
        <time>2017-01-17T16:35:06Z</time>
      </trkpt>
      <trkpt lat="49.41846" lon="1.12037">
        <ele>75</ele>
        <time>2017-01-17T16:35:06Z</time>
      </trkpt>
      <trkpt lat="49.41843" lon="1.12033">
        <ele>75</ele>
        <time>2017-01-17T16:35:06Z</time>
      </trkpt>
      <trkpt lat="49.4184" lon="1.12028">
        <ele>75</ele>
        <time>2017-01-17T16:35:22Z</time>
      </trkpt>
      <trkpt lat="49.41837" lon="1.12024">
        <ele>75</ele>
        <time>2017-01-17T16:35:22Z</time>
      </trkpt>
      <trkpt lat="49.41833" lon="1.12019">
        <ele>75</ele>
        <time>2017-01-17T16:35:22Z</time>
      </trkpt>
      <trkpt lat="49.41833" lon="1.12014">
        <ele>75</ele>
        <time>2017-01-17T16:35:22Z</time>
      </trkpt>
      <trkpt lat="49.41836" lon="1.12006">
        <ele>75</ele>
        <time>2017-01-17T16:35:38Z</time>
      </trkpt>
      <trkpt lat="49.41834" lon="1.12001">
        <ele>75</ele>
        <time>2017-01-17T16:35:38Z</time>
      </trkpt>
      <trkpt lat="49.41831" lon="1.11997">
        <ele>75</ele>
        <time>2017-01-17T16:35:38Z</time>
      </trkpt>
      <trkpt lat="49.41826" lon="1.11997">
        <ele>75</ele>
        <time>2017-01-17T16:35:38Z</time>
      </trkpt>
      <trkpt lat="49.41822" lon="1.11999">
        <ele>75</ele>
        <time>2017-01-17T16:35:54Z</time>
      </trkpt>
      <trkpt lat="49.41819" lon="1.12001">
        <ele>75</ele>
        <time>2017-01-17T16:35:54Z</time>
      </trkpt>
      <trkpt lat="49.41816" lon="1.12005">
        <ele>75</ele>
        <time>2017-01-17T16:35:54Z</time>
      </trkpt>
      <trkpt lat="49.41813" lon="1.12007">
        <ele>75</ele>
        <time>2017-01-17T16:35:54Z</time>
      </trkpt>
      <trkpt lat="49.41809" lon="1.12009">
        <ele>75</ele>
        <time>2017-01-17T16:36:10Z</time>
      </trkpt>
      <trkpt lat="49.41805" lon="1.12012">
        <ele>75</ele>
        <time>2017-01-17T16:36:10Z</time>
      </trkpt>
      <trkpt lat="49.41801" lon="1.12015">
        <ele>75</ele>
        <time>2017-01-17T16:36:10Z</time>
      </trkpt>
      <trkpt lat="49.41797" lon="1.12017">
        <ele>75</ele>
        <time>2017-01-17T16:36:10Z</time>
      </trkpt>
      <trkpt lat="49.41792" lon="1.12018">
        <ele>75</ele>
        <time>2017-01-17T16:36:26Z</time>
      </trkpt>
      <trkpt lat="49.41788" lon="1.1202">
        <ele>65</ele>
        <time>2017-01-17T16:36:26Z</time>
      </trkpt>
      <trkpt lat="49.41785" lon="1.12022">
        <ele>65</ele>
        <time>2017-01-17T16:36:26Z</time>
      </trkpt>
      <trkpt lat="49.41783" lon="1.12023">
        <ele>65</ele>
        <time>2017-01-17T16:36:26Z</time>
      </trkpt>
      <trkpt lat="49.41779" lon="1.12025">
        <ele>65</ele>
        <time>2017-01-17T16:36:42Z</time>
      </trkpt>
      <trkpt lat="49.41773" lon="1.12026">
        <ele>65</ele>
        <time>2017-01-17T16:36:42Z</time>
      </trkpt>
      <trkpt lat="49.41768" lon="1.12027">
        <ele>65</ele>
        <time>2017-01-17T16:36:42Z</time>
      </trkpt>
      <trkpt lat="49.41764" lon="1.12028">
        <ele>65</ele>
        <time>2017-01-17T16:36:42Z</time>
      </trkpt>
      <trkpt lat="49.41761" lon="1.12028">
        <ele>65</ele>
        <time>2017-01-17T16:36:58Z</time>
      </trkpt>
      <trkpt lat="49.41758" lon="1.1203">
        <ele>65</ele>
        <time>2017-01-17T16:36:58Z</time>
      </trkpt>
      <trkpt lat="49.41755" lon="1.12033">
        <ele>65</ele>
        <time>2017-01-17T16:36:58Z</time>
      </trkpt>
      <trkpt lat="49.41751" lon="1.12036">
        <ele>65</ele>
        <time>2017-01-17T16:36:58Z</time>
      </trkpt>
      <trkpt lat="49.41748" lon="1.1204">
        <ele>65</ele>
        <time>2017-01-17T16:37:14Z</time>
      </trkpt>
      <trkpt lat="49.41745" lon="1.12041">
        <ele>65</ele>
        <time>2017-01-17T16:37:14Z</time>
      </trkpt>
      <trkpt lat="49.41742" lon="1.12044">
        <ele>101</ele>
        <time>2017-01-17T16:37:14Z</time>
      </trkpt>
      <trkpt lat="49.41738" lon="1.12048">
        <ele>101</ele>
        <time>2017-01-17T16:37:14Z</time>
      </trkpt>
      <trkpt lat="49.41734" lon="1.12052">
        <ele>101</ele>
        <time>2017-01-17T16:37:30Z</time>
      </trkpt>
      <trkpt lat="49.41731" lon="1.12055">
        <ele>101</ele>
        <time>2017-01-17T16:37:30Z</time>
      </trkpt>
      <trkpt lat="49.41728" lon="1.12059">
        <ele>101</ele>
        <time>2017-01-17T16:37:30Z</time>
      </trkpt>
      <trkpt lat="49.41725" lon="1.12062">
        <ele>101</ele>
        <time>2017-01-17T16:37:30Z</time>
      </trkpt>
      <trkpt lat="49.41721" lon="1.12065">
        <ele>101</ele>
        <time>2017-01-17T16:37:46Z</time>
      </trkpt>
      <trkpt lat="49.41717" lon="1.1207">
        <ele>101</ele>
        <time>2017-01-17T16:37:46Z</time>
      </trkpt>
      <trkpt lat="49.41714" lon="1.12073">
        <ele>101</ele>
        <time>2017-01-17T16:37:46Z</time>
      </trkpt>
      <trkpt lat="49.41712" lon="1.12076">
        <ele>101</ele>
        <time>2017-01-17T16:37:46Z</time>
      </trkpt>
      <trkpt lat="49.41709" lon="1.12081">
        <ele>101</ele>
        <time>2017-01-17T16:38:06Z</time>
      </trkpt>
      <trkpt lat="49.41707" lon="1.12086">
        <ele>69</ele>
        <time>2017-01-17T16:38:06Z</time>
      </trkpt>
      <trkpt lat="49.41706" lon="1.1209">
        <ele>69</ele>
        <time>2017-01-17T16:38:06Z</time>
      </trkpt>
      <trkpt lat="49.41705" lon="1.12092">
        <ele>69</ele>
        <time>2017-01-17T16:38:06Z</time>
      </trkpt>
      <trkpt lat="49.41702" lon="1.12096">
        <ele>69</ele>
        <time>2017-01-17T16:38:06Z</time>
      </trkpt>
      <trkpt lat="49.417" lon="1.12098">
        <ele>69</ele>
        <time>2017-01-17T16:38:22Z</time>
      </trkpt>
      <trkpt lat="49.41697" lon="1.121">
        <ele>69</ele>
        <time>2017-01-17T16:38:22Z</time>
      </trkpt>
      <trkpt lat="49.41694" lon="1.12103">
        <ele>69</ele>
        <time>2017-01-17T16:38:22Z</time>
      </trkpt>
      <trkpt lat="49.4169" lon="1.12106">
        <ele>69</ele>
        <time>2017-01-17T16:38:22Z</time>
      </trkpt>
      <trkpt lat="49.41685" lon="1.12111">
        <ele>69</ele>
        <time>2017-01-17T16:38:38Z</time>
      </trkpt>
      <trkpt lat="49.41679" lon="1.12114">
        <ele>69</ele>
        <time>2017-01-17T16:38:38Z</time>
      </trkpt>
      <trkpt lat="49.41676" lon="1.12117">
        <ele>69</ele>
        <time>2017-01-17T16:38:38Z</time>
      </trkpt>
      <trkpt lat="49.41674" lon="1.12121">
        <ele>69</ele>
        <time>2017-01-17T16:38:38Z</time>
      </trkpt>
      <trkpt lat="49.41672" lon="1.12125">
        <ele>69</ele>
        <time>2017-01-17T16:38:54Z</time>
      </trkpt>
      <trkpt lat="49.41672" lon="1.1213">
        <ele>100</ele>
        <time>2017-01-17T16:38:54Z</time>
      </trkpt>
      <trkpt lat="49.41671" lon="1.12136">
        <ele>100</ele>
        <time>2017-01-17T16:38:54Z</time>
      </trkpt>
      <trkpt lat="49.41668" lon="1.12141">
        <ele>100</ele>
        <time>2017-01-17T16:38:54Z</time>
      </trkpt>
      <trkpt lat="49.41665" lon="1.12146">
        <ele>100</ele>
        <time>2017-01-17T16:39:10Z</time>
      </trkpt>
      <trkpt lat="49.41664" lon="1.12152">
        <ele>100</ele>
        <time>2017-01-17T16:39:10Z</time>
      </trkpt>
      <trkpt lat="49.41662" lon="1.12157">
        <ele>100</ele>
        <time>2017-01-17T16:39:10Z</time>
      </trkpt>
      <trkpt lat="49.41661" lon="1.12161">
        <ele>100</ele>
        <time>2017-01-17T16:39:10Z</time>
      </trkpt>
      <trkpt lat="49.41658" lon="1.12166">
        <ele>100</ele>
        <time>2017-01-17T16:39:26Z</time>
      </trkpt>
      <trkpt lat="49.41656" lon="1.12171">
        <ele>100</ele>
        <time>2017-01-17T16:39:26Z</time>
      </trkpt>
      <trkpt lat="49.41653" lon="1.12176">
        <ele>100</ele>
        <time>2017-01-17T16:39:26Z</time>
      </trkpt>
      <trkpt lat="49.4165" lon="1.1218">
        <ele>100</ele>
        <time>2017-01-17T16:39:26Z</time>
      </trkpt>
      <trkpt lat="49.41648" lon="1.12185">
        <ele>100</ele>
        <time>2017-01-17T16:39:42Z</time>
      </trkpt>
      <trkpt lat="49.41645" lon="1.12188">
        <ele>100</ele>
        <time>2017-01-17T16:39:42Z</time>
      </trkpt>
      <trkpt lat="49.41643" lon="1.12192">
        <ele>100</ele>
        <time>2017-01-17T16:39:42Z</time>
      </trkpt>
      <trkpt lat="49.41639" lon="1.12194">
        <ele>100</ele>
        <time>2017-01-17T16:39:42Z</time>
      </trkpt>
      <trkpt lat="49.41637" lon="1.12196">
        <ele>100</ele>
        <time>2017-01-17T16:39:58Z</time>
      </trkpt>
      <trkpt lat="49.41634" lon="1.12202">
        <ele>100</ele>
        <time>2017-01-17T16:39:58Z</time>
      </trkpt>
      <trkpt lat="49.41631" lon="1.12206">
        <ele>100</ele>
        <time>2017-01-17T16:39:58Z</time>
      </trkpt>
      <trkpt lat="49.41628" lon="1.12211">
        <ele>117</ele>
        <time>2017-01-17T16:39:58Z</time>
      </trkpt>
      <trkpt lat="49.41626" lon="1.12217">
        <ele>117</ele>
        <time>2017-01-17T16:40:14Z</time>
      </trkpt>
      <trkpt lat="49.41625" lon="1.12221">
        <ele>117</ele>
        <time>2017-01-17T16:40:14Z</time>
      </trkpt>
      <trkpt lat="49.41625" lon="1.12226">
        <ele>75</ele>
        <time>2017-01-17T16:40:14Z</time>
      </trkpt>
      <trkpt lat="49.41625" lon="1.1223">
        <ele>75</ele>
        <time>2017-01-17T16:40:14Z</time>
      </trkpt>
      <trkpt lat="49.41626" lon="1.12236">
        <ele>117</ele>
        <time>2017-01-17T16:40:30Z</time>
      </trkpt>
      <trkpt lat="49.41626" lon="1.12242">
        <ele>117</ele>
        <time>2017-01-17T16:40:30Z</time>
      </trkpt>
      <trkpt lat="49.41624" lon="1.12248">
        <ele>75</ele>
        <time>2017-01-17T16:40:30Z</time>
      </trkpt>
      <trkpt lat="49.41624" lon="1.12253">
        <ele>75</ele>
        <time>2017-01-17T16:40:30Z</time>
      </trkpt>
      <trkpt lat="49.41624" lon="1.12258">
        <ele>75</ele>
        <time>2017-01-17T16:40:46Z</time>
      </trkpt>
      <trkpt lat="49.41624" lon="1.12263">
        <ele>75</ele>
        <time>2017-01-17T16:40:46Z</time>
      </trkpt>
      <trkpt lat="49.41623" lon="1.12268">
        <ele>75</ele>
        <time>2017-01-17T16:40:46Z</time>
      </trkpt>
      <trkpt lat="49.41623" lon="1.12274">
        <ele>75</ele>
        <time>2017-01-17T16:40:46Z</time>
      </trkpt>
      <trkpt lat="49.41625" lon="1.1228">
        <ele>75</ele>
        <time>2017-01-17T16:41:02Z</time>
      </trkpt>
      <trkpt lat="49.41626" lon="1.12286">
        <ele>117</ele>
        <time>2017-01-17T16:41:02Z</time>
      </trkpt>
      <trkpt lat="49.41627" lon="1.12292">
        <ele>124</ele>
        <time>2017-01-17T16:41:02Z</time>
      </trkpt>
      <trkpt lat="49.41629" lon="1.12296">
        <ele>124</ele>
        <time>2017-01-17T16:41:02Z</time>
      </trkpt>
      <trkpt lat="49.4163" lon="1.12301">
        <ele>124</ele>
        <time>2017-01-17T16:41:18Z</time>
      </trkpt>
      <trkpt lat="49.41631" lon="1.12306">
        <ele>124</ele>
        <time>2017-01-17T16:41:18Z</time>
      </trkpt>
      <trkpt lat="49.41632" lon="1.12312">
        <ele>124</ele>
        <time>2017-01-17T16:41:18Z</time>
      </trkpt>
      <trkpt lat="49.41633" lon="1.12318">
        <ele>124</ele>
        <time>2017-01-17T16:41:18Z</time>
      </trkpt>
      <trkpt lat="49.41634" lon="1.12324">
        <ele>124</ele>
        <time>2017-01-17T16:41:34Z</time>
      </trkpt>
      <trkpt lat="49.41635" lon="1.1233">
        <ele>124</ele>
        <time>2017-01-17T16:41:34Z</time>
      </trkpt>
      <trkpt lat="49.41636" lon="1.12336">
        <ele>124</ele>
        <time>2017-01-17T16:41:34Z</time>
      </trkpt>
      <trkpt lat="49.41637" lon="1.12343">
        <ele>124</ele>
        <time>2017-01-17T16:41:34Z</time>
      </trkpt>
      <trkpt lat="49.41638" lon="1.12348">
        <ele>124</ele>
        <time>2017-01-17T16:41:50Z</time>
      </trkpt>
      <trkpt lat="49.41639" lon="1.12354">
        <ele>124</ele>
        <time>2017-01-17T16:41:50Z</time>
      </trkpt>
      <trkpt lat="49.41641" lon="1.1236">
        <ele>124</ele>
        <time>2017-01-17T16:41:50Z</time>
      </trkpt>
      <trkpt lat="49.41641" lon="1.12366">
        <ele>124</ele>
        <time>2017-01-17T16:41:50Z</time>
      </trkpt>
      <trkpt lat="49.41643" lon="1.12372">
        <ele>124</ele>
        <time>2017-01-17T16:42:06Z</time>
      </trkpt>
      <trkpt lat="49.41644" lon="1.12378">
        <ele>129</ele>
        <time>2017-01-17T16:42:06Z</time>
      </trkpt>
      <trkpt lat="49.41646" lon="1.12384">
        <ele>129</ele>
        <time>2017-01-17T16:42:06Z</time>
      </trkpt>
      <trkpt lat="49.41647" lon="1.12389">
        <ele>129</ele>
        <time>2017-01-17T16:42:06Z</time>
      </trkpt>
      <trkpt lat="49.41647" lon="1.12395">
        <ele>129</ele>
        <time>2017-01-17T16:42:22Z</time>
      </trkpt>
      <trkpt lat="49.41643" lon="1.12402">
        <ele>129</ele>
        <time>2017-01-17T16:42:22Z</time>
      </trkpt>
      <trkpt lat="49.41641" lon="1.12407">
        <ele>129</ele>
        <time>2017-01-17T16:42:22Z</time>
      </trkpt>
      <trkpt lat="49.41641" lon="1.12413">
        <ele>129</ele>
        <time>2017-01-17T16:42:22Z</time>
      </trkpt>
      <trkpt lat="49.41642" lon="1.12419">
        <ele>129</ele>
        <time>2017-01-17T16:42:38Z</time>
      </trkpt>
      <trkpt lat="49.41641" lon="1.12424">
        <ele>129</ele>
        <time>2017-01-17T16:42:38Z</time>
      </trkpt>
      <trkpt lat="49.41638" lon="1.12431">
        <ele>129</ele>
        <time>2017-01-17T16:42:38Z</time>
      </trkpt>
      <trkpt lat="49.41639" lon="1.12436">
        <ele>129</ele>
        <time>2017-01-17T16:42:38Z</time>
      </trkpt>
      <trkpt lat="49.4164" lon="1.12442">
        <ele>129</ele>
        <time>2017-01-17T16:42:54Z</time>
      </trkpt>
      <trkpt lat="49.41642" lon="1.12448">
        <ele>129</ele>
        <time>2017-01-17T16:42:54Z</time>
      </trkpt>
      <trkpt lat="49.41643" lon="1.12454">
        <ele>129</ele>
        <time>2017-01-17T16:42:54Z</time>
      </trkpt>
      <trkpt lat="49.41644" lon="1.1246">
        <ele>131</ele>
        <time>2017-01-17T16:42:54Z</time>
      </trkpt>
      <trkpt lat="49.41641" lon="1.12466">
        <ele>131</ele>
        <time>2017-01-17T16:43:14Z</time>
      </trkpt>
      <trkpt lat="49.41638" lon="1.12468">
        <ele>131</ele>
        <time>2017-01-17T16:43:14Z</time>
      </trkpt>
      <trkpt lat="49.41638" lon="1.12473">
        <ele>131</ele>
        <time>2017-01-17T16:43:14Z</time>
      </trkpt>
      <trkpt lat="49.4164" lon="1.12479">
        <ele>131</ele>
        <time>2017-01-17T16:43:14Z</time>
      </trkpt>
      <trkpt lat="49.41642" lon="1.12484">
        <ele>131</ele>
        <time>2017-01-17T16:43:14Z</time>
      </trkpt>
      <trkpt lat="49.41644" lon="1.1249">
        <ele>131</ele>
        <time>2017-01-17T16:43:30Z</time>
      </trkpt>
      <trkpt lat="49.41645" lon="1.12496">
        <ele>131</ele>
        <time>2017-01-17T16:43:30Z</time>
      </trkpt>
      <trkpt lat="49.41646" lon="1.12502">
        <ele>131</ele>
        <time>2017-01-17T16:43:30Z</time>
      </trkpt>
      <trkpt lat="49.41647" lon="1.12508">
        <ele>131</ele>
        <time>2017-01-17T16:43:30Z</time>
      </trkpt>
      <trkpt lat="49.41648" lon="1.12514">
        <ele>131</ele>
        <time>2017-01-17T16:43:46Z</time>
      </trkpt>
      <trkpt lat="49.41649" lon="1.1252">
        <ele>131</ele>
        <time>2017-01-17T16:43:46Z</time>
      </trkpt>
      <trkpt lat="49.4165" lon="1.12526">
        <ele>131</ele>
        <time>2017-01-17T16:43:46Z</time>
      </trkpt>
      <trkpt lat="49.41652" lon="1.12532">
        <ele>131</ele>
        <time>2017-01-17T16:43:46Z</time>
      </trkpt>
      <trkpt lat="49.41653" lon="1.12538">
        <ele>131</ele>
        <time>2017-01-17T16:44:02Z</time>
      </trkpt>
      <trkpt lat="49.41654" lon="1.12543">
        <ele>128</ele>
        <time>2017-01-17T16:44:02Z</time>
      </trkpt>
      <trkpt lat="49.41656" lon="1.12549">
        <ele>128</ele>
        <time>2017-01-17T16:44:02Z</time>
      </trkpt>
      <trkpt lat="49.41658" lon="1.12555">
        <ele>128</ele>
        <time>2017-01-17T16:44:02Z</time>
      </trkpt>
      <trkpt lat="49.41659" lon="1.12561">
        <ele>128</ele>
        <time>2017-01-17T16:44:18Z</time>
      </trkpt>
      <trkpt lat="49.41661" lon="1.12566">
        <ele>128</ele>
        <time>2017-01-17T16:44:18Z</time>
      </trkpt>
      <trkpt lat="49.41663" lon="1.12571">
        <ele>128</ele>
        <time>2017-01-17T16:44:18Z</time>
      </trkpt>
      <trkpt lat="49.41665" lon="1.12577">
        <ele>128</ele>
        <time>2017-01-17T16:44:18Z</time>
      </trkpt>
      <trkpt lat="49.41657" lon="1.12579">
        <ele>128</ele>
        <time>2017-01-17T16:44:46Z</time>
      </trkpt>
      <trkpt lat="49.41658" lon="1.12582">
        <ele>128</ele>
        <time>2017-01-17T16:44:46Z</time>
      </trkpt>
      <trkpt lat="49.41656" lon="1.12585">
        <ele>128</ele>
        <time>2017-01-17T16:44:46Z</time>
      </trkpt>
      <trkpt lat="49.4166" lon="1.1259">
        <ele>128</ele>
        <time>2017-01-17T16:44:46Z</time>
      </trkpt>
      <trkpt lat="49.41663" lon="1.12594">
        <ele>128</ele>
        <time>2017-01-17T16:44:46Z</time>
      </trkpt>
      <trkpt lat="49.41667" lon="1.12596">
        <ele>128</ele>
        <time>2017-01-17T16:45:02Z</time>
      </trkpt>
      <trkpt lat="49.41671" lon="1.12598">
        <ele>128</ele>
        <time>2017-01-17T16:45:02Z</time>
      </trkpt>
      <trkpt lat="49.41674" lon="1.126">
        <ele>128</ele>
        <time>2017-01-17T16:45:02Z</time>
      </trkpt>
      <trkpt lat="49.41678" lon="1.12603">
        <ele>128</ele>
        <time>2017-01-17T16:45:02Z</time>
      </trkpt>
      <trkpt lat="49.41682" lon="1.12605">
        <ele>128</ele>
        <time>2017-01-17T16:45:18Z</time>
      </trkpt>
      <trkpt lat="49.41686" lon="1.12606">
        <ele>128</ele>
        <time>2017-01-17T16:45:18Z</time>
      </trkpt>
      <trkpt lat="49.4169" lon="1.12608">
        <ele>128</ele>
        <time>2017-01-17T16:45:18Z</time>
      </trkpt>
      <trkpt lat="49.41693" lon="1.12611">
        <ele>128</ele>
        <time>2017-01-17T16:45:18Z</time>
      </trkpt>
      <trkpt lat="49.41697" lon="1.12615">
        <ele>128</ele>
        <time>2017-01-17T16:45:34Z</time>
      </trkpt>
      <trkpt lat="49.41698" lon="1.12625">
        <ele>128</ele>
        <time>2017-01-17T16:45:34Z</time>
      </trkpt>
      <trkpt lat="49.417" lon="1.12628">
        <ele>119</ele>
        <time>2017-01-17T16:45:34Z</time>
      </trkpt>
      <trkpt lat="49.41701" lon="1.12633">
        <ele>119</ele>
        <time>2017-01-17T16:45:34Z</time>
      </trkpt>
      <trkpt lat="49.41703" lon="1.12636">
        <ele>119</ele>
        <time>2017-01-17T16:45:54Z</time>
      </trkpt>
      <trkpt lat="49.41706" lon="1.12632">
        <ele>119</ele>
        <time>2017-01-17T16:45:54Z</time>
      </trkpt>
      <trkpt lat="49.41708" lon="1.12636">
        <ele>119</ele>
        <time>2017-01-17T16:45:54Z</time>
      </trkpt>
      <trkpt lat="49.41711" lon="1.1264">
        <ele>145</ele>
        <time>2017-01-17T16:45:54Z</time>
      </trkpt>
      <trkpt lat="49.41714" lon="1.12643">
        <ele>145</ele>
        <time>2017-01-17T16:45:54Z</time>
      </trkpt>
      <trkpt lat="49.41715" lon="1.12649">
        <ele>145</ele>
        <time>2017-01-17T16:46:10Z</time>
      </trkpt>
      <trkpt lat="49.41718" lon="1.12652">
        <ele>145</ele>
        <time>2017-01-17T16:46:10Z</time>
      </trkpt>
      <trkpt lat="49.4172" lon="1.12655">
        <ele>145</ele>
        <time>2017-01-17T16:46:10Z</time>
      </trkpt>
      <trkpt lat="49.41723" lon="1.12659">
        <ele>145</ele>
        <time>2017-01-17T16:46:10Z</time>
      </trkpt>
      <trkpt lat="49.41727" lon="1.1266">
        <ele>145</ele>
        <time>2017-01-17T16:46:26Z</time>
      </trkpt>
      <trkpt lat="49.4173" lon="1.12662">
        <ele>145</ele>
        <time>2017-01-17T16:46:26Z</time>
      </trkpt>
      <trkpt lat="49.41733" lon="1.12664">
        <ele>145</ele>
        <time>2017-01-17T16:46:26Z</time>
      </trkpt>
      <trkpt lat="49.41736" lon="1.12665">
        <ele>145</ele>
        <time>2017-01-17T16:46:26Z</time>
      </trkpt>
      <trkpt lat="49.41737" lon="1.12668">
        <ele>145</ele>
        <time>2017-01-17T16:47:02Z</time>
      </trkpt>
      <trkpt lat="49.41733" lon="1.1267">
        <ele>145</ele>
        <time>2017-01-17T16:47:02Z</time>
      </trkpt>
      <trkpt lat="49.41733" lon="1.12671">
        <ele>145</ele>
        <time>2017-01-17T16:47:02Z</time>
      </trkpt>
      <trkpt lat="49.4173" lon="1.12676">
        <ele>145</ele>
        <time>2017-01-17T16:47:02Z</time>
      </trkpt>
      <trkpt lat="49.41732" lon="1.12682">
        <ele>145</ele>
        <time>2017-01-17T16:47:02Z</time>
      </trkpt>
      <trkpt lat="49.41734" lon="1.12688">
        <ele>145</ele>
        <time>2017-01-17T16:47:18Z</time>
      </trkpt>
      <trkpt lat="49.41733" lon="1.12694">
        <ele>145</ele>
        <time>2017-01-17T16:47:18Z</time>
      </trkpt>
      <trkpt lat="49.41734" lon="1.127">
        <ele>145</ele>
        <time>2017-01-17T16:47:18Z</time>
      </trkpt>
      <trkpt lat="49.41734" lon="1.12706">
        <ele>145</ele>
        <time>2017-01-17T16:47:18Z</time>
      </trkpt>
      <trkpt lat="49.41728" lon="1.12713">
        <ele>146</ele>
        <time>2017-01-17T16:47:34Z</time>
      </trkpt>
      <trkpt lat="49.41724" lon="1.12719">
        <ele>146</ele>
        <time>2017-01-17T16:47:34Z</time>
      </trkpt>
      <trkpt lat="49.41719" lon="1.12723">
        <ele>146</ele>
        <time>2017-01-17T16:47:34Z</time>
      </trkpt>
      <trkpt lat="49.41716" lon="1.12728">
        <ele>146</ele>
        <time>2017-01-17T16:47:34Z</time>
      </trkpt>
      <trkpt lat="49.41719" lon="1.1273">
        <ele>146</ele>
        <time>2017-01-17T16:47:54Z</time>
      </trkpt>
      <trkpt lat="49.41717" lon="1.12732">
        <ele>146</ele>
        <time>2017-01-17T16:47:54Z</time>
      </trkpt>
      <trkpt lat="49.41715" lon="1.12735">
        <ele>146</ele>
        <time>2017-01-17T16:47:54Z</time>
      </trkpt>
      <trkpt lat="49.41713" lon="1.12739">
        <ele>146</ele>
        <time>2017-01-17T16:47:54Z</time>
      </trkpt>
      <trkpt lat="49.41712" lon="1.12744">
        <ele>146</ele>
        <time>2017-01-17T16:47:54Z</time>
      </trkpt>
      <trkpt lat="49.41709" lon="1.12749">
        <ele>146</ele>
        <time>2017-01-17T16:48:10Z</time>
      </trkpt>
      <trkpt lat="49.41706" lon="1.12754">
        <ele>125</ele>
        <time>2017-01-17T16:48:10Z</time>
      </trkpt>
      <trkpt lat="49.41703" lon="1.12758">
        <ele>125</ele>
        <time>2017-01-17T16:48:10Z</time>
      </trkpt>
      <trkpt lat="49.41699" lon="1.12761">
        <ele>125</ele>
        <time>2017-01-17T16:48:10Z</time>
      </trkpt>
      <trkpt lat="49.41695" lon="1.12764">
        <ele>125</ele>
        <time>2017-01-17T16:48:26Z</time>
      </trkpt>
      <trkpt lat="49.41692" lon="1.1277">
        <ele>125</ele>
        <time>2017-01-17T16:48:26Z</time>
      </trkpt>
      <trkpt lat="49.4169" lon="1.12774">
        <ele>125</ele>
        <time>2017-01-17T16:48:26Z</time>
      </trkpt>
      <trkpt lat="49.41689" lon="1.12779">
        <ele>125</ele>
        <time>2017-01-17T16:48:26Z</time>
      </trkpt>
      <trkpt lat="49.41685" lon="1.12781">
        <ele>125</ele>
        <time>2017-01-17T16:51:42Z</time>
      </trkpt>
      <trkpt lat="49.41681" lon="1.12786">
        <ele>125</ele>
        <time>2017-01-17T16:51:42Z</time>
      </trkpt>
      <trkpt lat="49.41678" lon="1.12793">
        <ele>131</ele>
        <time>2017-01-17T16:51:42Z</time>
      </trkpt>
      <trkpt lat="49.41676" lon="1.12799">
        <ele>131</ele>
        <time>2017-01-17T16:51:42Z</time>
      </trkpt>
      <trkpt lat="49.41675" lon="1.12807">
        <ele>131</ele>
        <time>2017-01-17T16:51:42Z</time>
      </trkpt>
      <trkpt lat="49.41675" lon="1.12811">
        <ele>131</ele>
        <time>2017-01-17T16:51:58Z</time>
      </trkpt>
      <trkpt lat="49.41672" lon="1.12816">
        <ele>131</ele>
        <time>2017-01-17T16:51:58Z</time>
      </trkpt>
      <trkpt lat="49.4167" lon="1.1282">
        <ele>131</ele>
        <time>2017-01-17T16:51:58Z</time>
      </trkpt>
      <trkpt lat="49.41669" lon="1.12824">
        <ele>131</ele>
        <time>2017-01-17T16:51:58Z</time>
      </trkpt>
      <trkpt lat="49.41669" lon="1.1283">
        <ele>131</ele>
        <time>2017-01-17T16:52:14Z</time>
      </trkpt>
      <trkpt lat="49.41668" lon="1.12838">
        <ele>131</ele>
        <time>2017-01-17T16:52:14Z</time>
      </trkpt>
      <trkpt lat="49.41668" lon="1.12845">
        <ele>131</ele>
        <time>2017-01-17T16:52:14Z</time>
      </trkpt>
      <trkpt lat="49.41668" lon="1.12852">
        <ele>131</ele>
        <time>2017-01-17T16:52:14Z</time>
      </trkpt>
      <trkpt lat="49.41667" lon="1.12857">
        <ele>131</ele>
        <time>2017-01-17T16:52:30Z</time>
      </trkpt>
      <trkpt lat="49.41666" lon="1.12864">
        <ele>131</ele>
        <time>2017-01-17T16:52:30Z</time>
      </trkpt>
      <trkpt lat="49.41665" lon="1.12871">
        <ele>131</ele>
        <time>2017-01-17T16:52:30Z</time>
      </trkpt>
      <trkpt lat="49.41663" lon="1.12878">
        <ele>135</ele>
        <time>2017-01-17T16:52:30Z</time>
      </trkpt>
      <trkpt lat="49.41662" lon="1.12885">
        <ele>135</ele>
        <time>2017-01-17T16:52:46Z</time>
      </trkpt>
      <trkpt lat="49.41662" lon="1.12891">
        <ele>135</ele>
        <time>2017-01-17T16:52:46Z</time>
      </trkpt>
      <trkpt lat="49.41661" lon="1.12898">
        <ele>135</ele>
        <time>2017-01-17T16:52:46Z</time>
      </trkpt>
      <trkpt lat="49.41661" lon="1.12903">
        <ele>135</ele>
        <time>2017-01-17T16:52:46Z</time>
      </trkpt>
      <trkpt lat="49.41661" lon="1.1291">
        <ele>135</ele>
        <time>2017-01-17T16:53:02Z</time>
      </trkpt>
      <trkpt lat="49.4166" lon="1.12917">
        <ele>135</ele>
        <time>2017-01-17T16:53:02Z</time>
      </trkpt>
      <trkpt lat="49.4166" lon="1.12922">
        <ele>135</ele>
        <time>2017-01-17T16:53:02Z</time>
      </trkpt>
      <trkpt lat="49.4166" lon="1.12928">
        <ele>135</ele>
        <time>2017-01-17T16:53:02Z</time>
      </trkpt>
      <trkpt lat="49.41662" lon="1.12932">
        <ele>135</ele>
        <time>2017-01-17T16:53:18Z</time>
      </trkpt>
      <trkpt lat="49.41662" lon="1.12937">
        <ele>135</ele>
        <time>2017-01-17T16:53:18Z</time>
      </trkpt>
      <trkpt lat="49.41662" lon="1.12944">
        <ele>135</ele>
        <time>2017-01-17T16:53:18Z</time>
      </trkpt>
      <trkpt lat="49.41661" lon="1.1295">
        <ele>135</ele>
        <time>2017-01-17T16:53:18Z</time>
      </trkpt>
      <trkpt lat="49.41661" lon="1.12955">
        <ele>135</ele>
        <time>2017-01-17T16:53:34Z</time>
      </trkpt>
      <trkpt lat="49.41662" lon="1.12963">
        <ele>143</ele>
        <time>2017-01-17T16:53:34Z</time>
      </trkpt>
      <trkpt lat="49.41663" lon="1.12969">
        <ele>143</ele>
        <time>2017-01-17T16:53:34Z</time>
      </trkpt>
      <trkpt lat="49.41665" lon="1.12975">
        <ele>143</ele>
        <time>2017-01-17T16:53:34Z</time>
      </trkpt>
      <trkpt lat="49.41665" lon="1.12981">
        <ele>143</ele>
        <time>2017-01-17T16:53:50Z</time>
      </trkpt>
      <trkpt lat="49.41666" lon="1.12988">
        <ele>143</ele>
        <time>2017-01-17T16:53:50Z</time>
      </trkpt>
      <trkpt lat="49.41666" lon="1.12994">
        <ele>143</ele>
        <time>2017-01-17T16:53:50Z</time>
      </trkpt>
      <trkpt lat="49.41665" lon="1.13001">
        <ele>143</ele>
        <time>2017-01-17T16:53:50Z</time>
      </trkpt>
      <trkpt lat="49.41666" lon="1.13006">
        <ele>143</ele>
        <time>2017-01-17T16:54:06Z</time>
      </trkpt>
      <trkpt lat="49.41668" lon="1.13012">
        <ele>143</ele>
        <time>2017-01-17T16:54:06Z</time>
      </trkpt>
      <trkpt lat="49.41666" lon="1.1302">
        <ele>143</ele>
        <time>2017-01-17T16:54:06Z</time>
      </trkpt>
      <trkpt lat="49.41667" lon="1.13028">
        <ele>143</ele>
        <time>2017-01-17T16:54:06Z</time>
      </trkpt>
      <trkpt lat="49.41668" lon="1.13033">
        <ele>143</ele>
        <time>2017-01-17T16:54:22Z</time>
      </trkpt>
      <trkpt lat="49.41668" lon="1.13038">
        <ele>143</ele>
        <time>2017-01-17T16:54:22Z</time>
      </trkpt>
      <trkpt lat="49.41668" lon="1.13043">
        <ele>146</ele>
        <time>2017-01-17T16:54:22Z</time>
      </trkpt>
      <trkpt lat="49.41669" lon="1.13048">
        <ele>146</ele>
        <time>2017-01-17T16:54:22Z</time>
      </trkpt>
      <trkpt lat="49.41669" lon="1.13054">
        <ele>146</ele>
        <time>2017-01-17T16:54:38Z</time>
      </trkpt>
      <trkpt lat="49.4167" lon="1.13062">
        <ele>146</ele>
        <time>2017-01-17T16:54:38Z</time>
      </trkpt>
      <trkpt lat="49.41671" lon="1.13069">
        <ele>146</ele>
        <time>2017-01-17T16:54:38Z</time>
      </trkpt>
      <trkpt lat="49.41672" lon="1.13075">
        <ele>146</ele>
        <time>2017-01-17T16:54:38Z</time>
      </trkpt>
      <trkpt lat="49.41672" lon="1.13081">
        <ele>146</ele>
        <time>2017-01-17T16:54:54Z</time>
      </trkpt>
      <trkpt lat="49.41672" lon="1.13086">
        <ele>146</ele>
        <time>2017-01-17T16:54:54Z</time>
      </trkpt>
      <trkpt lat="49.41673" lon="1.13093">
        <ele>146</ele>
        <time>2017-01-17T16:54:54Z</time>
      </trkpt>
      <trkpt lat="49.41671" lon="1.13099">
        <ele>146</ele>
        <time>2017-01-17T16:54:54Z</time>
      </trkpt>
      <trkpt lat="49.41666" lon="1.13104">
        <ele>146</ele>
        <time>2017-01-17T16:55:10Z</time>
      </trkpt>
      <trkpt lat="49.41661" lon="1.13108">
        <ele>146</ele>
        <time>2017-01-17T16:55:10Z</time>
      </trkpt>
      <trkpt lat="49.41656" lon="1.13113">
        <ele>146</ele>
        <time>2017-01-17T16:55:10Z</time>
      </trkpt>
      <trkpt lat="49.41651" lon="1.13116">
        <ele>146</ele>
        <time>2017-01-17T16:55:10Z</time>
      </trkpt>
      <trkpt lat="49.41647" lon="1.1312">
        <ele>146</ele>
        <time>2017-01-17T16:55:26Z</time>
      </trkpt>
      <trkpt lat="49.41642" lon="1.13124">
        <ele>146</ele>
        <time>2017-01-17T16:55:26Z</time>
      </trkpt>
      <trkpt lat="49.41639" lon="1.13129">
        <ele>147</ele>
        <time>2017-01-17T16:55:26Z</time>
      </trkpt>
      <trkpt lat="49.41636" lon="1.13133">
        <ele>147</ele>
        <time>2017-01-17T16:55:26Z</time>
      </trkpt>
      <trkpt lat="49.41632" lon="1.13137">
        <ele>147</ele>
        <time>2017-01-17T16:55:42Z</time>
      </trkpt>
      <trkpt lat="49.41628" lon="1.13139">
        <ele>147</ele>
        <time>2017-01-17T16:55:42Z</time>
      </trkpt>
      <trkpt lat="49.41624" lon="1.13143">
        <ele>147</ele>
        <time>2017-01-17T16:55:42Z</time>
      </trkpt>
      <trkpt lat="49.41621" lon="1.13147">
        <ele>147</ele>
        <time>2017-01-17T16:55:42Z</time>
      </trkpt>
      <trkpt lat="49.41617" lon="1.13152">
        <ele>147</ele>
        <time>2017-01-17T16:55:58Z</time>
      </trkpt>
      <trkpt lat="49.41612" lon="1.13156">
        <ele>147</ele>
        <time>2017-01-17T16:55:58Z</time>
      </trkpt>
      <trkpt lat="49.41607" lon="1.1316">
        <ele>147</ele>
        <time>2017-01-17T16:55:58Z</time>
      </trkpt>
      <trkpt lat="49.41604" lon="1.13162">
        <ele>147</ele>
        <time>2017-01-17T16:55:58Z</time>
      </trkpt>
      <trkpt lat="49.41601" lon="1.13165">
        <ele>147</ele>
        <time>2017-01-17T16:56:14Z</time>
      </trkpt>
      <trkpt lat="49.41598" lon="1.13169">
        <ele>147</ele>
        <time>2017-01-17T16:56:14Z</time>
      </trkpt>
      <trkpt lat="49.41594" lon="1.13174">
        <ele>147</ele>
        <time>2017-01-17T16:56:14Z</time>
      </trkpt>
      <trkpt lat="49.4159" lon="1.13178">
        <ele>147</ele>
        <time>2017-01-17T16:56:14Z</time>
      </trkpt>
      <trkpt lat="49.41586" lon="1.13182">
        <ele>147</ele>
        <time>2017-01-17T16:56:30Z</time>
      </trkpt>
      <trkpt lat="49.41583" lon="1.13184">
        <ele>147</ele>
        <time>2017-01-17T16:56:30Z</time>
      </trkpt>
      <trkpt lat="49.41578" lon="1.13186">
        <ele>147</ele>
        <time>2017-01-17T16:56:30Z</time>
      </trkpt>
      <trkpt lat="49.41574" lon="1.13186">
        <ele>147</ele>
        <time>2017-01-17T16:56:30Z</time>
      </trkpt>
      <trkpt lat="49.41569" lon="1.13189">
        <ele>147</ele>
        <time>2017-01-17T16:56:46Z</time>
      </trkpt>
      <trkpt lat="49.41566" lon="1.13192">
        <ele>147</ele>
        <time>2017-01-17T16:56:46Z</time>
      </trkpt>
      <trkpt lat="49.41562" lon="1.13195">
        <ele>147</ele>
        <time>2017-01-17T16:56:46Z</time>
      </trkpt>
      <trkpt lat="49.41557" lon="1.13198">
        <ele>147</ele>
        <time>2017-01-17T16:56:46Z</time>
      </trkpt>
      <trkpt lat="49.41555" lon="1.132">
        <ele>147</ele>
        <time>2017-01-17T16:57:02Z</time>
      </trkpt>
      <trkpt lat="49.41552" lon="1.132">
        <ele>147</ele>
        <time>2017-01-17T16:57:02Z</time>
      </trkpt>
      <trkpt lat="49.41547" lon="1.132">
        <ele>147</ele>
        <time>2017-01-17T16:57:02Z</time>
      </trkpt>
      <trkpt lat="49.41542" lon="1.13202">
        <ele>147</ele>
        <time>2017-01-17T16:57:02Z</time>
      </trkpt>
      <trkpt lat="49.41538" lon="1.13204">
        <ele>147</ele>
        <time>2017-01-17T16:57:18Z</time>
      </trkpt>
      <trkpt lat="49.41533" lon="1.13206">
        <ele>147</ele>
        <time>2017-01-17T16:57:18Z</time>
      </trkpt>
      <trkpt lat="49.41529" lon="1.13208">
        <ele>147</ele>
        <time>2017-01-17T16:57:18Z</time>
      </trkpt>
      <trkpt lat="49.41524" lon="1.13211">
        <ele>149</ele>
        <time>2017-01-17T16:57:18Z</time>
      </trkpt>
      <trkpt lat="49.4152" lon="1.13213">
        <ele>149</ele>
        <time>2017-01-17T16:57:34Z</time>
      </trkpt>
      <trkpt lat="49.41516" lon="1.13215">
        <ele>149</ele>
        <time>2017-01-17T16:57:34Z</time>
      </trkpt>
      <trkpt lat="49.41511" lon="1.13217">
        <ele>149</ele>
        <time>2017-01-17T16:57:34Z</time>
      </trkpt>
      <trkpt lat="49.41507" lon="1.13218">
        <ele>149</ele>
        <time>2017-01-17T16:57:34Z</time>
      </trkpt>
      <trkpt lat="49.41504" lon="1.13221">
        <ele>149</ele>
        <time>2017-01-17T16:57:50Z</time>
      </trkpt>
      <trkpt lat="49.41501" lon="1.13222">
        <ele>149</ele>
        <time>2017-01-17T16:57:50Z</time>
      </trkpt>
      <trkpt lat="49.41497" lon="1.13222">
        <ele>149</ele>
        <time>2017-01-17T16:57:50Z</time>
      </trkpt>
      <trkpt lat="49.41493" lon="1.13225">
        <ele>149</ele>
        <time>2017-01-17T16:57:50Z</time>
      </trkpt>
      <trkpt lat="49.41488" lon="1.13226">
        <ele>149</ele>
        <time>2017-01-17T16:58:06Z</time>
      </trkpt>
      <trkpt lat="49.41483" lon="1.1323">
        <ele>149</ele>
        <time>2017-01-17T16:58:06Z</time>
      </trkpt>
      <trkpt lat="49.41479" lon="1.13232">
        <ele>149</ele>
        <time>2017-01-17T16:58:06Z</time>
      </trkpt>
      <trkpt lat="49.41475" lon="1.13234">
        <ele>149</ele>
        <time>2017-01-17T16:58:06Z</time>
      </trkpt>
      <trkpt lat="49.41469" lon="1.13237">
        <ele>149</ele>
        <time>2017-01-17T16:58:22Z</time>
      </trkpt>
      <trkpt lat="49.41465" lon="1.1324">
        <ele>149</ele>
        <time>2017-01-17T16:58:22Z</time>
      </trkpt>
      <trkpt lat="49.41461" lon="1.13241">
        <ele>149</ele>
        <time>2017-01-17T16:58:22Z</time>
      </trkpt>
      <trkpt lat="49.41458" lon="1.13242">
        <ele>149</ele>
        <time>2017-01-17T16:58:22Z</time>
      </trkpt>
      <trkpt lat="49.41454" lon="1.13244">
        <ele>149</ele>
        <time>2017-01-17T16:58:38Z</time>
      </trkpt>
      <trkpt lat="49.4145" lon="1.13247">
        <ele>149</ele>
        <time>2017-01-17T16:58:38Z</time>
      </trkpt>
      <trkpt lat="49.41448" lon="1.13253">
        <ele>149</ele>
        <time>2017-01-17T16:58:38Z</time>
      </trkpt>
      <trkpt lat="49.41444" lon="1.13255">
        <ele>149</ele>
        <time>2017-01-17T16:58:38Z</time>
      </trkpt>
      <trkpt lat="49.41442" lon="1.13258">
        <ele>149</ele>
        <time>2017-01-17T16:58:54Z</time>
      </trkpt>
      <trkpt lat="49.41437" lon="1.1326">
        <ele>149</ele>
        <time>2017-01-17T16:58:54Z</time>
      </trkpt>
      <trkpt lat="49.41434" lon="1.1326">
        <ele>149</ele>
        <time>2017-01-17T16:58:54Z</time>
      </trkpt>
      <trkpt lat="49.41431" lon="1.13262">
        <ele>149</ele>
        <time>2017-01-17T16:58:54Z</time>
      </trkpt>
      <trkpt lat="49.41426" lon="1.13265">
        <ele>149</ele>
        <time>2017-01-17T16:59:10Z</time>
      </trkpt>
      <trkpt lat="49.41421" lon="1.13269">
        <ele>149</ele>
        <time>2017-01-17T16:59:10Z</time>
      </trkpt>
      <trkpt lat="49.41417" lon="1.13275">
        <ele>149</ele>
        <time>2017-01-17T16:59:10Z</time>
      </trkpt>
      <trkpt lat="49.41418" lon="1.13283">
        <ele>149</ele>
        <time>2017-01-17T16:59:10Z</time>
      </trkpt>
      <trkpt lat="49.41417" lon="1.1329">
        <ele>149</ele>
        <time>2017-01-17T16:59:26Z</time>
      </trkpt>
      <trkpt lat="49.41417" lon="1.13293">
        <ele>150</ele>
        <time>2017-01-17T16:59:26Z</time>
      </trkpt>
      <trkpt lat="49.41411" lon="1.13295">
        <ele>150</ele>
        <time>2017-01-17T16:59:26Z</time>
      </trkpt>
      <trkpt lat="49.41406" lon="1.13294">
        <ele>150</ele>
        <time>2017-01-17T16:59:26Z</time>
      </trkpt>
      <trkpt lat="49.41403" lon="1.13291">
        <ele>149</ele>
        <time>2017-01-17T16:59:42Z</time>
      </trkpt>
      <trkpt lat="49.414" lon="1.1329">
        <ele>149</ele>
        <time>2017-01-17T16:59:42Z</time>
      </trkpt>
      <trkpt lat="49.41396" lon="1.1329">
        <ele>149</ele>
        <time>2017-01-17T16:59:42Z</time>
      </trkpt>
      <trkpt lat="49.41391" lon="1.13291">
        <ele>149</ele>
        <time>2017-01-17T16:59:42Z</time>
      </trkpt>
      <trkpt lat="49.41385" lon="1.13294">
        <ele>150</ele>
        <time>2017-01-17T16:59:58Z</time>
      </trkpt>
      <trkpt lat="49.41382" lon="1.13296">
        <ele>150</ele>
        <time>2017-01-17T16:59:58Z</time>
      </trkpt>
      <trkpt lat="49.41379" lon="1.13298">
        <ele>150</ele>
        <time>2017-01-17T16:59:58Z</time>
      </trkpt>
      <trkpt lat="49.41375" lon="1.13302">
        <ele>151</ele>
        <time>2017-01-17T16:59:58Z</time>
      </trkpt>
      <trkpt lat="49.41371" lon="1.13306">
        <ele>151</ele>
        <time>2017-01-17T17:00:14Z</time>
      </trkpt>
      <trkpt lat="49.41367" lon="1.13307">
        <ele>151</ele>
        <time>2017-01-17T17:00:14Z</time>
      </trkpt>
      <trkpt lat="49.41363" lon="1.13308">
        <ele>151</ele>
        <time>2017-01-17T17:00:14Z</time>
      </trkpt>
      <trkpt lat="49.4136" lon="1.13309">
        <ele>151</ele>
        <time>2017-01-17T17:00:14Z</time>
      </trkpt>
      <trkpt lat="49.41357" lon="1.1331">
        <ele>151</ele>
        <time>2017-01-17T17:00:30Z</time>
      </trkpt>
      <trkpt lat="49.41353" lon="1.13312">
        <ele>151</ele>
        <time>2017-01-17T17:00:30Z</time>
      </trkpt>
      <trkpt lat="49.41348" lon="1.13314">
        <ele>151</ele>
        <time>2017-01-17T17:00:30Z</time>
      </trkpt>
      <trkpt lat="49.41344" lon="1.13316">
        <ele>151</ele>
        <time>2017-01-17T17:00:30Z</time>
      </trkpt>
      <trkpt lat="49.41339" lon="1.1332">
        <ele>151</ele>
        <time>2017-01-17T17:00:46Z</time>
      </trkpt>
      <trkpt lat="49.41334" lon="1.13323">
        <ele>151</ele>
        <time>2017-01-17T17:00:46Z</time>
      </trkpt>
      <trkpt lat="49.41328" lon="1.13326">
        <ele>151</ele>
        <time>2017-01-17T17:00:46Z</time>
      </trkpt>
      <trkpt lat="49.41324" lon="1.13327">
        <ele>151</ele>
        <time>2017-01-17T17:00:46Z</time>
      </trkpt>
      <trkpt lat="49.4132" lon="1.13329">
        <ele>151</ele>
        <time>2017-01-17T17:01:02Z</time>
      </trkpt>
      <trkpt lat="49.41315" lon="1.13331">
        <ele>151</ele>
        <time>2017-01-17T17:01:02Z</time>
      </trkpt>
      <trkpt lat="49.41312" lon="1.13332">
        <ele>151</ele>
        <time>2017-01-17T17:01:02Z</time>
      </trkpt>
      <trkpt lat="49.41308" lon="1.13335">
        <ele>151</ele>
        <time>2017-01-17T17:01:02Z</time>
      </trkpt>
      <trkpt lat="49.41304" lon="1.13338">
        <ele>151</ele>
        <time>2017-01-17T17:01:18Z</time>
      </trkpt>
      <trkpt lat="49.413" lon="1.13341">
        <ele>151</ele>
        <time>2017-01-17T17:01:18Z</time>
      </trkpt>
      <trkpt lat="49.41297" lon="1.13343">
        <ele>151</ele>
        <time>2017-01-17T17:01:18Z</time>
      </trkpt>
      <trkpt lat="49.41294" lon="1.13345">
        <ele>151</ele>
        <time>2017-01-17T17:01:18Z</time>
      </trkpt>
      <trkpt lat="49.4129" lon="1.13348">
        <ele>152</ele>
        <time>2017-01-17T17:01:34Z</time>
      </trkpt>
      <trkpt lat="49.41285" lon="1.1335">
        <ele>152</ele>
        <time>2017-01-17T17:01:34Z</time>
      </trkpt>
      <trkpt lat="49.4128" lon="1.13352">
        <ele>152</ele>
        <time>2017-01-17T17:01:34Z</time>
      </trkpt>
      <trkpt lat="49.41276" lon="1.13354">
        <ele>152</ele>
        <time>2017-01-17T17:01:34Z</time>
      </trkpt>
      <trkpt lat="49.41272" lon="1.13356">
        <ele>152</ele>
        <time>2017-01-17T17:01:50Z</time>
      </trkpt>
      <trkpt lat="49.41268" lon="1.13358">
        <ele>152</ele>
        <time>2017-01-17T17:01:50Z</time>
      </trkpt>
      <trkpt lat="49.41264" lon="1.13359">
        <ele>152</ele>
        <time>2017-01-17T17:01:50Z</time>
      </trkpt>
      <trkpt lat="49.41259" lon="1.13362">
        <ele>152</ele>
        <time>2017-01-17T17:01:50Z</time>
      </trkpt>
      <trkpt lat="49.41255" lon="1.13364">
        <ele>152</ele>
        <time>2017-01-17T17:02:06Z</time>
      </trkpt>
      <trkpt lat="49.41251" lon="1.13366">
        <ele>152</ele>
        <time>2017-01-17T17:02:06Z</time>
      </trkpt>
      <trkpt lat="49.41247" lon="1.13369">
        <ele>152</ele>
        <time>2017-01-17T17:02:06Z</time>
      </trkpt>
      <trkpt lat="49.41242" lon="1.13373">
        <ele>152</ele>
        <time>2017-01-17T17:02:06Z</time>
      </trkpt>
      <trkpt lat="49.41235" lon="1.13379">
        <ele>154</ele>
        <time>2017-01-17T17:02:22Z</time>
      </trkpt>
      <trkpt lat="49.41231" lon="1.13383">
        <ele>154</ele>
        <time>2017-01-17T17:02:22Z</time>
      </trkpt>
      <trkpt lat="49.41227" lon="1.13384">
        <ele>154</ele>
        <time>2017-01-17T17:02:22Z</time>
      </trkpt>
      <trkpt lat="49.41223" lon="1.13386">
        <ele>154</ele>
        <time>2017-01-17T17:02:22Z</time>
      </trkpt>
      <trkpt lat="49.4122" lon="1.13388">
        <ele>154</ele>
        <time>2017-01-17T17:02:38Z</time>
      </trkpt>
      <trkpt lat="49.41217" lon="1.1339">
        <ele>154</ele>
        <time>2017-01-17T17:02:38Z</time>
      </trkpt>
      <trkpt lat="49.41213" lon="1.13392">
        <ele>154</ele>
        <time>2017-01-17T17:02:38Z</time>
      </trkpt>
      <trkpt lat="49.4121" lon="1.13393">
        <ele>154</ele>
        <time>2017-01-17T17:02:38Z</time>
      </trkpt>
      <trkpt lat="49.41205" lon="1.13395">
        <ele>154</ele>
        <time>2017-01-17T17:02:54Z</time>
      </trkpt>
      <trkpt lat="49.41201" lon="1.13397">
        <ele>154</ele>
        <time>2017-01-17T17:02:54Z</time>
      </trkpt>
      <trkpt lat="49.41197" lon="1.134">
        <ele>154</ele>
        <time>2017-01-17T17:02:54Z</time>
      </trkpt>
      <trkpt lat="49.41194" lon="1.13402">
        <ele>154</ele>
        <time>2017-01-17T17:02:54Z</time>
      </trkpt>
      <trkpt lat="49.41189" lon="1.13403">
        <ele>154</ele>
        <time>2017-01-17T17:03:10Z</time>
      </trkpt>
      <trkpt lat="49.41185" lon="1.13406">
        <ele>154</ele>
        <time>2017-01-17T17:03:10Z</time>
      </trkpt>
      <trkpt lat="49.41182" lon="1.1341">
        <ele>154</ele>
        <time>2017-01-17T17:03:10Z</time>
      </trkpt>
      <trkpt lat="49.41178" lon="1.13412">
        <ele>154</ele>
        <time>2017-01-17T17:03:10Z</time>
      </trkpt>
      <trkpt lat="49.41173" lon="1.13414">
        <ele>154</ele>
        <time>2017-01-17T17:03:26Z</time>
      </trkpt>
      <trkpt lat="49.41168" lon="1.13418">
        <ele>154</ele>
        <time>2017-01-17T17:03:26Z</time>
      </trkpt>
      <trkpt lat="49.41164" lon="1.13421">
        <ele>154</ele>
        <time>2017-01-17T17:03:26Z</time>
      </trkpt>
      <trkpt lat="49.41161" lon="1.13424">
        <ele>154</ele>
        <time>2017-01-17T17:03:26Z</time>
      </trkpt>
      <trkpt lat="49.41157" lon="1.13428">
        <ele>154</ele>
        <time>2017-01-17T17:03:42Z</time>
      </trkpt>
      <trkpt lat="49.41153" lon="1.13433">
        <ele>154</ele>
        <time>2017-01-17T17:03:42Z</time>
      </trkpt>
      <trkpt lat="49.41149" lon="1.13436">
        <ele>154</ele>
        <time>2017-01-17T17:03:42Z</time>
      </trkpt>
      <trkpt lat="49.41145" lon="1.13439">
        <ele>154</ele>
        <time>2017-01-17T17:03:42Z</time>
      </trkpt>
      <trkpt lat="49.41141" lon="1.13441">
        <ele>154</ele>
        <time>2017-01-17T17:03:58Z</time>
      </trkpt>
      <trkpt lat="49.41137" lon="1.13443">
        <ele>154</ele>
        <time>2017-01-17T17:03:58Z</time>
      </trkpt>
      <trkpt lat="49.41134" lon="1.13446">
        <ele>154</ele>
        <time>2017-01-17T17:03:58Z</time>
      </trkpt>
      <trkpt lat="49.4113" lon="1.13448">
        <ele>154</ele>
        <time>2017-01-17T17:03:58Z</time>
      </trkpt>
      <trkpt lat="49.41126" lon="1.13451">
        <ele>154</ele>
        <time>2017-01-17T17:04:14Z</time>
      </trkpt>
      <trkpt lat="49.41121" lon="1.13453">
        <ele>154</ele>
        <time>2017-01-17T17:04:14Z</time>
      </trkpt>
      <trkpt lat="49.41118" lon="1.13458">
        <ele>154</ele>
        <time>2017-01-17T17:04:14Z</time>
      </trkpt>
      <trkpt lat="49.41117" lon="1.13464">
        <ele>154</ele>
        <time>2017-01-17T17:04:14Z</time>
      </trkpt>
      <trkpt lat="49.41115" lon="1.13471">
        <ele>154</ele>
        <time>2017-01-17T17:04:30Z</time>
      </trkpt>
      <trkpt lat="49.41113" lon="1.13479">
        <ele>154</ele>
        <time>2017-01-17T17:04:30Z</time>
      </trkpt>
      <trkpt lat="49.41108" lon="1.13486">
        <ele>154</ele>
        <time>2017-01-17T17:04:30Z</time>
      </trkpt>
      <trkpt lat="49.41107" lon="1.13492">
        <ele>154</ele>
        <time>2017-01-17T17:04:30Z</time>
      </trkpt>
      <trkpt lat="49.41108" lon="1.13496">
        <ele>154</ele>
        <time>2017-01-17T17:04:46Z</time>
      </trkpt>
      <trkpt lat="49.41109" lon="1.13501">
        <ele>154</ele>
        <time>2017-01-17T17:04:46Z</time>
      </trkpt>
      <trkpt lat="49.4111" lon="1.13506">
        <ele>154</ele>
        <time>2017-01-17T17:04:46Z</time>
      </trkpt>
      <trkpt lat="49.41109" lon="1.13514">
        <ele>154</ele>
        <time>2017-01-17T17:04:46Z</time>
      </trkpt>
      <trkpt lat="49.41108" lon="1.13521">
        <ele>154</ele>
        <time>2017-01-17T17:05:02Z</time>
      </trkpt>
      <trkpt lat="49.41107" lon="1.13528">
        <ele>154</ele>
        <time>2017-01-17T17:05:02Z</time>
      </trkpt>
      <trkpt lat="49.41107" lon="1.13534">
        <ele>154</ele>
        <time>2017-01-17T17:05:02Z</time>
      </trkpt>
      <trkpt lat="49.41108" lon="1.13539">
        <ele>154</ele>
        <time>2017-01-17T17:05:02Z</time>
      </trkpt>
      <trkpt lat="49.41106" lon="1.13544">
        <ele>156</ele>
        <time>2017-01-17T17:05:18Z</time>
      </trkpt>
      <trkpt lat="49.41105" lon="1.13549">
        <ele>156</ele>
        <time>2017-01-17T17:05:18Z</time>
      </trkpt>
      <trkpt lat="49.41104" lon="1.13555">
        <ele>156</ele>
        <time>2017-01-17T17:05:18Z</time>
      </trkpt>
      <trkpt lat="49.41104" lon="1.13562">
        <ele>156</ele>
        <time>2017-01-17T17:05:18Z</time>
      </trkpt>
      <trkpt lat="49.41104" lon="1.1357">
        <ele>156</ele>
        <time>2017-01-17T17:05:34Z</time>
      </trkpt>
      <trkpt lat="49.41106" lon="1.13575">
        <ele>156</ele>
        <time>2017-01-17T17:05:34Z</time>
      </trkpt>
      <trkpt lat="49.41107" lon="1.1358">
        <ele>156</ele>
        <time>2017-01-17T17:05:34Z</time>
      </trkpt>
      <trkpt lat="49.41109" lon="1.13585">
        <ele>156</ele>
        <time>2017-01-17T17:05:34Z</time>
      </trkpt>
      <trkpt lat="49.41112" lon="1.13589">
        <ele>156</ele>
        <time>2017-01-17T17:05:50Z</time>
      </trkpt>
      <trkpt lat="49.41114" lon="1.13595">
        <ele>156</ele>
        <time>2017-01-17T17:05:50Z</time>
      </trkpt>
      <trkpt lat="49.41115" lon="1.13601">
        <ele>156</ele>
        <time>2017-01-17T17:05:50Z</time>
      </trkpt>
      <trkpt lat="49.41116" lon="1.13604">
        <ele>156</ele>
        <time>2017-01-17T17:05:50Z</time>
      </trkpt>
      <trkpt lat="49.41118" lon="1.13607">
        <ele>156</ele>
        <time>2017-01-17T17:06:06Z</time>
      </trkpt>
      <trkpt lat="49.4112" lon="1.13612">
        <ele>156</ele>
        <time>2017-01-17T17:06:06Z</time>
      </trkpt>
      <trkpt lat="49.41123" lon="1.13618">
        <ele>156</ele>
        <time>2017-01-17T17:06:06Z</time>
      </trkpt>
      <trkpt lat="49.41127" lon="1.1362">
        <ele>156</ele>
        <time>2017-01-17T17:06:06Z</time>
      </trkpt>
    </trkseg>
  </trk>
</gpx>